<?xml version="1.0" encoding="UTF-8" standalone="no" ?>
<gpx xmlns="http://www.topografix.com/GPX/1/1" xmlns:xsi="http://www.w3.org/2001/XMLSchema-instance" xsi:schemaLocation="http://www.topografix.com/GPX/1/1 http://www.topografix.com/GPX/1/1/gpx.xsd" version="1.1" creator="VisuGPX - https://www.visugpx.com">
  <metadata>
    <name>lbvmollive2024</name>
  </metadata>
  <trk>
    <name><![CDATA[alpe sarenne deux alpes-19148469]]></name>
    <trkseg>
      <trkpt lat="45.06812" lon="6.02104">
        <ele>715</ele>
        <time>2024-06-04T20:36:43Z</time>
      </trkpt>
      <trkpt lat="45.06697" lon="6.02194">
        <ele>716</ele>
        <time>2024-06-04T20:37:06Z</time>
      </trkpt>
      <trkpt lat="45.06584" lon="6.02278">
        <ele>721</ele>
        <time>2024-06-04T20:37:29Z</time>
      </trkpt>
      <trkpt lat="45.06396" lon="6.02425">
        <ele>719</ele>
        <time>2024-06-04T20:38:07Z</time>
      </trkpt>
      <trkpt lat="45.06366" lon="6.02438">
        <ele>719</ele>
        <time>2024-06-04T20:38:13Z</time>
      </trkpt>
      <trkpt lat="45.06355" lon="6.02435">
        <ele>719</ele>
        <time>2024-06-04T20:38:15Z</time>
      </trkpt>
      <trkpt lat="45.06349" lon="6.02439">
        <ele>719</ele>
        <time>2024-06-04T20:38:16Z</time>
      </trkpt>
      <trkpt lat="45.06344" lon="6.02445">
        <ele>719</ele>
        <time>2024-06-04T20:38:17Z</time>
      </trkpt>
      <trkpt lat="45.0634" lon="6.02453">
        <ele>719</ele>
        <time>2024-06-04T20:38:18Z</time>
      </trkpt>
      <trkpt lat="45.06339" lon="6.02463">
        <ele>719</ele>
        <time>2024-06-04T20:38:20Z</time>
      </trkpt>
      <trkpt lat="45.06341" lon="6.02472">
        <ele>718</ele>
        <time>2024-06-04T20:38:21Z</time>
      </trkpt>
      <trkpt lat="45.06344" lon="6.02481">
        <ele>718</ele>
        <time>2024-06-04T20:38:22Z</time>
      </trkpt>
      <trkpt lat="45.06352" lon="6.02488">
        <ele>719</ele>
        <time>2024-06-04T20:38:24Z</time>
      </trkpt>
      <trkpt lat="45.06361" lon="6.02489">
        <ele>719</ele>
        <time>2024-06-04T20:38:25Z</time>
      </trkpt>
      <trkpt lat="45.06384" lon="6.02529">
        <ele>720</ele>
        <time>2024-06-04T20:38:32Z</time>
      </trkpt>
      <trkpt lat="45.0639" lon="6.02546">
        <ele>721</ele>
        <time>2024-06-04T20:38:34Z</time>
      </trkpt>
      <trkpt lat="45.06401" lon="6.02573">
        <ele>722</ele>
        <time>2024-06-04T20:38:38Z</time>
      </trkpt>
      <trkpt lat="45.06415" lon="6.02612">
        <ele>722</ele>
        <time>2024-06-04T20:38:44Z</time>
      </trkpt>
      <trkpt lat="45.06479" lon="6.02781">
        <ele>723</ele>
        <time>2024-06-04T20:39:08Z</time>
      </trkpt>
      <trkpt lat="45.06492" lon="6.02827">
        <ele>723</ele>
        <time>2024-06-04T20:39:14Z</time>
      </trkpt>
      <trkpt lat="45.06498" lon="6.02856">
        <ele>723</ele>
        <time>2024-06-04T20:39:18Z</time>
      </trkpt>
      <trkpt lat="45.06501" lon="6.02886">
        <ele>722</ele>
        <time>2024-06-04T20:39:22Z</time>
      </trkpt>
      <trkpt lat="45.06502" lon="6.02926">
        <ele>722</ele>
        <time>2024-06-04T20:39:27Z</time>
      </trkpt>
      <trkpt lat="45.065" lon="6.02963">
        <ele>720</ele>
        <time>2024-06-04T20:39:31Z</time>
      </trkpt>
      <trkpt lat="45.06493" lon="6.03009">
        <ele>719</ele>
        <time>2024-06-04T20:39:37Z</time>
      </trkpt>
      <trkpt lat="45.06484" lon="6.03042">
        <ele>718</ele>
        <time>2024-06-04T20:39:42Z</time>
      </trkpt>
      <trkpt lat="45.06477" lon="6.03063">
        <ele>718</ele>
        <time>2024-06-04T20:39:45Z</time>
      </trkpt>
      <trkpt lat="45.06462" lon="6.03098">
        <ele>717</ele>
        <time>2024-06-04T20:39:50Z</time>
      </trkpt>
      <trkpt lat="45.06437" lon="6.03138">
        <ele>716</ele>
        <time>2024-06-04T20:39:56Z</time>
      </trkpt>
      <trkpt lat="45.06411" lon="6.03169">
        <ele>716</ele>
        <time>2024-06-04T20:40:03Z</time>
      </trkpt>
      <trkpt lat="45.06394" lon="6.03184">
        <ele>717</ele>
        <time>2024-06-04T20:40:06Z</time>
      </trkpt>
      <trkpt lat="45.06219" lon="6.03317">
        <ele>721</ele>
        <time>2024-06-04T20:40:41Z</time>
      </trkpt>
      <trkpt lat="45.06186" lon="6.03346">
        <ele>723</ele>
        <time>2024-06-04T20:40:48Z</time>
      </trkpt>
      <trkpt lat="45.06168" lon="6.03364">
        <ele>724</ele>
        <time>2024-06-04T20:40:52Z</time>
      </trkpt>
      <trkpt lat="45.06091" lon="6.03458">
        <ele>722</ele>
        <time>2024-06-04T20:41:10Z</time>
      </trkpt>
      <trkpt lat="45.05991" lon="6.03587">
        <ele>720</ele>
        <time>2024-06-04T20:41:34Z</time>
      </trkpt>
      <trkpt lat="45.05971" lon="6.03622">
        <ele>721</ele>
        <time>2024-06-04T20:41:40Z</time>
      </trkpt>
      <trkpt lat="45.05961" lon="6.03645">
        <ele>722</ele>
        <time>2024-06-04T20:41:43Z</time>
      </trkpt>
      <trkpt lat="45.05952" lon="6.0367">
        <ele>722</ele>
        <time>2024-06-04T20:41:47Z</time>
      </trkpt>
      <trkpt lat="45.05941" lon="6.03711">
        <ele>723</ele>
        <time>2024-06-04T20:41:53Z</time>
      </trkpt>
      <trkpt lat="45.05929" lon="6.0374">
        <ele>724</ele>
        <time>2024-06-04T20:41:57Z</time>
      </trkpt>
      <trkpt lat="45.05919" lon="6.03755">
        <ele>724</ele>
        <time>2024-06-04T20:41:59Z</time>
      </trkpt>
      <trkpt lat="45.05909" lon="6.03764">
        <ele>723</ele>
        <time>2024-06-04T20:42:01Z</time>
      </trkpt>
      <trkpt lat="45.05905" lon="6.03776">
        <ele>723</ele>
        <time>2024-06-04T20:42:03Z</time>
      </trkpt>
      <trkpt lat="45.05906" lon="6.03788">
        <ele>723</ele>
        <time>2024-06-04T20:42:05Z</time>
      </trkpt>
      <trkpt lat="45.05911" lon="6.03799">
        <ele>722</ele>
        <time>2024-06-04T20:42:06Z</time>
      </trkpt>
      <trkpt lat="45.05918" lon="6.03805">
        <ele>722</ele>
        <time>2024-06-04T20:42:08Z</time>
      </trkpt>
      <trkpt lat="45.05926" lon="6.03805">
        <ele>722</ele>
        <time>2024-06-04T20:42:09Z</time>
      </trkpt>
      <trkpt lat="45.05933" lon="6.03801">
        <ele>722</ele>
        <time>2024-06-04T20:42:11Z</time>
      </trkpt>
      <trkpt lat="45.05939" lon="6.03792">
        <ele>722</ele>
        <time>2024-06-04T20:42:12Z</time>
      </trkpt>
      <trkpt lat="45.05952" lon="6.03783">
        <ele>722</ele>
        <time>2024-06-04T20:42:15Z</time>
      </trkpt>
      <trkpt lat="45.05972" lon="6.03778">
        <ele>722</ele>
        <time>2024-06-04T20:42:18Z</time>
      </trkpt>
      <trkpt lat="45.06062" lon="6.03762">
        <ele>720</ele>
        <time>2024-06-04T20:42:34Z</time>
      </trkpt>
      <trkpt lat="45.06156" lon="6.03737">
        <ele>717</ele>
        <time>2024-06-04T20:42:51Z</time>
      </trkpt>
      <trkpt lat="45.06175" lon="6.03729">
        <ele>717</ele>
        <time>2024-06-04T20:42:55Z</time>
      </trkpt>
      <trkpt lat="45.0621" lon="6.03709">
        <ele>719</ele>
        <time>2024-06-04T20:43:02Z</time>
      </trkpt>
      <trkpt lat="45.0623" lon="6.03699">
        <ele>719</ele>
        <time>2024-06-04T20:43:05Z</time>
      </trkpt>
      <trkpt lat="45.06246" lon="6.03697">
        <ele>720</ele>
        <time>2024-06-04T20:43:08Z</time>
      </trkpt>
      <trkpt lat="45.06264" lon="6.03699">
        <ele>719</ele>
        <time>2024-06-04T20:43:11Z</time>
      </trkpt>
      <trkpt lat="45.06285" lon="6.03709">
        <ele>719</ele>
        <time>2024-06-04T20:43:15Z</time>
      </trkpt>
      <trkpt lat="45.06299" lon="6.03723">
        <ele>719</ele>
        <time>2024-06-04T20:43:18Z</time>
      </trkpt>
      <trkpt lat="45.06418" lon="6.03892">
        <ele>724</ele>
        <time>2024-06-04T20:43:48Z</time>
      </trkpt>
      <trkpt lat="45.06422" lon="6.03897">
        <ele>724</ele>
        <time>2024-06-04T20:43:49Z</time>
      </trkpt>
      <trkpt lat="45.06437" lon="6.03918">
        <ele>725</ele>
        <time>2024-06-04T20:43:53Z</time>
      </trkpt>
      <trkpt lat="45.06501" lon="6.04003">
        <ele>730</ele>
        <time>2024-06-04T20:44:09Z</time>
      </trkpt>
      <trkpt lat="45.06512" lon="6.0401">
        <ele>734</ele>
        <time>2024-06-04T20:44:11Z</time>
      </trkpt>
      <trkpt lat="45.06525" lon="6.0401">
        <ele>736</ele>
        <time>2024-06-04T20:44:13Z</time>
      </trkpt>
      <trkpt lat="45.06561" lon="6.03998">
        <ele>736</ele>
        <time>2024-06-04T20:44:20Z</time>
      </trkpt>
      <trkpt lat="45.06649" lon="6.03962">
        <ele>743</ele>
        <time>2024-06-04T20:44:36Z</time>
      </trkpt>
      <trkpt lat="45.06665" lon="6.03958">
        <ele>744</ele>
        <time>2024-06-04T20:44:39Z</time>
      </trkpt>
      <trkpt lat="45.0678" lon="6.0394">
        <ele>760</ele>
        <time>2024-06-04T20:45:00Z</time>
      </trkpt>
      <trkpt lat="45.06816" lon="6.03924">
        <ele>760</ele>
        <time>2024-06-04T20:45:06Z</time>
      </trkpt>
      <trkpt lat="45.06831" lon="6.03923">
        <ele>762</ele>
        <time>2024-06-04T20:45:09Z</time>
      </trkpt>
      <trkpt lat="45.06862" lon="6.0393">
        <ele>772</ele>
        <time>2024-06-04T20:45:15Z</time>
      </trkpt>
      <trkpt lat="45.06872" lon="6.03929">
        <ele>774</ele>
        <time>2024-06-04T20:45:16Z</time>
      </trkpt>
      <trkpt lat="45.06914" lon="6.03918">
        <ele>780</ele>
        <time>2024-06-04T20:45:24Z</time>
      </trkpt>
      <trkpt lat="45.06936" lon="6.03909">
        <ele>782</ele>
        <time>2024-06-04T20:45:28Z</time>
      </trkpt>
      <trkpt lat="45.06976" lon="6.03886">
        <ele>784</ele>
        <time>2024-06-04T20:45:36Z</time>
      </trkpt>
      <trkpt lat="45.07012" lon="6.03872">
        <ele>787</ele>
        <time>2024-06-04T20:45:42Z</time>
      </trkpt>
      <trkpt lat="45.07024" lon="6.03869">
        <ele>788</ele>
        <time>2024-06-04T20:45:45Z</time>
      </trkpt>
      <trkpt lat="45.07052" lon="6.0387">
        <ele>794</ele>
        <time>2024-06-04T20:45:50Z</time>
      </trkpt>
      <trkpt lat="45.07091" lon="6.03879">
        <ele>805</ele>
        <time>2024-06-04T20:45:57Z</time>
      </trkpt>
      <trkpt lat="45.07135" lon="6.03893">
        <ele>814</ele>
        <time>2024-06-04T20:46:05Z</time>
      </trkpt>
      <trkpt lat="45.07153" lon="6.03897">
        <ele>817</ele>
        <time>2024-06-04T20:46:08Z</time>
      </trkpt>
      <trkpt lat="45.07173" lon="6.03898">
        <ele>818</ele>
        <time>2024-06-04T20:46:11Z</time>
      </trkpt>
      <trkpt lat="45.07181" lon="6.03901">
        <ele>820</ele>
        <time>2024-06-04T20:46:13Z</time>
      </trkpt>
      <trkpt lat="45.07186" lon="6.03909">
        <ele>823</ele>
        <time>2024-06-04T20:46:14Z</time>
      </trkpt>
      <trkpt lat="45.07187" lon="6.03915">
        <ele>826</ele>
        <time>2024-06-04T20:46:15Z</time>
      </trkpt>
      <trkpt lat="45.07184" lon="6.03925">
        <ele>832</ele>
        <time>2024-06-04T20:46:16Z</time>
      </trkpt>
      <trkpt lat="45.07178" lon="6.03929">
        <ele>834</ele>
        <time>2024-06-04T20:46:17Z</time>
      </trkpt>
      <trkpt lat="45.07105" lon="6.03912">
        <ele>822</ele>
        <time>2024-06-04T20:46:31Z</time>
      </trkpt>
      <trkpt lat="45.07093" lon="6.03913">
        <ele>823</ele>
        <time>2024-06-04T20:46:33Z</time>
      </trkpt>
      <trkpt lat="45.07061" lon="6.03926">
        <ele>823</ele>
        <time>2024-06-04T20:46:39Z</time>
      </trkpt>
      <trkpt lat="45.07036" lon="6.03941">
        <ele>825</ele>
        <time>2024-06-04T20:46:44Z</time>
      </trkpt>
      <trkpt lat="45.07013" lon="6.03963">
        <ele>830</ele>
        <time>2024-06-04T20:46:48Z</time>
      </trkpt>
      <trkpt lat="45.06985" lon="6.04">
        <ele>840</ele>
        <time>2024-06-04T20:46:55Z</time>
      </trkpt>
      <trkpt lat="45.06962" lon="6.04024">
        <ele>844</ele>
        <time>2024-06-04T20:47:00Z</time>
      </trkpt>
      <trkpt lat="45.06926" lon="6.0408">
        <ele>857</ele>
        <time>2024-06-04T20:47:10Z</time>
      </trkpt>
      <trkpt lat="45.06913" lon="6.04087">
        <ele>857</ele>
        <time>2024-06-04T20:47:12Z</time>
      </trkpt>
      <trkpt lat="45.06831" lon="6.04105">
        <ele>856</ele>
        <time>2024-06-04T20:47:27Z</time>
      </trkpt>
      <trkpt lat="45.06806" lon="6.04113">
        <ele>856</ele>
        <time>2024-06-04T20:47:32Z</time>
      </trkpt>
      <trkpt lat="45.06746" lon="6.04145">
        <ele>864</ele>
        <time>2024-06-04T20:47:43Z</time>
      </trkpt>
      <trkpt lat="45.06684" lon="6.04184">
        <ele>874</ele>
        <time>2024-06-04T20:47:55Z</time>
      </trkpt>
      <trkpt lat="45.06648" lon="6.04203">
        <ele>874</ele>
        <time>2024-06-04T20:48:02Z</time>
      </trkpt>
      <trkpt lat="45.06641" lon="6.04208">
        <ele>874</ele>
        <time>2024-06-04T20:48:03Z</time>
      </trkpt>
      <trkpt lat="45.0664" lon="6.04211">
        <ele>875</ele>
        <time>2024-06-04T20:48:04Z</time>
      </trkpt>
      <trkpt lat="45.0664" lon="6.0422">
        <ele>879</ele>
        <time>2024-06-04T20:48:05Z</time>
      </trkpt>
      <trkpt lat="45.06645" lon="6.04225">
        <ele>883</ele>
        <time>2024-06-04T20:48:06Z</time>
      </trkpt>
      <trkpt lat="45.06648" lon="6.04226">
        <ele>885</ele>
        <time>2024-06-04T20:48:07Z</time>
      </trkpt>
      <trkpt lat="45.0673" lon="6.04184">
        <ele>882</ele>
        <time>2024-06-04T20:48:22Z</time>
      </trkpt>
      <trkpt lat="45.06757" lon="6.04174">
        <ele>881</ele>
        <time>2024-06-04T20:48:27Z</time>
      </trkpt>
      <trkpt lat="45.06764" lon="6.04175">
        <ele>883</ele>
        <time>2024-06-04T20:48:28Z</time>
      </trkpt>
      <trkpt lat="45.06794" lon="6.04185">
        <ele>894</ele>
        <time>2024-06-04T20:48:34Z</time>
      </trkpt>
      <trkpt lat="45.06798" lon="6.04188">
        <ele>897</ele>
        <time>2024-06-04T20:48:35Z</time>
      </trkpt>
      <trkpt lat="45.068" lon="6.04192">
        <ele>900</ele>
        <time>2024-06-04T20:48:35Z</time>
      </trkpt>
      <trkpt lat="45.068" lon="6.04201">
        <ele>906</ele>
        <time>2024-06-04T20:48:36Z</time>
      </trkpt>
      <trkpt lat="45.06795" lon="6.04208">
        <ele>910</ele>
        <time>2024-06-04T20:48:38Z</time>
      </trkpt>
      <trkpt lat="45.06789" lon="6.04208">
        <ele>908</ele>
        <time>2024-06-04T20:48:39Z</time>
      </trkpt>
      <trkpt lat="45.06771" lon="6.04195">
        <ele>896</ele>
        <time>2024-06-04T20:48:42Z</time>
      </trkpt>
      <trkpt lat="45.06759" lon="6.04191">
        <ele>891</ele>
        <time>2024-06-04T20:48:44Z</time>
      </trkpt>
      <trkpt lat="45.06753" lon="6.04191">
        <ele>890</ele>
        <time>2024-06-04T20:48:46Z</time>
      </trkpt>
      <trkpt lat="45.06738" lon="6.042">
        <ele>892</ele>
        <time>2024-06-04T20:48:48Z</time>
      </trkpt>
      <trkpt lat="45.0673" lon="6.04207">
        <ele>895</ele>
        <time>2024-06-04T20:48:50Z</time>
      </trkpt>
      <trkpt lat="45.06694" lon="6.04251">
        <ele>911</ele>
        <time>2024-06-04T20:48:59Z</time>
      </trkpt>
      <trkpt lat="45.06678" lon="6.04265">
        <ele>913</ele>
        <time>2024-06-04T20:49:02Z</time>
      </trkpt>
      <trkpt lat="45.06597" lon="6.04309">
        <ele>884</ele>
        <time>2024-06-04T20:49:17Z</time>
      </trkpt>
      <trkpt lat="45.06594" lon="6.04314">
        <ele>884</ele>
        <time>2024-06-04T20:49:18Z</time>
      </trkpt>
      <trkpt lat="45.06593" lon="6.04323">
        <ele>885</ele>
        <time>2024-06-04T20:49:19Z</time>
      </trkpt>
      <trkpt lat="45.06599" lon="6.04332">
        <ele>890</ele>
        <time>2024-06-04T20:49:21Z</time>
      </trkpt>
      <trkpt lat="45.06606" lon="6.04332">
        <ele>895</ele>
        <time>2024-06-04T20:49:22Z</time>
      </trkpt>
      <trkpt lat="45.06629" lon="6.04321">
        <ele>908</ele>
        <time>2024-06-04T20:49:26Z</time>
      </trkpt>
      <trkpt lat="45.0666" lon="6.04315">
        <ele>926</ele>
        <time>2024-06-04T20:49:32Z</time>
      </trkpt>
      <trkpt lat="45.06679" lon="6.04309">
        <ele>932</ele>
        <time>2024-06-04T20:49:35Z</time>
      </trkpt>
      <trkpt lat="45.06707" lon="6.04287">
        <ele>930</ele>
        <time>2024-06-04T20:49:41Z</time>
      </trkpt>
      <trkpt lat="45.06717" lon="6.04282">
        <ele>931</ele>
        <time>2024-06-04T20:49:43Z</time>
      </trkpt>
      <trkpt lat="45.06749" lon="6.04282">
        <ele>939</ele>
        <time>2024-06-04T20:49:49Z</time>
      </trkpt>
      <trkpt lat="45.06764" lon="6.0428">
        <ele>943</ele>
        <time>2024-06-04T20:49:51Z</time>
      </trkpt>
      <trkpt lat="45.06803" lon="6.04263">
        <ele>947</ele>
        <time>2024-06-04T20:49:59Z</time>
      </trkpt>
      <trkpt lat="45.06832" lon="6.04261">
        <ele>956</ele>
        <time>2024-06-04T20:50:04Z</time>
      </trkpt>
      <trkpt lat="45.06883" lon="6.04266">
        <ele>970</ele>
        <time>2024-06-04T20:50:13Z</time>
      </trkpt>
      <trkpt lat="45.06889" lon="6.04272">
        <ele>975</ele>
        <time>2024-06-04T20:50:14Z</time>
      </trkpt>
      <trkpt lat="45.0689" lon="6.04279">
        <ele>979</ele>
        <time>2024-06-04T20:50:15Z</time>
      </trkpt>
      <trkpt lat="45.06885" lon="6.04288">
        <ele>983</ele>
        <time>2024-06-04T20:50:17Z</time>
      </trkpt>
      <trkpt lat="45.06878" lon="6.04289">
        <ele>982</ele>
        <time>2024-06-04T20:50:18Z</time>
      </trkpt>
      <trkpt lat="45.06848" lon="6.0428">
        <ele>969</ele>
        <time>2024-06-04T20:50:23Z</time>
      </trkpt>
      <trkpt lat="45.06832" lon="6.0428">
        <ele>965</ele>
        <time>2024-06-04T20:50:26Z</time>
      </trkpt>
      <trkpt lat="45.06822" lon="6.04285">
        <ele>964</ele>
        <time>2024-06-04T20:50:28Z</time>
      </trkpt>
      <trkpt lat="45.06726" lon="6.04364">
        <ele>964</ele>
        <time>2024-06-04T20:50:48Z</time>
      </trkpt>
      <trkpt lat="45.0672" lon="6.04372">
        <ele>963</ele>
        <time>2024-06-04T20:50:49Z</time>
      </trkpt>
      <trkpt lat="45.06717" lon="6.04381">
        <ele>964</ele>
        <time>2024-06-04T20:50:51Z</time>
      </trkpt>
      <trkpt lat="45.06719" lon="6.04391">
        <ele>966</ele>
        <time>2024-06-04T20:50:52Z</time>
      </trkpt>
      <trkpt lat="45.06721" lon="6.04398">
        <ele>968</ele>
        <time>2024-06-04T20:50:53Z</time>
      </trkpt>
      <trkpt lat="45.06767" lon="6.04446">
        <ele>979</ele>
        <time>2024-06-04T20:51:03Z</time>
      </trkpt>
      <trkpt lat="45.06774" lon="6.04451">
        <ele>980</ele>
        <time>2024-06-04T20:51:04Z</time>
      </trkpt>
      <trkpt lat="45.0679" lon="6.0446">
        <ele>981</ele>
        <time>2024-06-04T20:51:07Z</time>
      </trkpt>
      <trkpt lat="45.06807" lon="6.04468">
        <ele>982</ele>
        <time>2024-06-04T20:51:11Z</time>
      </trkpt>
      <trkpt lat="45.06875" lon="6.04485">
        <ele>993</ele>
        <time>2024-06-04T20:51:23Z</time>
      </trkpt>
      <trkpt lat="45.06889" lon="6.04496">
        <ele>994</ele>
        <time>2024-06-04T20:51:26Z</time>
      </trkpt>
      <trkpt lat="45.06911" lon="6.04529">
        <ele>991</ele>
        <time>2024-06-04T20:51:31Z</time>
      </trkpt>
      <trkpt lat="45.06919" lon="6.04538">
        <ele>991</ele>
        <time>2024-06-04T20:51:33Z</time>
      </trkpt>
      <trkpt lat="45.0695" lon="6.04563">
        <ele>993</ele>
        <time>2024-06-04T20:51:40Z</time>
      </trkpt>
      <trkpt lat="45.06998" lon="6.04585">
        <ele>1000</ele>
        <time>2024-06-04T20:51:49Z</time>
      </trkpt>
      <trkpt lat="45.07005" lon="6.04591">
        <ele>1001</ele>
        <time>2024-06-04T20:51:50Z</time>
      </trkpt>
      <trkpt lat="45.07018" lon="6.04609">
        <ele>1003</ele>
        <time>2024-06-04T20:51:53Z</time>
      </trkpt>
      <trkpt lat="45.0705" lon="6.04671">
        <ele>1007</ele>
        <time>2024-06-04T20:52:03Z</time>
      </trkpt>
      <trkpt lat="45.07067" lon="6.04695">
        <ele>1010</ele>
        <time>2024-06-04T20:52:07Z</time>
      </trkpt>
      <trkpt lat="45.07144" lon="6.04767">
        <ele>1024</ele>
        <time>2024-06-04T20:52:24Z</time>
      </trkpt>
      <trkpt lat="45.0717" lon="6.04796">
        <ele>1026</ele>
        <time>2024-06-04T20:52:29Z</time>
      </trkpt>
      <trkpt lat="45.07183" lon="6.04814">
        <ele>1027</ele>
        <time>2024-06-04T20:52:33Z</time>
      </trkpt>
      <trkpt lat="45.07189" lon="6.04817">
        <ele>1028</ele>
        <time>2024-06-04T20:52:34Z</time>
      </trkpt>
      <trkpt lat="45.07196" lon="6.04811">
        <ele>1033</ele>
        <time>2024-06-04T20:52:35Z</time>
      </trkpt>
      <trkpt lat="45.07198" lon="6.04802">
        <ele>1036</ele>
        <time>2024-06-04T20:52:37Z</time>
      </trkpt>
      <trkpt lat="45.07196" lon="6.04793">
        <ele>1038</ele>
        <time>2024-06-04T20:52:38Z</time>
      </trkpt>
      <trkpt lat="45.07193" lon="6.04789">
        <ele>1038</ele>
        <time>2024-06-04T20:52:38Z</time>
      </trkpt>
      <trkpt lat="45.07173" lon="6.04774">
        <ele>1033</ele>
        <time>2024-06-04T20:52:42Z</time>
      </trkpt>
      <trkpt lat="45.07163" lon="6.04763">
        <ele>1032</ele>
        <time>2024-06-04T20:52:45Z</time>
      </trkpt>
      <trkpt lat="45.07132" lon="6.04721">
        <ele>1032</ele>
        <time>2024-06-04T20:52:52Z</time>
      </trkpt>
      <trkpt lat="45.07111" lon="6.04681">
        <ele>1032</ele>
        <time>2024-06-04T20:52:59Z</time>
      </trkpt>
      <trkpt lat="45.07106" lon="6.04664">
        <ele>1034</ele>
        <time>2024-06-04T20:53:01Z</time>
      </trkpt>
      <trkpt lat="45.07104" lon="6.0464">
        <ele>1035</ele>
        <time>2024-06-04T20:53:04Z</time>
      </trkpt>
      <trkpt lat="45.07104" lon="6.04616">
        <ele>1037</ele>
        <time>2024-06-04T20:53:07Z</time>
      </trkpt>
      <trkpt lat="45.07109" lon="6.04508">
        <ele>1051</ele>
        <time>2024-06-04T20:53:21Z</time>
      </trkpt>
      <trkpt lat="45.07108" lon="6.04497">
        <ele>1052</ele>
        <time>2024-06-04T20:53:22Z</time>
      </trkpt>
      <trkpt lat="45.07103" lon="6.04478">
        <ele>1055</ele>
        <time>2024-06-04T20:53:25Z</time>
      </trkpt>
      <trkpt lat="45.07089" lon="6.04445">
        <ele>1061</ele>
        <time>2024-06-04T20:53:29Z</time>
      </trkpt>
      <trkpt lat="45.07087" lon="6.04435">
        <ele>1063</ele>
        <time>2024-06-04T20:53:31Z</time>
      </trkpt>
      <trkpt lat="45.0709" lon="6.04427">
        <ele>1066</ele>
        <time>2024-06-04T20:53:32Z</time>
      </trkpt>
      <trkpt lat="45.07095" lon="6.04423">
        <ele>1068</ele>
        <time>2024-06-04T20:53:33Z</time>
      </trkpt>
      <trkpt lat="45.07098" lon="6.04423">
        <ele>1069</ele>
        <time>2024-06-04T20:53:33Z</time>
      </trkpt>
      <trkpt lat="45.07104" lon="6.04428">
        <ele>1069</ele>
        <time>2024-06-04T20:53:35Z</time>
      </trkpt>
      <trkpt lat="45.0713" lon="6.04489">
        <ele>1062</ele>
        <time>2024-06-04T20:53:44Z</time>
      </trkpt>
      <trkpt lat="45.07151" lon="6.04608">
        <ele>1060</ele>
        <time>2024-06-04T20:53:59Z</time>
      </trkpt>
      <trkpt lat="45.0716" lon="6.04635">
        <ele>1061</ele>
        <time>2024-06-04T20:54:03Z</time>
      </trkpt>
      <trkpt lat="45.0717" lon="6.04653">
        <ele>1064</ele>
        <time>2024-06-04T20:54:06Z</time>
      </trkpt>
      <trkpt lat="45.07185" lon="6.04675">
        <ele>1068</ele>
        <time>2024-06-04T20:54:09Z</time>
      </trkpt>
      <trkpt lat="45.07204" lon="6.04695">
        <ele>1071</ele>
        <time>2024-06-04T20:54:14Z</time>
      </trkpt>
      <trkpt lat="45.07285" lon="6.0476">
        <ele>1082</ele>
        <time>2024-06-04T20:54:30Z</time>
      </trkpt>
      <trkpt lat="45.07297" lon="6.04767">
        <ele>1083</ele>
        <time>2024-06-04T20:54:33Z</time>
      </trkpt>
      <trkpt lat="45.07305" lon="6.04769">
        <ele>1086</ele>
        <time>2024-06-04T20:54:34Z</time>
      </trkpt>
      <trkpt lat="45.07335" lon="6.04771">
        <ele>1095</ele>
        <time>2024-06-04T20:54:39Z</time>
      </trkpt>
      <trkpt lat="45.07348" lon="6.04783">
        <ele>1098</ele>
        <time>2024-06-04T20:54:42Z</time>
      </trkpt>
      <trkpt lat="45.07354" lon="6.04793">
        <ele>1098</ele>
        <time>2024-06-04T20:54:44Z</time>
      </trkpt>
      <trkpt lat="45.07357" lon="6.04804">
        <ele>1098</ele>
        <time>2024-06-04T20:54:45Z</time>
      </trkpt>
      <trkpt lat="45.07367" lon="6.0485">
        <ele>1098</ele>
        <time>2024-06-04T20:54:51Z</time>
      </trkpt>
      <trkpt lat="45.07368" lon="6.04861">
        <ele>1099</ele>
        <time>2024-06-04T20:54:53Z</time>
      </trkpt>
      <trkpt lat="45.07366" lon="6.04878">
        <ele>1100</ele>
        <time>2024-06-04T20:54:55Z</time>
      </trkpt>
      <trkpt lat="45.07364" lon="6.04884">
        <ele>1099</ele>
        <time>2024-06-04T20:54:56Z</time>
      </trkpt>
      <trkpt lat="45.07339" lon="6.04919">
        <ele>1093</ele>
        <time>2024-06-04T20:55:02Z</time>
      </trkpt>
      <trkpt lat="45.07332" lon="6.04939">
        <ele>1096</ele>
        <time>2024-06-04T20:55:05Z</time>
      </trkpt>
      <trkpt lat="45.07326" lon="6.0497">
        <ele>1103</ele>
        <time>2024-06-04T20:55:09Z</time>
      </trkpt>
      <trkpt lat="45.07315" lon="6.04992">
        <ele>1106</ele>
        <time>2024-06-04T20:55:12Z</time>
      </trkpt>
      <trkpt lat="45.07244" lon="6.05107">
        <ele>1105</ele>
        <time>2024-06-04T20:55:31Z</time>
      </trkpt>
      <trkpt lat="45.07243" lon="6.05118">
        <ele>1107</ele>
        <time>2024-06-04T20:55:33Z</time>
      </trkpt>
      <trkpt lat="45.07245" lon="6.05122">
        <ele>1109</ele>
        <time>2024-06-04T20:55:33Z</time>
      </trkpt>
      <trkpt lat="45.0725" lon="6.05126">
        <ele>1114</ele>
        <time>2024-06-04T20:55:34Z</time>
      </trkpt>
      <trkpt lat="45.07257" lon="6.05124">
        <ele>1118</ele>
        <time>2024-06-04T20:55:36Z</time>
      </trkpt>
      <trkpt lat="45.0726" lon="6.05119">
        <ele>1118</ele>
        <time>2024-06-04T20:55:36Z</time>
      </trkpt>
      <trkpt lat="45.07272" lon="6.05094">
        <ele>1118</ele>
        <time>2024-06-04T20:55:40Z</time>
      </trkpt>
      <trkpt lat="45.07287" lon="6.05076">
        <ele>1121</ele>
        <time>2024-06-04T20:55:44Z</time>
      </trkpt>
      <trkpt lat="45.07359" lon="6.05018">
        <ele>1134</ele>
        <time>2024-06-04T20:55:58Z</time>
      </trkpt>
      <trkpt lat="45.07367" lon="6.0501">
        <ele>1134</ele>
        <time>2024-06-04T20:56:00Z</time>
      </trkpt>
      <trkpt lat="45.07396" lon="6.04968">
        <ele>1131</ele>
        <time>2024-06-04T20:56:08Z</time>
      </trkpt>
      <trkpt lat="45.07406" lon="6.04961">
        <ele>1133</ele>
        <time>2024-06-04T20:56:10Z</time>
      </trkpt>
      <trkpt lat="45.07455" lon="6.04955">
        <ele>1151</ele>
        <time>2024-06-04T20:56:18Z</time>
      </trkpt>
      <trkpt lat="45.07463" lon="6.0495">
        <ele>1153</ele>
        <time>2024-06-04T20:56:20Z</time>
      </trkpt>
      <trkpt lat="45.07476" lon="6.04936">
        <ele>1154</ele>
        <time>2024-06-04T20:56:23Z</time>
      </trkpt>
      <trkpt lat="45.07487" lon="6.04911">
        <ele>1153</ele>
        <time>2024-06-04T20:56:26Z</time>
      </trkpt>
      <trkpt lat="45.07501" lon="6.04866">
        <ele>1159</ele>
        <time>2024-06-04T20:56:33Z</time>
      </trkpt>
      <trkpt lat="45.07501" lon="6.0485">
        <ele>1159</ele>
        <time>2024-06-04T20:56:35Z</time>
      </trkpt>
      <trkpt lat="45.07499" lon="6.04837">
        <ele>1158</ele>
        <time>2024-06-04T20:56:36Z</time>
      </trkpt>
      <trkpt lat="45.0749" lon="6.04812">
        <ele>1155</ele>
        <time>2024-06-04T20:56:40Z</time>
      </trkpt>
      <trkpt lat="45.07476" lon="6.04778">
        <ele>1151</ele>
        <time>2024-06-04T20:56:45Z</time>
      </trkpt>
      <trkpt lat="45.07475" lon="6.04773">
        <ele>1151</ele>
        <time>2024-06-04T20:56:45Z</time>
      </trkpt>
      <trkpt lat="45.07476" lon="6.04765">
        <ele>1152</ele>
        <time>2024-06-04T20:56:46Z</time>
      </trkpt>
      <trkpt lat="45.07478" lon="6.04761">
        <ele>1153</ele>
        <time>2024-06-04T20:56:47Z</time>
      </trkpt>
      <trkpt lat="45.07484" lon="6.04759">
        <ele>1156</ele>
        <time>2024-06-04T20:56:48Z</time>
      </trkpt>
      <trkpt lat="45.07487" lon="6.0476">
        <ele>1157</ele>
        <time>2024-06-04T20:56:49Z</time>
      </trkpt>
      <trkpt lat="45.07492" lon="6.04766">
        <ele>1159</ele>
        <time>2024-06-04T20:56:50Z</time>
      </trkpt>
      <trkpt lat="45.07498" lon="6.04802">
        <ele>1159</ele>
        <time>2024-06-04T20:56:55Z</time>
      </trkpt>
      <trkpt lat="45.0752" lon="6.04859">
        <ele>1169</ele>
        <time>2024-06-04T20:57:03Z</time>
      </trkpt>
      <trkpt lat="45.07525" lon="6.04889">
        <ele>1172</ele>
        <time>2024-06-04T20:57:07Z</time>
      </trkpt>
      <trkpt lat="45.07523" lon="6.04948">
        <ele>1180</ele>
        <time>2024-06-04T20:57:14Z</time>
      </trkpt>
      <trkpt lat="45.0752" lon="6.04973">
        <ele>1186</ele>
        <time>2024-06-04T20:57:17Z</time>
      </trkpt>
      <trkpt lat="45.07514" lon="6.04988">
        <ele>1187</ele>
        <time>2024-06-04T20:57:19Z</time>
      </trkpt>
      <trkpt lat="45.07504" lon="6.05">
        <ele>1186</ele>
        <time>2024-06-04T20:57:22Z</time>
      </trkpt>
      <trkpt lat="45.07498" lon="6.05004">
        <ele>1185</ele>
        <time>2024-06-04T20:57:23Z</time>
      </trkpt>
      <trkpt lat="45.07459" lon="6.05019">
        <ele>1176</ele>
        <time>2024-06-04T20:57:30Z</time>
      </trkpt>
      <trkpt lat="45.07445" lon="6.05029">
        <ele>1175</ele>
        <time>2024-06-04T20:57:33Z</time>
      </trkpt>
      <trkpt lat="45.07436" lon="6.05045">
        <ele>1178</ele>
        <time>2024-06-04T20:57:35Z</time>
      </trkpt>
      <trkpt lat="45.07428" lon="6.05067">
        <ele>1184</ele>
        <time>2024-06-04T20:57:39Z</time>
      </trkpt>
      <trkpt lat="45.07417" lon="6.05084">
        <ele>1187</ele>
        <time>2024-06-04T20:57:41Z</time>
      </trkpt>
      <trkpt lat="45.07357" lon="6.05166">
        <ele>1194</ele>
        <time>2024-06-04T20:57:56Z</time>
      </trkpt>
      <trkpt lat="45.07339" lon="6.05184">
        <ele>1192</ele>
        <time>2024-06-04T20:58:00Z</time>
      </trkpt>
      <trkpt lat="45.07322" lon="6.05198">
        <ele>1185</ele>
        <time>2024-06-04T20:58:04Z</time>
      </trkpt>
      <trkpt lat="45.0732" lon="6.05204">
        <ele>1185</ele>
        <time>2024-06-04T20:58:05Z</time>
      </trkpt>
      <trkpt lat="45.0732" lon="6.05212">
        <ele>1188</ele>
        <time>2024-06-04T20:58:06Z</time>
      </trkpt>
      <trkpt lat="45.07325" lon="6.05217">
        <ele>1193</ele>
        <time>2024-06-04T20:58:07Z</time>
      </trkpt>
      <trkpt lat="45.0733" lon="6.05216">
        <ele>1197</ele>
        <time>2024-06-04T20:58:08Z</time>
      </trkpt>
      <trkpt lat="45.07382" lon="6.05158">
        <ele>1203</ele>
        <time>2024-06-04T20:58:19Z</time>
      </trkpt>
      <trkpt lat="45.0745" lon="6.05096">
        <ele>1206</ele>
        <time>2024-06-04T20:58:34Z</time>
      </trkpt>
      <trkpt lat="45.07481" lon="6.0508">
        <ele>1211</ele>
        <time>2024-06-04T20:58:40Z</time>
      </trkpt>
      <trkpt lat="45.07521" lon="6.0507">
        <ele>1223</ele>
        <time>2024-06-04T20:58:47Z</time>
      </trkpt>
      <trkpt lat="45.07538" lon="6.05063">
        <ele>1227</ele>
        <time>2024-06-04T20:58:50Z</time>
      </trkpt>
      <trkpt lat="45.07584" lon="6.05027">
        <ele>1233</ele>
        <time>2024-06-04T20:58:59Z</time>
      </trkpt>
      <trkpt lat="45.07592" lon="6.05011">
        <ele>1232</ele>
        <time>2024-06-04T20:59:02Z</time>
      </trkpt>
      <trkpt lat="45.0761" lon="6.04951">
        <ele>1228</ele>
        <time>2024-06-04T20:59:10Z</time>
      </trkpt>
      <trkpt lat="45.07634" lon="6.04897">
        <ele>1235</ele>
        <time>2024-06-04T20:59:18Z</time>
      </trkpt>
      <trkpt lat="45.07637" lon="6.04888">
        <ele>1236</ele>
        <time>2024-06-04T20:59:19Z</time>
      </trkpt>
      <trkpt lat="45.07638" lon="6.04869">
        <ele>1237</ele>
        <time>2024-06-04T20:59:22Z</time>
      </trkpt>
      <trkpt lat="45.07628" lon="6.04807">
        <ele>1231</ele>
        <time>2024-06-04T20:59:30Z</time>
      </trkpt>
      <trkpt lat="45.07629" lon="6.04795">
        <ele>1231</ele>
        <time>2024-06-04T20:59:31Z</time>
      </trkpt>
      <trkpt lat="45.07649" lon="6.04735">
        <ele>1245</ele>
        <time>2024-06-04T20:59:39Z</time>
      </trkpt>
      <trkpt lat="45.07654" lon="6.04728">
        <ele>1249</ele>
        <time>2024-06-04T20:59:41Z</time>
      </trkpt>
      <trkpt lat="45.0766" lon="6.04727">
        <ele>1252</ele>
        <time>2024-06-04T20:59:42Z</time>
      </trkpt>
      <trkpt lat="45.07665" lon="6.04733">
        <ele>1254</ele>
        <time>2024-06-04T20:59:43Z</time>
      </trkpt>
      <trkpt lat="45.07666" lon="6.04743">
        <ele>1253</ele>
        <time>2024-06-04T20:59:44Z</time>
      </trkpt>
      <trkpt lat="45.0765" lon="6.04783">
        <ele>1244</ele>
        <time>2024-06-04T20:59:50Z</time>
      </trkpt>
      <trkpt lat="45.07649" lon="6.04789">
        <ele>1243</ele>
        <time>2024-06-04T20:59:51Z</time>
      </trkpt>
      <trkpt lat="45.07648" lon="6.04803">
        <ele>1243</ele>
        <time>2024-06-04T20:59:53Z</time>
      </trkpt>
      <trkpt lat="45.07656" lon="6.04832">
        <ele>1248</ele>
        <time>2024-06-04T20:59:56Z</time>
      </trkpt>
      <trkpt lat="45.07667" lon="6.04856">
        <ele>1255</ele>
        <time>2024-06-04T21:00:00Z</time>
      </trkpt>
      <trkpt lat="45.0767" lon="6.04865">
        <ele>1257</ele>
        <time>2024-06-04T21:00:01Z</time>
      </trkpt>
      <trkpt lat="45.07672" lon="6.0489">
        <ele>1258</ele>
        <time>2024-06-04T21:00:04Z</time>
      </trkpt>
      <trkpt lat="45.07671" lon="6.04935">
        <ele>1260</ele>
        <time>2024-06-04T21:00:10Z</time>
      </trkpt>
      <trkpt lat="45.07671" lon="6.04946">
        <ele>1262</ele>
        <time>2024-06-04T21:00:12Z</time>
      </trkpt>
      <trkpt lat="45.07667" lon="6.04964">
        <ele>1263</ele>
        <time>2024-06-04T21:00:14Z</time>
      </trkpt>
      <trkpt lat="45.07654" lon="6.05002">
        <ele>1263</ele>
        <time>2024-06-04T21:00:19Z</time>
      </trkpt>
      <trkpt lat="45.07652" lon="6.05016">
        <ele>1265</ele>
        <time>2024-06-04T21:00:21Z</time>
      </trkpt>
      <trkpt lat="45.07649" lon="6.05061">
        <ele>1275</ele>
        <time>2024-06-04T21:00:27Z</time>
      </trkpt>
      <trkpt lat="45.07643" lon="6.05081">
        <ele>1278</ele>
        <time>2024-06-04T21:00:29Z</time>
      </trkpt>
      <trkpt lat="45.07632" lon="6.05104">
        <ele>1281</ele>
        <time>2024-06-04T21:00:33Z</time>
      </trkpt>
      <trkpt lat="45.07607" lon="6.05144">
        <ele>1284</ele>
        <time>2024-06-04T21:00:40Z</time>
      </trkpt>
      <trkpt lat="45.07598" lon="6.05155">
        <ele>1285</ele>
        <time>2024-06-04T21:00:42Z</time>
      </trkpt>
      <trkpt lat="45.07568" lon="6.05178">
        <ele>1286</ele>
        <time>2024-06-04T21:00:48Z</time>
      </trkpt>
      <trkpt lat="45.07519" lon="6.0521">
        <ele>1291</ele>
        <time>2024-06-04T21:00:57Z</time>
      </trkpt>
      <trkpt lat="45.07502" lon="6.05218">
        <ele>1291</ele>
        <time>2024-06-04T21:01:01Z</time>
      </trkpt>
      <trkpt lat="45.07481" lon="6.05223">
        <ele>1286</ele>
        <time>2024-06-04T21:01:04Z</time>
      </trkpt>
      <trkpt lat="45.07476" lon="6.05234">
        <ele>1291</ele>
        <time>2024-06-04T21:01:06Z</time>
      </trkpt>
      <trkpt lat="45.07477" lon="6.05244">
        <ele>1297</ele>
        <time>2024-06-04T21:01:07Z</time>
      </trkpt>
      <trkpt lat="45.07481" lon="6.05249">
        <ele>1302</ele>
        <time>2024-06-04T21:01:08Z</time>
      </trkpt>
      <trkpt lat="45.07488" lon="6.0525">
        <ele>1305</ele>
        <time>2024-06-04T21:01:09Z</time>
      </trkpt>
      <trkpt lat="45.07499" lon="6.05242">
        <ele>1305</ele>
        <time>2024-06-04T21:01:12Z</time>
      </trkpt>
      <trkpt lat="45.07515" lon="6.05226">
        <ele>1299</ele>
        <time>2024-06-04T21:01:15Z</time>
      </trkpt>
      <trkpt lat="45.07523" lon="6.05222">
        <ele>1299</ele>
        <time>2024-06-04T21:01:17Z</time>
      </trkpt>
      <trkpt lat="45.07575" lon="6.05198">
        <ele>1299</ele>
        <time>2024-06-04T21:01:26Z</time>
      </trkpt>
      <trkpt lat="45.07626" lon="6.05188">
        <ele>1310</ele>
        <time>2024-06-04T21:01:36Z</time>
      </trkpt>
      <trkpt lat="45.07662" lon="6.05175">
        <ele>1316</ele>
        <time>2024-06-04T21:01:42Z</time>
      </trkpt>
      <trkpt lat="45.07678" lon="6.05165">
        <ele>1319</ele>
        <time>2024-06-04T21:01:45Z</time>
      </trkpt>
      <trkpt lat="45.07688" lon="6.05155">
        <ele>1322</ele>
        <time>2024-06-04T21:01:47Z</time>
      </trkpt>
      <trkpt lat="45.07711" lon="6.05119">
        <ele>1324</ele>
        <time>2024-06-04T21:01:54Z</time>
      </trkpt>
      <trkpt lat="45.07725" lon="6.05086">
        <ele>1323</ele>
        <time>2024-06-04T21:01:58Z</time>
      </trkpt>
      <trkpt lat="45.07772" lon="6.05011">
        <ele>1333</ele>
        <time>2024-06-04T21:02:11Z</time>
      </trkpt>
      <trkpt lat="45.07798" lon="6.04962">
        <ele>1341</ele>
        <time>2024-06-04T21:02:19Z</time>
      </trkpt>
      <trkpt lat="45.07806" lon="6.04941">
        <ele>1344</ele>
        <time>2024-06-04T21:02:22Z</time>
      </trkpt>
      <trkpt lat="45.07806" lon="6.0493">
        <ele>1343</ele>
        <time>2024-06-04T21:02:23Z</time>
      </trkpt>
      <trkpt lat="45.07793" lon="6.04891">
        <ele>1337</ele>
        <time>2024-06-04T21:02:28Z</time>
      </trkpt>
      <trkpt lat="45.07794" lon="6.04844">
        <ele>1343</ele>
        <time>2024-06-04T21:02:34Z</time>
      </trkpt>
      <trkpt lat="45.07789" lon="6.04821">
        <ele>1341</ele>
        <time>2024-06-04T21:02:37Z</time>
      </trkpt>
      <trkpt lat="45.07781" lon="6.04796">
        <ele>1336</ele>
        <time>2024-06-04T21:02:41Z</time>
      </trkpt>
      <trkpt lat="45.07781" lon="6.04785">
        <ele>1337</ele>
        <time>2024-06-04T21:02:42Z</time>
      </trkpt>
      <trkpt lat="45.07787" lon="6.04779">
        <ele>1341</ele>
        <time>2024-06-04T21:02:44Z</time>
      </trkpt>
      <trkpt lat="45.07792" lon="6.04781">
        <ele>1345</ele>
        <time>2024-06-04T21:02:44Z</time>
      </trkpt>
      <trkpt lat="45.07797" lon="6.04786">
        <ele>1348</ele>
        <time>2024-06-04T21:02:46Z</time>
      </trkpt>
      <trkpt lat="45.07804" lon="6.0483">
        <ele>1351</ele>
        <time>2024-06-04T21:02:51Z</time>
      </trkpt>
      <trkpt lat="45.0781" lon="6.0485">
        <ele>1353</ele>
        <time>2024-06-04T21:02:54Z</time>
      </trkpt>
      <trkpt lat="45.07823" lon="6.04883">
        <ele>1356</ele>
        <time>2024-06-04T21:02:59Z</time>
      </trkpt>
      <trkpt lat="45.07841" lon="6.04919">
        <ele>1362</ele>
        <time>2024-06-04T21:03:04Z</time>
      </trkpt>
      <trkpt lat="45.07843" lon="6.04933">
        <ele>1364</ele>
        <time>2024-06-04T21:03:06Z</time>
      </trkpt>
      <trkpt lat="45.07842" lon="6.0498">
        <ele>1367</ele>
        <time>2024-06-04T21:03:12Z</time>
      </trkpt>
      <trkpt lat="45.07838" lon="6.05014">
        <ele>1369</ele>
        <time>2024-06-04T21:03:16Z</time>
      </trkpt>
      <trkpt lat="45.07832" lon="6.05036">
        <ele>1369</ele>
        <time>2024-06-04T21:03:19Z</time>
      </trkpt>
      <trkpt lat="45.07783" lon="6.0517">
        <ele>1375</ele>
        <time>2024-06-04T21:03:38Z</time>
      </trkpt>
      <trkpt lat="45.0777" lon="6.05223">
        <ele>1383</ele>
        <time>2024-06-04T21:03:45Z</time>
      </trkpt>
      <trkpt lat="45.07766" lon="6.05235">
        <ele>1385</ele>
        <time>2024-06-04T21:03:47Z</time>
      </trkpt>
      <trkpt lat="45.07746" lon="6.05273">
        <ele>1384</ele>
        <time>2024-06-04T21:03:53Z</time>
      </trkpt>
      <trkpt lat="45.07737" lon="6.05285">
        <ele>1382</ele>
        <time>2024-06-04T21:03:55Z</time>
      </trkpt>
      <trkpt lat="45.07708" lon="6.05317">
        <ele>1376</ele>
        <time>2024-06-04T21:04:02Z</time>
      </trkpt>
      <trkpt lat="45.07705" lon="6.05327">
        <ele>1376</ele>
        <time>2024-06-04T21:04:03Z</time>
      </trkpt>
      <trkpt lat="45.07707" lon="6.05338">
        <ele>1377</ele>
        <time>2024-06-04T21:04:04Z</time>
      </trkpt>
      <trkpt lat="45.07711" lon="6.05346">
        <ele>1378</ele>
        <time>2024-06-04T21:04:06Z</time>
      </trkpt>
      <trkpt lat="45.07716" lon="6.05351">
        <ele>1378</ele>
        <time>2024-06-04T21:04:07Z</time>
      </trkpt>
      <trkpt lat="45.0776" lon="6.05362">
        <ele>1391</ele>
        <time>2024-06-04T21:04:15Z</time>
      </trkpt>
      <trkpt lat="45.07774" lon="6.0537">
        <ele>1394</ele>
        <time>2024-06-04T21:04:17Z</time>
      </trkpt>
      <trkpt lat="45.07818" lon="6.05408">
        <ele>1402</ele>
        <time>2024-06-04T21:04:27Z</time>
      </trkpt>
      <trkpt lat="45.07917" lon="6.05466">
        <ele>1413</ele>
        <time>2024-06-04T21:04:46Z</time>
      </trkpt>
      <trkpt lat="45.07936" lon="6.05469">
        <ele>1416</ele>
        <time>2024-06-04T21:04:49Z</time>
      </trkpt>
      <trkpt lat="45.07959" lon="6.05463">
        <ele>1422</ele>
        <time>2024-06-04T21:04:53Z</time>
      </trkpt>
      <trkpt lat="45.07974" lon="6.05462">
        <ele>1425</ele>
        <time>2024-06-04T21:04:56Z</time>
      </trkpt>
      <trkpt lat="45.0804" lon="6.05479">
        <ele>1432</ele>
        <time>2024-06-04T21:05:08Z</time>
      </trkpt>
      <trkpt lat="45.08061" lon="6.05487">
        <ele>1433</ele>
        <time>2024-06-04T21:05:12Z</time>
      </trkpt>
      <trkpt lat="45.08068" lon="6.05493">
        <ele>1433</ele>
        <time>2024-06-04T21:05:13Z</time>
      </trkpt>
      <trkpt lat="45.08077" lon="6.05509">
        <ele>1434</ele>
        <time>2024-06-04T21:05:16Z</time>
      </trkpt>
      <trkpt lat="45.08081" lon="6.05524">
        <ele>1438</ele>
        <time>2024-06-04T21:05:18Z</time>
      </trkpt>
      <trkpt lat="45.08081" lon="6.05537">
        <ele>1440</ele>
        <time>2024-06-04T21:05:19Z</time>
      </trkpt>
      <trkpt lat="45.08076" lon="6.0555">
        <ele>1441</ele>
        <time>2024-06-04T21:05:21Z</time>
      </trkpt>
      <trkpt lat="45.08072" lon="6.05554">
        <ele>1441</ele>
        <time>2024-06-04T21:05:22Z</time>
      </trkpt>
      <trkpt lat="45.0803" lon="6.05574">
        <ele>1433</ele>
        <time>2024-06-04T21:05:30Z</time>
      </trkpt>
      <trkpt lat="45.08019" lon="6.05587">
        <ele>1431</ele>
        <time>2024-06-04T21:05:32Z</time>
      </trkpt>
      <trkpt lat="45.08013" lon="6.05606">
        <ele>1431</ele>
        <time>2024-06-04T21:05:35Z</time>
      </trkpt>
      <trkpt lat="45.08009" lon="6.05626">
        <ele>1432</ele>
        <time>2024-06-04T21:05:38Z</time>
      </trkpt>
      <trkpt lat="45.08005" lon="6.0566">
        <ele>1433</ele>
        <time>2024-06-04T21:05:42Z</time>
      </trkpt>
      <trkpt lat="45.08006" lon="6.0568">
        <ele>1434</ele>
        <time>2024-06-04T21:05:45Z</time>
      </trkpt>
      <trkpt lat="45.08012" lon="6.05699">
        <ele>1436</ele>
        <time>2024-06-04T21:05:47Z</time>
      </trkpt>
      <trkpt lat="45.08034" lon="6.05753">
        <ele>1444</ele>
        <time>2024-06-04T21:05:55Z</time>
      </trkpt>
      <trkpt lat="45.08074" lon="6.05856">
        <ele>1448</ele>
        <time>2024-06-04T21:06:10Z</time>
      </trkpt>
      <trkpt lat="45.08107" lon="6.05908">
        <ele>1457</ele>
        <time>2024-06-04T21:06:19Z</time>
      </trkpt>
      <trkpt lat="45.08129" lon="6.05974">
        <ele>1462</ele>
        <time>2024-06-04T21:06:28Z</time>
      </trkpt>
      <trkpt lat="45.08149" lon="6.06005">
        <ele>1469</ele>
        <time>2024-06-04T21:06:33Z</time>
      </trkpt>
      <trkpt lat="45.0818" lon="6.06105">
        <ele>1474</ele>
        <time>2024-06-04T21:06:47Z</time>
      </trkpt>
      <trkpt lat="45.08198" lon="6.06178">
        <ele>1474</ele>
        <time>2024-06-04T21:06:56Z</time>
      </trkpt>
      <trkpt lat="45.08212" lon="6.06218">
        <ele>1474</ele>
        <time>2024-06-04T21:07:02Z</time>
      </trkpt>
      <trkpt lat="45.08216" lon="6.06226">
        <ele>1475</ele>
        <time>2024-06-04T21:07:03Z</time>
      </trkpt>
      <trkpt lat="45.08221" lon="6.06231">
        <ele>1477</ele>
        <time>2024-06-04T21:07:04Z</time>
      </trkpt>
      <trkpt lat="45.08226" lon="6.06232">
        <ele>1480</ele>
        <time>2024-06-04T21:07:05Z</time>
      </trkpt>
      <trkpt lat="45.08229" lon="6.0623">
        <ele>1482</ele>
        <time>2024-06-04T21:07:06Z</time>
      </trkpt>
      <trkpt lat="45.08234" lon="6.06224">
        <ele>1486</ele>
        <time>2024-06-04T21:07:07Z</time>
      </trkpt>
      <trkpt lat="45.08233" lon="6.06212">
        <ele>1487</ele>
        <time>2024-06-04T21:07:09Z</time>
      </trkpt>
      <trkpt lat="45.08212" lon="6.06173">
        <ele>1482</ele>
        <time>2024-06-04T21:07:15Z</time>
      </trkpt>
      <trkpt lat="45.08209" lon="6.06162">
        <ele>1482</ele>
        <time>2024-06-04T21:07:16Z</time>
      </trkpt>
      <trkpt lat="45.08208" lon="6.06142">
        <ele>1484</ele>
        <time>2024-06-04T21:07:19Z</time>
      </trkpt>
      <trkpt lat="45.0822" lon="6.05971">
        <ele>1500</ele>
        <time>2024-06-04T21:07:40Z</time>
      </trkpt>
      <trkpt lat="45.08223" lon="6.05817">
        <ele>1501</ele>
        <time>2024-06-04T21:08:00Z</time>
      </trkpt>
      <trkpt lat="45.0823" lon="6.05791">
        <ele>1500</ele>
        <time>2024-06-04T21:08:03Z</time>
      </trkpt>
      <trkpt lat="45.08239" lon="6.05775">
        <ele>1501</ele>
        <time>2024-06-04T21:08:06Z</time>
      </trkpt>
      <trkpt lat="45.08251" lon="6.05765">
        <ele>1502</ele>
        <time>2024-06-04T21:08:08Z</time>
      </trkpt>
      <trkpt lat="45.08259" lon="6.05761">
        <ele>1502</ele>
        <time>2024-06-04T21:08:10Z</time>
      </trkpt>
      <trkpt lat="45.08273" lon="6.05759">
        <ele>1504</ele>
        <time>2024-06-04T21:08:12Z</time>
      </trkpt>
      <trkpt lat="45.08318" lon="6.05758">
        <ele>1510</ele>
        <time>2024-06-04T21:08:20Z</time>
      </trkpt>
      <trkpt lat="45.08353" lon="6.05748">
        <ele>1513</ele>
        <time>2024-06-04T21:08:27Z</time>
      </trkpt>
      <trkpt lat="45.08363" lon="6.05748">
        <ele>1514</ele>
        <time>2024-06-04T21:08:28Z</time>
      </trkpt>
      <trkpt lat="45.08368" lon="6.05756">
        <ele>1516</ele>
        <time>2024-06-04T21:08:30Z</time>
      </trkpt>
      <trkpt lat="45.08366" lon="6.05768">
        <ele>1518</ele>
        <time>2024-06-04T21:08:31Z</time>
      </trkpt>
      <trkpt lat="45.08335" lon="6.05793">
        <ele>1517</ele>
        <time>2024-06-04T21:08:38Z</time>
      </trkpt>
      <trkpt lat="45.08327" lon="6.05805">
        <ele>1518</ele>
        <time>2024-06-04T21:08:40Z</time>
      </trkpt>
      <trkpt lat="45.08315" lon="6.05829">
        <ele>1519</ele>
        <time>2024-06-04T21:08:43Z</time>
      </trkpt>
      <trkpt lat="45.08305" lon="6.05861">
        <ele>1522</ele>
        <time>2024-06-04T21:08:48Z</time>
      </trkpt>
      <trkpt lat="45.08301" lon="6.05883">
        <ele>1524</ele>
        <time>2024-06-04T21:08:51Z</time>
      </trkpt>
      <trkpt lat="45.08301" lon="6.05931">
        <ele>1528</ele>
        <time>2024-06-04T21:08:57Z</time>
      </trkpt>
      <trkpt lat="45.08302" lon="6.05969">
        <ele>1531</ele>
        <time>2024-06-04T21:09:01Z</time>
      </trkpt>
      <trkpt lat="45.08306" lon="6.06006">
        <ele>1535</ele>
        <time>2024-06-04T21:09:06Z</time>
      </trkpt>
      <trkpt lat="45.08319" lon="6.06072">
        <ele>1543</ele>
        <time>2024-06-04T21:09:15Z</time>
      </trkpt>
      <trkpt lat="45.08345" lon="6.06193">
        <ele>1551</ele>
        <time>2024-06-04T21:09:31Z</time>
      </trkpt>
      <trkpt lat="45.08348" lon="6.06215">
        <ele>1552</ele>
        <time>2024-06-04T21:09:33Z</time>
      </trkpt>
      <trkpt lat="45.08349" lon="6.06252">
        <ele>1551</ele>
        <time>2024-06-04T21:09:38Z</time>
      </trkpt>
      <trkpt lat="45.08352" lon="6.0626">
        <ele>1552</ele>
        <time>2024-06-04T21:09:39Z</time>
      </trkpt>
      <trkpt lat="45.08356" lon="6.06263">
        <ele>1555</ele>
        <time>2024-06-04T21:09:40Z</time>
      </trkpt>
      <trkpt lat="45.08362" lon="6.06262">
        <ele>1558</ele>
        <time>2024-06-04T21:09:41Z</time>
      </trkpt>
      <trkpt lat="45.08365" lon="6.06257">
        <ele>1560</ele>
        <time>2024-06-04T21:09:42Z</time>
      </trkpt>
      <trkpt lat="45.08366" lon="6.0625">
        <ele>1560</ele>
        <time>2024-06-04T21:09:43Z</time>
      </trkpt>
      <trkpt lat="45.08361" lon="6.06222">
        <ele>1558</ele>
        <time>2024-06-04T21:09:46Z</time>
      </trkpt>
      <trkpt lat="45.08359" lon="6.06196">
        <ele>1558</ele>
        <time>2024-06-04T21:09:50Z</time>
      </trkpt>
      <trkpt lat="45.08358" lon="6.06165">
        <ele>1558</ele>
        <time>2024-06-04T21:09:54Z</time>
      </trkpt>
      <trkpt lat="45.0836" lon="6.06145">
        <ele>1558</ele>
        <time>2024-06-04T21:09:56Z</time>
      </trkpt>
      <trkpt lat="45.08377" lon="6.06101">
        <ele>1564</ele>
        <time>2024-06-04T21:10:02Z</time>
      </trkpt>
      <trkpt lat="45.0839" lon="6.06069">
        <ele>1566</ele>
        <time>2024-06-04T21:10:07Z</time>
      </trkpt>
      <trkpt lat="45.08402" lon="6.06048">
        <ele>1567</ele>
        <time>2024-06-04T21:10:10Z</time>
      </trkpt>
      <trkpt lat="45.08414" lon="6.06036">
        <ele>1569</ele>
        <time>2024-06-04T21:10:13Z</time>
      </trkpt>
      <trkpt lat="45.08435" lon="6.06024">
        <ele>1572</ele>
        <time>2024-06-04T21:10:17Z</time>
      </trkpt>
      <trkpt lat="45.08514" lon="6.06002">
        <ele>1585</ele>
        <time>2024-06-04T21:10:31Z</time>
      </trkpt>
      <trkpt lat="45.08535" lon="6.05993">
        <ele>1588</ele>
        <time>2024-06-04T21:10:35Z</time>
      </trkpt>
      <trkpt lat="45.08553" lon="6.05982">
        <ele>1591</ele>
        <time>2024-06-04T21:10:39Z</time>
      </trkpt>
      <trkpt lat="45.08577" lon="6.05962">
        <ele>1593</ele>
        <time>2024-06-04T21:10:44Z</time>
      </trkpt>
      <trkpt lat="45.08643" lon="6.05892">
        <ele>1597</ele>
        <time>2024-06-04T21:10:58Z</time>
      </trkpt>
      <trkpt lat="45.08662" lon="6.05874">
        <ele>1599</ele>
        <time>2024-06-04T21:11:03Z</time>
      </trkpt>
      <trkpt lat="45.08671" lon="6.059">
        <ele>1605</ele>
        <time>2024-06-04T21:11:06Z</time>
      </trkpt>
      <trkpt lat="45.08671" lon="6.05907">
        <ele>1606</ele>
        <time>2024-06-04T21:11:07Z</time>
      </trkpt>
      <trkpt lat="45.0867" lon="6.05913">
        <ele>1607</ele>
        <time>2024-06-04T21:11:08Z</time>
      </trkpt>
      <trkpt lat="45.08665" lon="6.05921">
        <ele>1607</ele>
        <time>2024-06-04T21:11:09Z</time>
      </trkpt>
      <trkpt lat="45.08639" lon="6.05945">
        <ele>1606</ele>
        <time>2024-06-04T21:11:15Z</time>
      </trkpt>
      <trkpt lat="45.08623" lon="6.05963">
        <ele>1605</ele>
        <time>2024-06-04T21:11:18Z</time>
      </trkpt>
      <trkpt lat="45.08611" lon="6.05985">
        <ele>1606</ele>
        <time>2024-06-04T21:11:22Z</time>
      </trkpt>
      <trkpt lat="45.08579" lon="6.06055">
        <ele>1610</ele>
        <time>2024-06-04T21:11:32Z</time>
      </trkpt>
      <trkpt lat="45.08563" lon="6.06086">
        <ele>1612</ele>
        <time>2024-06-04T21:11:37Z</time>
      </trkpt>
      <trkpt lat="45.08524" lon="6.06145">
        <ele>1617</ele>
        <time>2024-06-04T21:11:47Z</time>
      </trkpt>
      <trkpt lat="45.08517" lon="6.06157">
        <ele>1617</ele>
        <time>2024-06-04T21:11:49Z</time>
      </trkpt>
      <trkpt lat="45.08507" lon="6.0618">
        <ele>1619</ele>
        <time>2024-06-04T21:11:53Z</time>
      </trkpt>
      <trkpt lat="45.08502" lon="6.06202">
        <ele>1622</ele>
        <time>2024-06-04T21:11:56Z</time>
      </trkpt>
      <trkpt lat="45.08495" lon="6.06246">
        <ele>1627</ele>
        <time>2024-06-04T21:12:01Z</time>
      </trkpt>
      <trkpt lat="45.08485" lon="6.06295">
        <ele>1628</ele>
        <time>2024-06-04T21:12:08Z</time>
      </trkpt>
      <trkpt lat="45.08481" lon="6.06329">
        <ele>1631</ele>
        <time>2024-06-04T21:12:12Z</time>
      </trkpt>
      <trkpt lat="45.08477" lon="6.06388">
        <ele>1635</ele>
        <time>2024-06-04T21:12:19Z</time>
      </trkpt>
      <trkpt lat="45.08459" lon="6.06482">
        <ele>1639</ele>
        <time>2024-06-04T21:12:32Z</time>
      </trkpt>
      <trkpt lat="45.0845" lon="6.06513">
        <ele>1641</ele>
        <time>2024-06-04T21:12:36Z</time>
      </trkpt>
      <trkpt lat="45.08428" lon="6.06556">
        <ele>1638</ele>
        <time>2024-06-04T21:12:43Z</time>
      </trkpt>
      <trkpt lat="45.08424" lon="6.06571">
        <ele>1639</ele>
        <time>2024-06-04T21:12:45Z</time>
      </trkpt>
      <trkpt lat="45.08427" lon="6.06581">
        <ele>1643</ele>
        <time>2024-06-04T21:12:46Z</time>
      </trkpt>
      <trkpt lat="45.08433" lon="6.06587">
        <ele>1648</ele>
        <time>2024-06-04T21:12:47Z</time>
      </trkpt>
      <trkpt lat="45.08444" lon="6.06587">
        <ele>1654</ele>
        <time>2024-06-04T21:12:49Z</time>
      </trkpt>
      <trkpt lat="45.0845" lon="6.06579">
        <ele>1655</ele>
        <time>2024-06-04T21:12:51Z</time>
      </trkpt>
      <trkpt lat="45.08467" lon="6.06513">
        <ele>1650</ele>
        <time>2024-06-04T21:12:59Z</time>
      </trkpt>
      <trkpt lat="45.08521" lon="6.06394">
        <ele>1662</ele>
        <time>2024-06-04T21:13:17Z</time>
      </trkpt>
      <trkpt lat="45.08537" lon="6.06337">
        <ele>1662</ele>
        <time>2024-06-04T21:13:25Z</time>
      </trkpt>
      <trkpt lat="45.08551" lon="6.06312">
        <ele>1665</ele>
        <time>2024-06-04T21:13:29Z</time>
      </trkpt>
      <trkpt lat="45.08584" lon="6.06268">
        <ele>1671</ele>
        <time>2024-06-04T21:13:37Z</time>
      </trkpt>
      <trkpt lat="45.08601" lon="6.06251">
        <ele>1672</ele>
        <time>2024-06-04T21:13:41Z</time>
      </trkpt>
      <trkpt lat="45.08617" lon="6.06242">
        <ele>1674</ele>
        <time>2024-06-04T21:13:44Z</time>
      </trkpt>
      <trkpt lat="45.08734" lon="6.06185">
        <ele>1681</ele>
        <time>2024-06-04T21:14:06Z</time>
      </trkpt>
      <trkpt lat="45.08741" lon="6.06184">
        <ele>1682</ele>
        <time>2024-06-04T21:14:07Z</time>
      </trkpt>
      <trkpt lat="45.08749" lon="6.06193">
        <ele>1686</ele>
        <time>2024-06-04T21:14:09Z</time>
      </trkpt>
      <trkpt lat="45.08751" lon="6.06208">
        <ele>1692</ele>
        <time>2024-06-04T21:14:11Z</time>
      </trkpt>
      <trkpt lat="45.0875" lon="6.06212">
        <ele>1693</ele>
        <time>2024-06-04T21:14:11Z</time>
      </trkpt>
      <trkpt lat="45.08744" lon="6.0622">
        <ele>1694</ele>
        <time>2024-06-04T21:14:13Z</time>
      </trkpt>
      <trkpt lat="45.08706" lon="6.06228">
        <ele>1690</ele>
        <time>2024-06-04T21:14:20Z</time>
      </trkpt>
      <trkpt lat="45.08699" lon="6.0623">
        <ele>1690</ele>
        <time>2024-06-04T21:14:21Z</time>
      </trkpt>
      <trkpt lat="45.08681" lon="6.06242">
        <ele>1691</ele>
        <time>2024-06-04T21:14:24Z</time>
      </trkpt>
      <trkpt lat="45.08636" lon="6.06292">
        <ele>1694</ele>
        <time>2024-06-04T21:14:35Z</time>
      </trkpt>
      <trkpt lat="45.08623" lon="6.06314">
        <ele>1695</ele>
        <time>2024-06-04T21:14:38Z</time>
      </trkpt>
      <trkpt lat="45.08589" lon="6.06398">
        <ele>1700</ele>
        <time>2024-06-04T21:14:50Z</time>
      </trkpt>
      <trkpt lat="45.08586" lon="6.06425">
        <ele>1703</ele>
        <time>2024-06-04T21:14:54Z</time>
      </trkpt>
      <trkpt lat="45.08587" lon="6.06473">
        <ele>1711</ele>
        <time>2024-06-04T21:15:00Z</time>
      </trkpt>
      <trkpt lat="45.0856" lon="6.06564">
        <ele>1713</ele>
        <time>2024-06-04T21:15:12Z</time>
      </trkpt>
      <trkpt lat="45.08553" lon="6.06594">
        <ele>1715</ele>
        <time>2024-06-04T21:15:16Z</time>
      </trkpt>
      <trkpt lat="45.08548" lon="6.06626">
        <ele>1719</ele>
        <time>2024-06-04T21:15:20Z</time>
      </trkpt>
      <trkpt lat="45.08541" lon="6.06657">
        <ele>1723</ele>
        <time>2024-06-04T21:15:24Z</time>
      </trkpt>
      <trkpt lat="45.08537" lon="6.06666">
        <ele>1723</ele>
        <time>2024-06-04T21:15:26Z</time>
      </trkpt>
      <trkpt lat="45.08526" lon="6.06682">
        <ele>1723</ele>
        <time>2024-06-04T21:15:29Z</time>
      </trkpt>
      <trkpt lat="45.08517" lon="6.06692">
        <ele>1722</ele>
        <time>2024-06-04T21:15:31Z</time>
      </trkpt>
      <trkpt lat="45.08486" lon="6.06712">
        <ele>1711</ele>
        <time>2024-06-04T21:15:37Z</time>
      </trkpt>
      <trkpt lat="45.08471" lon="6.06733">
        <ele>1707</ele>
        <time>2024-06-04T21:15:40Z</time>
      </trkpt>
      <trkpt lat="45.08463" lon="6.06756">
        <ele>1707</ele>
        <time>2024-06-04T21:15:44Z</time>
      </trkpt>
      <trkpt lat="45.08458" lon="6.06795">
        <ele>1711</ele>
        <time>2024-06-04T21:15:49Z</time>
      </trkpt>
      <trkpt lat="45.08458" lon="6.06802">
        <ele>1713</ele>
        <time>2024-06-04T21:15:49Z</time>
      </trkpt>
      <trkpt lat="45.08463" lon="6.06818">
        <ele>1719</ele>
        <time>2024-06-04T21:15:52Z</time>
      </trkpt>
      <trkpt lat="45.08482" lon="6.06851">
        <ele>1728</ele>
        <time>2024-06-04T21:15:57Z</time>
      </trkpt>
      <trkpt lat="45.08528" lon="6.06899">
        <ele>1746</ele>
        <time>2024-06-04T21:16:07Z</time>
      </trkpt>
      <trkpt lat="45.08564" lon="6.06951">
        <ele>1759</ele>
        <time>2024-06-04T21:16:16Z</time>
      </trkpt>
      <trkpt lat="45.08575" lon="6.06974">
        <ele>1760</ele>
        <time>2024-06-04T21:16:20Z</time>
      </trkpt>
      <trkpt lat="45.08591" lon="6.07037">
        <ele>1756</ele>
        <time>2024-06-04T21:16:28Z</time>
      </trkpt>
      <trkpt lat="45.08594" lon="6.07082">
        <ele>1749</ele>
        <time>2024-06-04T21:16:34Z</time>
      </trkpt>
      <trkpt lat="45.08594" lon="6.07092">
        <ele>1748</ele>
        <time>2024-06-04T21:16:35Z</time>
      </trkpt>
      <trkpt lat="45.08591" lon="6.07104">
        <ele>1745</ele>
        <time>2024-06-04T21:16:37Z</time>
      </trkpt>
      <trkpt lat="45.08579" lon="6.07133">
        <ele>1734</ele>
        <time>2024-06-04T21:16:41Z</time>
      </trkpt>
      <trkpt lat="45.08576" lon="6.07144">
        <ele>1731</ele>
        <time>2024-06-04T21:16:42Z</time>
      </trkpt>
      <trkpt lat="45.08576" lon="6.07152">
        <ele>1731</ele>
        <time>2024-06-04T21:16:43Z</time>
      </trkpt>
      <trkpt lat="45.08579" lon="6.0716">
        <ele>1733</ele>
        <time>2024-06-04T21:16:45Z</time>
      </trkpt>
      <trkpt lat="45.08589" lon="6.07167">
        <ele>1740</ele>
        <time>2024-06-04T21:16:47Z</time>
      </trkpt>
      <trkpt lat="45.08618" lon="6.07177">
        <ele>1758</ele>
        <time>2024-06-04T21:16:52Z</time>
      </trkpt>
      <trkpt lat="45.08632" lon="6.07187">
        <ele>1765</ele>
        <time>2024-06-04T21:16:55Z</time>
      </trkpt>
      <trkpt lat="45.08646" lon="6.07207">
        <ele>1766</ele>
        <time>2024-06-04T21:16:58Z</time>
      </trkpt>
      <trkpt lat="45.08665" lon="6.0725">
        <ele>1760</ele>
        <time>2024-06-04T21:17:05Z</time>
      </trkpt>
      <trkpt lat="45.08674" lon="6.07263">
        <ele>1760</ele>
        <time>2024-06-04T21:17:07Z</time>
      </trkpt>
      <trkpt lat="45.08683" lon="6.07271">
        <ele>1761</ele>
        <time>2024-06-04T21:17:09Z</time>
      </trkpt>
      <trkpt lat="45.08715" lon="6.07291">
        <ele>1768</ele>
        <time>2024-06-04T21:17:15Z</time>
      </trkpt>
      <trkpt lat="45.08762" lon="6.07326">
        <ele>1774</ele>
        <time>2024-06-04T21:17:24Z</time>
      </trkpt>
      <trkpt lat="45.08785" lon="6.07347">
        <ele>1774</ele>
        <time>2024-06-04T21:17:29Z</time>
      </trkpt>
      <trkpt lat="45.088" lon="6.07362">
        <ele>1775</ele>
        <time>2024-06-04T21:17:33Z</time>
      </trkpt>
      <trkpt lat="45.08816" lon="6.07383">
        <ele>1777</ele>
        <time>2024-06-04T21:17:36Z</time>
      </trkpt>
      <trkpt lat="45.08841" lon="6.07427">
        <ele>1782</ele>
        <time>2024-06-04T21:17:44Z</time>
      </trkpt>
      <trkpt lat="45.08866" lon="6.07476">
        <ele>1786</ele>
        <time>2024-06-04T21:17:51Z</time>
      </trkpt>
      <trkpt lat="45.08858" lon="6.07492">
        <ele>1784</ele>
        <time>2024-06-04T21:17:54Z</time>
      </trkpt>
      <trkpt lat="45.08852" lon="6.07512">
        <ele>1784</ele>
        <time>2024-06-04T21:17:56Z</time>
      </trkpt>
      <trkpt lat="45.08834" lon="6.07559">
        <ele>1788</ele>
        <time>2024-06-04T21:18:03Z</time>
      </trkpt>
      <trkpt lat="45.08824" lon="6.07595">
        <ele>1790</ele>
        <time>2024-06-04T21:18:08Z</time>
      </trkpt>
      <trkpt lat="45.08822" lon="6.07606">
        <ele>1791</ele>
        <time>2024-06-04T21:18:09Z</time>
      </trkpt>
      <trkpt lat="45.08835" lon="6.07679">
        <ele>1798</ele>
        <time>2024-06-04T21:18:19Z</time>
      </trkpt>
      <trkpt lat="45.08843" lon="6.07714">
        <ele>1801</ele>
        <time>2024-06-04T21:18:23Z</time>
      </trkpt>
      <trkpt lat="45.08851" lon="6.07727">
        <ele>1802</ele>
        <time>2024-06-04T21:18:26Z</time>
      </trkpt>
      <trkpt lat="45.08849" lon="6.07746">
        <ele>1803</ele>
        <time>2024-06-04T21:18:28Z</time>
      </trkpt>
      <trkpt lat="45.08852" lon="6.07761">
        <ele>1804</ele>
        <time>2024-06-04T21:18:30Z</time>
      </trkpt>
      <trkpt lat="45.0886" lon="6.07777">
        <ele>1805</ele>
        <time>2024-06-04T21:18:32Z</time>
      </trkpt>
      <trkpt lat="45.08864" lon="6.07782">
        <ele>1806</ele>
        <time>2024-06-04T21:18:33Z</time>
      </trkpt>
      <trkpt lat="45.08873" lon="6.07786">
        <ele>1807</ele>
        <time>2024-06-04T21:18:35Z</time>
      </trkpt>
      <trkpt lat="45.08882" lon="6.07785">
        <ele>1807</ele>
        <time>2024-06-04T21:18:37Z</time>
      </trkpt>
      <trkpt lat="45.08908" lon="6.07767">
        <ele>1808</ele>
        <time>2024-06-04T21:18:42Z</time>
      </trkpt>
      <trkpt lat="45.08916" lon="6.07765">
        <ele>1809</ele>
        <time>2024-06-04T21:18:43Z</time>
      </trkpt>
      <trkpt lat="45.08928" lon="6.0777">
        <ele>1810</ele>
        <time>2024-06-04T21:18:45Z</time>
      </trkpt>
      <trkpt lat="45.08933" lon="6.07777">
        <ele>1810</ele>
        <time>2024-06-04T21:18:47Z</time>
      </trkpt>
      <trkpt lat="45.08936" lon="6.07786">
        <ele>1811</ele>
        <time>2024-06-04T21:18:48Z</time>
      </trkpt>
      <trkpt lat="45.08936" lon="6.07807">
        <ele>1812</ele>
        <time>2024-06-04T21:18:51Z</time>
      </trkpt>
      <trkpt lat="45.08933" lon="6.07816">
        <ele>1812</ele>
        <time>2024-06-04T21:18:52Z</time>
      </trkpt>
      <trkpt lat="45.08927" lon="6.07828">
        <ele>1812</ele>
        <time>2024-06-04T21:18:54Z</time>
      </trkpt>
      <trkpt lat="45.08903" lon="6.07861">
        <ele>1814</ele>
        <time>2024-06-04T21:19:00Z</time>
      </trkpt>
      <trkpt lat="45.08894" lon="6.07879">
        <ele>1815</ele>
        <time>2024-06-04T21:19:02Z</time>
      </trkpt>
      <trkpt lat="45.08887" lon="6.07897">
        <ele>1817</ele>
        <time>2024-06-04T21:19:05Z</time>
      </trkpt>
      <trkpt lat="45.08879" lon="6.07938">
        <ele>1819</ele>
        <time>2024-06-04T21:19:10Z</time>
      </trkpt>
      <trkpt lat="45.08876" lon="6.0796">
        <ele>1820</ele>
        <time>2024-06-04T21:19:13Z</time>
      </trkpt>
      <trkpt lat="45.08881" lon="6.07989">
        <ele>1821</ele>
        <time>2024-06-04T21:19:17Z</time>
      </trkpt>
      <trkpt lat="45.08887" lon="6.07996">
        <ele>1822</ele>
        <time>2024-06-04T21:19:18Z</time>
      </trkpt>
      <trkpt lat="45.08894" lon="6.08001">
        <ele>1823</ele>
        <time>2024-06-04T21:19:20Z</time>
      </trkpt>
      <trkpt lat="45.08907" lon="6.08001">
        <ele>1825</ele>
        <time>2024-06-04T21:19:22Z</time>
      </trkpt>
      <trkpt lat="45.08934" lon="6.07987">
        <ele>1827</ele>
        <time>2024-06-04T21:19:27Z</time>
      </trkpt>
      <trkpt lat="45.08954" lon="6.07967">
        <ele>1828</ele>
        <time>2024-06-04T21:19:32Z</time>
      </trkpt>
      <trkpt lat="45.08986" lon="6.07927">
        <ele>1827</ele>
        <time>2024-06-04T21:19:39Z</time>
      </trkpt>
      <trkpt lat="45.09005" lon="6.07913">
        <ele>1827</ele>
        <time>2024-06-04T21:19:43Z</time>
      </trkpt>
      <trkpt lat="45.09034" lon="6.07898">
        <ele>1828</ele>
        <time>2024-06-04T21:19:48Z</time>
      </trkpt>
      <trkpt lat="45.09043" lon="6.079">
        <ele>1829</ele>
        <time>2024-06-04T21:19:50Z</time>
      </trkpt>
      <trkpt lat="45.09053" lon="6.07909">
        <ele>1831</ele>
        <time>2024-06-04T21:19:52Z</time>
      </trkpt>
      <trkpt lat="45.09059" lon="6.07922">
        <ele>1833</ele>
        <time>2024-06-04T21:19:54Z</time>
      </trkpt>
      <trkpt lat="45.09059" lon="6.0793">
        <ele>1834</ele>
        <time>2024-06-04T21:19:55Z</time>
      </trkpt>
      <trkpt lat="45.09057" lon="6.0794">
        <ele>1835</ele>
        <time>2024-06-04T21:19:56Z</time>
      </trkpt>
      <trkpt lat="45.0905" lon="6.07953">
        <ele>1836</ele>
        <time>2024-06-04T21:19:58Z</time>
      </trkpt>
      <trkpt lat="45.09027" lon="6.07974">
        <ele>1836</ele>
        <time>2024-06-04T21:20:03Z</time>
      </trkpt>
      <trkpt lat="45.09014" lon="6.08002">
        <ele>1839</ele>
        <time>2024-06-04T21:20:08Z</time>
      </trkpt>
      <trkpt lat="45.0901" lon="6.08017">
        <ele>1840</ele>
        <time>2024-06-04T21:20:10Z</time>
      </trkpt>
      <trkpt lat="45.09007" lon="6.0806">
        <ele>1843</ele>
        <time>2024-06-04T21:20:15Z</time>
      </trkpt>
      <trkpt lat="45.09005" lon="6.08075">
        <ele>1845</ele>
        <time>2024-06-04T21:20:17Z</time>
      </trkpt>
      <trkpt lat="45.08995" lon="6.08103">
        <ele>1846</ele>
        <time>2024-06-04T21:20:21Z</time>
      </trkpt>
      <trkpt lat="45.08983" lon="6.08118">
        <ele>1847</ele>
        <time>2024-06-04T21:20:24Z</time>
      </trkpt>
      <trkpt lat="45.08957" lon="6.08144">
        <ele>1847</ele>
        <time>2024-06-04T21:20:29Z</time>
      </trkpt>
      <trkpt lat="45.08951" lon="6.08153">
        <ele>1847</ele>
        <time>2024-06-04T21:20:31Z</time>
      </trkpt>
      <trkpt lat="45.08947" lon="6.08171">
        <ele>1848</ele>
        <time>2024-06-04T21:20:33Z</time>
      </trkpt>
      <trkpt lat="45.08945" lon="6.08183">
        <ele>1848</ele>
        <time>2024-06-04T21:20:35Z</time>
      </trkpt>
      <trkpt lat="45.08945" lon="6.08199">
        <ele>1849</ele>
        <time>2024-06-04T21:20:37Z</time>
      </trkpt>
      <trkpt lat="45.0895" lon="6.08224">
        <ele>1850</ele>
        <time>2024-06-04T21:20:40Z</time>
      </trkpt>
      <trkpt lat="45.08979" lon="6.08342">
        <ele>1859</ele>
        <time>2024-06-04T21:20:56Z</time>
      </trkpt>
      <trkpt lat="45.08987" lon="6.08399">
        <ele>1861</ele>
        <time>2024-06-04T21:21:03Z</time>
      </trkpt>
      <trkpt lat="45.08991" lon="6.08438">
        <ele>1862</ele>
        <time>2024-06-04T21:21:08Z</time>
      </trkpt>
      <trkpt lat="45.08991" lon="6.08446">
        <ele>1863</ele>
        <time>2024-06-04T21:21:09Z</time>
      </trkpt>
      <trkpt lat="45.08989" lon="6.08472">
        <ele>1864</ele>
        <time>2024-06-04T21:21:12Z</time>
      </trkpt>
      <trkpt lat="45.08981" lon="6.08492">
        <ele>1864</ele>
        <time>2024-06-04T21:21:15Z</time>
      </trkpt>
      <trkpt lat="45.08954" lon="6.08538">
        <ele>1866</ele>
        <time>2024-06-04T21:21:23Z</time>
      </trkpt>
      <trkpt lat="45.08941" lon="6.08564">
        <ele>1866</ele>
        <time>2024-06-04T21:21:27Z</time>
      </trkpt>
      <trkpt lat="45.08929" lon="6.08594">
        <ele>1867</ele>
        <time>2024-06-04T21:21:31Z</time>
      </trkpt>
      <trkpt lat="45.08922" lon="6.08618">
        <ele>1868</ele>
        <time>2024-06-04T21:21:34Z</time>
      </trkpt>
      <trkpt lat="45.08912" lon="6.08731">
        <ele>1874</ele>
        <time>2024-06-04T21:21:49Z</time>
      </trkpt>
      <trkpt lat="45.08898" lon="6.08783">
        <ele>1875</ele>
        <time>2024-06-04T21:21:56Z</time>
      </trkpt>
      <trkpt lat="45.08887" lon="6.08804">
        <ele>1874</ele>
        <time>2024-06-04T21:21:59Z</time>
      </trkpt>
      <trkpt lat="45.08869" lon="6.08833">
        <ele>1873</ele>
        <time>2024-06-04T21:22:04Z</time>
      </trkpt>
      <trkpt lat="45.08843" lon="6.0889">
        <ele>1870</ele>
        <time>2024-06-04T21:22:12Z</time>
      </trkpt>
      <trkpt lat="45.08795" lon="6.08972">
        <ele>1867</ele>
        <time>2024-06-04T21:22:26Z</time>
      </trkpt>
      <trkpt lat="45.08756" lon="6.0905">
        <ele>1861</ele>
        <time>2024-06-04T21:22:38Z</time>
      </trkpt>
      <trkpt lat="45.08739" lon="6.09109">
        <ele>1858</ele>
        <time>2024-06-04T21:22:46Z</time>
      </trkpt>
      <trkpt lat="45.08729" lon="6.09154">
        <ele>1855</ele>
        <time>2024-06-04T21:22:52Z</time>
      </trkpt>
      <trkpt lat="45.08727" lon="6.09187">
        <ele>1855</ele>
        <time>2024-06-04T21:22:56Z</time>
      </trkpt>
      <trkpt lat="45.08731" lon="6.09215">
        <ele>1855</ele>
        <time>2024-06-04T21:22:59Z</time>
      </trkpt>
      <trkpt lat="45.0873" lon="6.09224">
        <ele>1855</ele>
        <time>2024-06-04T21:23:00Z</time>
      </trkpt>
      <trkpt lat="45.08727" lon="6.09231">
        <ele>1855</ele>
        <time>2024-06-04T21:23:02Z</time>
      </trkpt>
      <trkpt lat="45.08722" lon="6.09235">
        <ele>1854</ele>
        <time>2024-06-04T21:23:03Z</time>
      </trkpt>
      <trkpt lat="45.08716" lon="6.09237">
        <ele>1853</ele>
        <time>2024-06-04T21:23:04Z</time>
      </trkpt>
      <trkpt lat="45.0871" lon="6.09236">
        <ele>1853</ele>
        <time>2024-06-04T21:23:05Z</time>
      </trkpt>
      <trkpt lat="45.08702" lon="6.09232">
        <ele>1852</ele>
        <time>2024-06-04T21:23:06Z</time>
      </trkpt>
      <trkpt lat="45.08698" lon="6.09224">
        <ele>1851</ele>
        <time>2024-06-04T21:23:07Z</time>
      </trkpt>
      <trkpt lat="45.08695" lon="6.0921">
        <ele>1850</ele>
        <time>2024-06-04T21:23:09Z</time>
      </trkpt>
      <trkpt lat="45.08695" lon="6.09171">
        <ele>1849</ele>
        <time>2024-06-04T21:23:14Z</time>
      </trkpt>
      <trkpt lat="45.08692" lon="6.09158">
        <ele>1849</ele>
        <time>2024-06-04T21:23:16Z</time>
      </trkpt>
      <trkpt lat="45.08676" lon="6.0911">
        <ele>1848</ele>
        <time>2024-06-04T21:23:23Z</time>
      </trkpt>
      <trkpt lat="45.08668" lon="6.09094">
        <ele>1847</ele>
        <time>2024-06-04T21:23:25Z</time>
      </trkpt>
      <trkpt lat="45.08642" lon="6.0905">
        <ele>1844</ele>
        <time>2024-06-04T21:23:32Z</time>
      </trkpt>
      <trkpt lat="45.08638" lon="6.09037">
        <ele>1843</ele>
        <time>2024-06-04T21:23:34Z</time>
      </trkpt>
      <trkpt lat="45.0863" lon="6.09">
        <ele>1843</ele>
        <time>2024-06-04T21:23:39Z</time>
      </trkpt>
      <trkpt lat="45.08627" lon="6.08989">
        <ele>1842</ele>
        <time>2024-06-04T21:23:40Z</time>
      </trkpt>
      <trkpt lat="45.08621" lon="6.08982">
        <ele>1841</ele>
        <time>2024-06-04T21:23:42Z</time>
      </trkpt>
      <trkpt lat="45.08614" lon="6.08978">
        <ele>1840</ele>
        <time>2024-06-04T21:23:43Z</time>
      </trkpt>
      <trkpt lat="45.08608" lon="6.0898">
        <ele>1839</ele>
        <time>2024-06-04T21:23:44Z</time>
      </trkpt>
      <trkpt lat="45.08602" lon="6.08986">
        <ele>1839</ele>
        <time>2024-06-04T21:23:45Z</time>
      </trkpt>
      <trkpt lat="45.08598" lon="6.08997">
        <ele>1838</ele>
        <time>2024-06-04T21:23:47Z</time>
      </trkpt>
      <trkpt lat="45.08599" lon="6.09013">
        <ele>1838</ele>
        <time>2024-06-04T21:23:49Z</time>
      </trkpt>
      <trkpt lat="45.08608" lon="6.09059">
        <ele>1839</ele>
        <time>2024-06-04T21:23:55Z</time>
      </trkpt>
      <trkpt lat="45.08609" lon="6.09079">
        <ele>1839</ele>
        <time>2024-06-04T21:23:58Z</time>
      </trkpt>
      <trkpt lat="45.08598" lon="6.0918">
        <ele>1837</ele>
        <time>2024-06-04T21:24:10Z</time>
      </trkpt>
      <trkpt lat="45.08592" lon="6.09216">
        <ele>1836</ele>
        <time>2024-06-04T21:24:15Z</time>
      </trkpt>
      <trkpt lat="45.08586" lon="6.09243">
        <ele>1835</ele>
        <time>2024-06-04T21:24:19Z</time>
      </trkpt>
      <trkpt lat="45.0858" lon="6.0927">
        <ele>1835</ele>
        <time>2024-06-04T21:24:22Z</time>
      </trkpt>
      <trkpt lat="45.08557" lon="6.09349">
        <ele>1836</ele>
        <time>2024-06-04T21:24:33Z</time>
      </trkpt>
      <trkpt lat="45.08547" lon="6.09416">
        <ele>1837</ele>
        <time>2024-06-04T21:24:42Z</time>
      </trkpt>
      <trkpt lat="45.08537" lon="6.09469">
        <ele>1832</ele>
        <time>2024-06-04T21:24:48Z</time>
      </trkpt>
      <trkpt lat="45.08533" lon="6.09519">
        <ele>1830</ele>
        <time>2024-06-04T21:24:55Z</time>
      </trkpt>
      <trkpt lat="45.08532" lon="6.09562">
        <ele>1831</ele>
        <time>2024-06-04T21:25:00Z</time>
      </trkpt>
      <trkpt lat="45.08532" lon="6.09598">
        <ele>1832</ele>
        <time>2024-06-04T21:25:05Z</time>
      </trkpt>
      <trkpt lat="45.08527" lon="6.09623">
        <ele>1833</ele>
        <time>2024-06-04T21:25:08Z</time>
      </trkpt>
      <trkpt lat="45.08506" lon="6.09675">
        <ele>1830</ele>
        <time>2024-06-04T21:25:15Z</time>
      </trkpt>
      <trkpt lat="45.08473" lon="6.09801">
        <ele>1834</ele>
        <time>2024-06-04T21:25:32Z</time>
      </trkpt>
      <trkpt lat="45.0847" lon="6.0982">
        <ele>1837</ele>
        <time>2024-06-04T21:25:35Z</time>
      </trkpt>
      <trkpt lat="45.08464" lon="6.09914">
        <ele>1845</ele>
        <time>2024-06-04T21:25:47Z</time>
      </trkpt>
      <trkpt lat="45.08475" lon="6.09974">
        <ele>1851</ele>
        <time>2024-06-04T21:25:54Z</time>
      </trkpt>
      <trkpt lat="45.08475" lon="6.10019">
        <ele>1853</ele>
        <time>2024-06-04T21:26:00Z</time>
      </trkpt>
      <trkpt lat="45.08473" lon="6.10063">
        <ele>1853</ele>
        <time>2024-06-04T21:26:06Z</time>
      </trkpt>
      <trkpt lat="45.08476" lon="6.10123">
        <ele>1852</ele>
        <time>2024-06-04T21:26:13Z</time>
      </trkpt>
      <trkpt lat="45.08475" lon="6.10175">
        <ele>1848</ele>
        <time>2024-06-04T21:26:20Z</time>
      </trkpt>
      <trkpt lat="45.08477" lon="6.10284">
        <ele>1842</ele>
        <time>2024-06-04T21:26:33Z</time>
      </trkpt>
      <trkpt lat="45.08482" lon="6.10329">
        <ele>1844</ele>
        <time>2024-06-04T21:26:39Z</time>
      </trkpt>
      <trkpt lat="45.0848" lon="6.10374">
        <ele>1842</ele>
        <time>2024-06-04T21:26:45Z</time>
      </trkpt>
      <trkpt lat="45.08475" lon="6.10442">
        <ele>1834</ele>
        <time>2024-06-04T21:26:53Z</time>
      </trkpt>
      <trkpt lat="45.08477" lon="6.10456">
        <ele>1832</ele>
        <time>2024-06-04T21:26:55Z</time>
      </trkpt>
      <trkpt lat="45.08484" lon="6.10468">
        <ele>1834</ele>
        <time>2024-06-04T21:26:57Z</time>
      </trkpt>
      <trkpt lat="45.08492" lon="6.10487">
        <ele>1835</ele>
        <time>2024-06-04T21:27:00Z</time>
      </trkpt>
      <trkpt lat="45.08497" lon="6.10507">
        <ele>1834</ele>
        <time>2024-06-04T21:27:03Z</time>
      </trkpt>
      <trkpt lat="45.08518" lon="6.10554">
        <ele>1845</ele>
        <time>2024-06-04T21:27:10Z</time>
      </trkpt>
      <trkpt lat="45.0852" lon="6.10565">
        <ele>1845</ele>
        <time>2024-06-04T21:27:11Z</time>
      </trkpt>
      <trkpt lat="45.08517" lon="6.1058">
        <ele>1843</ele>
        <time>2024-06-04T21:27:13Z</time>
      </trkpt>
      <trkpt lat="45.08513" lon="6.10588">
        <ele>1843</ele>
        <time>2024-06-04T21:27:14Z</time>
      </trkpt>
      <trkpt lat="45.08506" lon="6.10592">
        <ele>1841</ele>
        <time>2024-06-04T21:27:16Z</time>
      </trkpt>
      <trkpt lat="45.08487" lon="6.10598">
        <ele>1834</ele>
        <time>2024-06-04T21:27:19Z</time>
      </trkpt>
      <trkpt lat="45.08452" lon="6.10605">
        <ele>1821</ele>
        <time>2024-06-04T21:27:25Z</time>
      </trkpt>
      <trkpt lat="45.0844" lon="6.10613">
        <ele>1818</ele>
        <time>2024-06-04T21:27:28Z</time>
      </trkpt>
      <trkpt lat="45.08425" lon="6.10625">
        <ele>1814</ele>
        <time>2024-06-04T21:27:31Z</time>
      </trkpt>
      <trkpt lat="45.08417" lon="6.10638">
        <ele>1814</ele>
        <time>2024-06-04T21:27:33Z</time>
      </trkpt>
      <trkpt lat="45.08413" lon="6.1065">
        <ele>1815</ele>
        <time>2024-06-04T21:27:35Z</time>
      </trkpt>
      <trkpt lat="45.08409" lon="6.10672">
        <ele>1819</ele>
        <time>2024-06-04T21:27:37Z</time>
      </trkpt>
      <trkpt lat="45.08403" lon="6.10689">
        <ele>1821</ele>
        <time>2024-06-04T21:27:40Z</time>
      </trkpt>
      <trkpt lat="45.08383" lon="6.1072">
        <ele>1821</ele>
        <time>2024-06-04T21:27:45Z</time>
      </trkpt>
      <trkpt lat="45.0837" lon="6.10727">
        <ele>1818</ele>
        <time>2024-06-04T21:27:48Z</time>
      </trkpt>
      <trkpt lat="45.08344" lon="6.10737">
        <ele>1811</ele>
        <time>2024-06-04T21:27:52Z</time>
      </trkpt>
      <trkpt lat="45.08327" lon="6.10748">
        <ele>1808</ele>
        <time>2024-06-04T21:27:56Z</time>
      </trkpt>
      <trkpt lat="45.08284" lon="6.10786">
        <ele>1801</ele>
        <time>2024-06-04T21:28:05Z</time>
      </trkpt>
      <trkpt lat="45.08249" lon="6.10828">
        <ele>1799</ele>
        <time>2024-06-04T21:28:13Z</time>
      </trkpt>
      <trkpt lat="45.08233" lon="6.10839">
        <ele>1796</ele>
        <time>2024-06-04T21:28:16Z</time>
      </trkpt>
      <trkpt lat="45.0822" lon="6.10854">
        <ele>1796</ele>
        <time>2024-06-04T21:28:19Z</time>
      </trkpt>
      <trkpt lat="45.08198" lon="6.10883">
        <ele>1799</ele>
        <time>2024-06-04T21:28:24Z</time>
      </trkpt>
      <trkpt lat="45.08181" lon="6.10895">
        <ele>1798</ele>
        <time>2024-06-04T21:28:28Z</time>
      </trkpt>
      <trkpt lat="45.08165" lon="6.10901">
        <ele>1795</ele>
        <time>2024-06-04T21:28:31Z</time>
      </trkpt>
      <trkpt lat="45.08142" lon="6.10903">
        <ele>1790</ele>
        <time>2024-06-04T21:28:35Z</time>
      </trkpt>
      <trkpt lat="45.08117" lon="6.10901">
        <ele>1782</ele>
        <time>2024-06-04T21:28:39Z</time>
      </trkpt>
      <trkpt lat="45.08091" lon="6.1091">
        <ele>1779</ele>
        <time>2024-06-04T21:28:44Z</time>
      </trkpt>
      <trkpt lat="45.08063" lon="6.10933">
        <ele>1776</ele>
        <time>2024-06-04T21:28:50Z</time>
      </trkpt>
      <trkpt lat="45.08031" lon="6.10968">
        <ele>1769</ele>
        <time>2024-06-04T21:28:57Z</time>
      </trkpt>
      <trkpt lat="45.08024" lon="6.10972">
        <ele>1766</ele>
        <time>2024-06-04T21:28:58Z</time>
      </trkpt>
      <trkpt lat="45.08018" lon="6.10979">
        <ele>1764</ele>
        <time>2024-06-04T21:29:00Z</time>
      </trkpt>
      <trkpt lat="45.08016" lon="6.10992">
        <ele>1766</ele>
        <time>2024-06-04T21:29:01Z</time>
      </trkpt>
      <trkpt lat="45.0802" lon="6.11059">
        <ele>1776</ele>
        <time>2024-06-04T21:29:10Z</time>
      </trkpt>
      <trkpt lat="45.08029" lon="6.11088">
        <ele>1784</ele>
        <time>2024-06-04T21:29:14Z</time>
      </trkpt>
      <trkpt lat="45.08031" lon="6.111">
        <ele>1785</ele>
        <time>2024-06-04T21:29:15Z</time>
      </trkpt>
      <trkpt lat="45.0803" lon="6.11134">
        <ele>1784</ele>
        <time>2024-06-04T21:29:20Z</time>
      </trkpt>
      <trkpt lat="45.08032" lon="6.11164">
        <ele>1784</ele>
        <time>2024-06-04T21:29:23Z</time>
      </trkpt>
      <trkpt lat="45.0803" lon="6.11226">
        <ele>1781</ele>
        <time>2024-06-04T21:29:31Z</time>
      </trkpt>
      <trkpt lat="45.08039" lon="6.11291">
        <ele>1789</ele>
        <time>2024-06-04T21:29:39Z</time>
      </trkpt>
      <trkpt lat="45.08022" lon="6.11359">
        <ele>1782</ele>
        <time>2024-06-04T21:29:49Z</time>
      </trkpt>
      <trkpt lat="45.08013" lon="6.11413">
        <ele>1782</ele>
        <time>2024-06-04T21:29:56Z</time>
      </trkpt>
      <trkpt lat="45.07997" lon="6.11446">
        <ele>1778</ele>
        <time>2024-06-04T21:30:01Z</time>
      </trkpt>
      <trkpt lat="45.07962" lon="6.11553">
        <ele>1772</ele>
        <time>2024-06-04T21:30:15Z</time>
      </trkpt>
      <trkpt lat="45.07941" lon="6.11638">
        <ele>1769</ele>
        <time>2024-06-04T21:30:27Z</time>
      </trkpt>
      <trkpt lat="45.07904" lon="6.11737">
        <ele>1761</ele>
        <time>2024-06-04T21:30:41Z</time>
      </trkpt>
      <trkpt lat="45.07895" lon="6.11799">
        <ele>1767</ele>
        <time>2024-06-04T21:30:49Z</time>
      </trkpt>
      <trkpt lat="45.07893" lon="6.1183">
        <ele>1770</ele>
        <time>2024-06-04T21:30:53Z</time>
      </trkpt>
      <trkpt lat="45.07877" lon="6.11891">
        <ele>1766</ele>
        <time>2024-06-04T21:31:01Z</time>
      </trkpt>
      <trkpt lat="45.07879" lon="6.11922">
        <ele>1768</ele>
        <time>2024-06-04T21:31:05Z</time>
      </trkpt>
      <trkpt lat="45.07893" lon="6.11993">
        <ele>1774</ele>
        <time>2024-06-04T21:31:14Z</time>
      </trkpt>
      <trkpt lat="45.07914" lon="6.12058">
        <ele>1781</ele>
        <time>2024-06-04T21:31:23Z</time>
      </trkpt>
      <trkpt lat="45.07923" lon="6.12101">
        <ele>1782</ele>
        <time>2024-06-04T21:31:29Z</time>
      </trkpt>
      <trkpt lat="45.07926" lon="6.12123">
        <ele>1780</ele>
        <time>2024-06-04T21:31:31Z</time>
      </trkpt>
      <trkpt lat="45.07926" lon="6.12163">
        <ele>1772</ele>
        <time>2024-06-04T21:31:36Z</time>
      </trkpt>
      <trkpt lat="45.07937" lon="6.12199">
        <ele>1778</ele>
        <time>2024-06-04T21:31:41Z</time>
      </trkpt>
      <trkpt lat="45.0794" lon="6.12235">
        <ele>1776</ele>
        <time>2024-06-04T21:31:46Z</time>
      </trkpt>
      <trkpt lat="45.07947" lon="6.1227">
        <ele>1779</ele>
        <time>2024-06-04T21:31:50Z</time>
      </trkpt>
      <trkpt lat="45.07955" lon="6.12301">
        <ele>1783</ele>
        <time>2024-06-04T21:31:55Z</time>
      </trkpt>
      <trkpt lat="45.07962" lon="6.12354">
        <ele>1783</ele>
        <time>2024-06-04T21:32:01Z</time>
      </trkpt>
      <trkpt lat="45.07965" lon="6.12371">
        <ele>1782</ele>
        <time>2024-06-04T21:32:04Z</time>
      </trkpt>
      <trkpt lat="45.07988" lon="6.12413">
        <ele>1786</ele>
        <time>2024-06-04T21:32:10Z</time>
      </trkpt>
      <trkpt lat="45.07999" lon="6.12431">
        <ele>1786</ele>
        <time>2024-06-04T21:32:13Z</time>
      </trkpt>
      <trkpt lat="45.08016" lon="6.12445">
        <ele>1794</ele>
        <time>2024-06-04T21:32:17Z</time>
      </trkpt>
      <trkpt lat="45.08024" lon="6.12456">
        <ele>1796</ele>
        <time>2024-06-04T21:32:19Z</time>
      </trkpt>
      <trkpt lat="45.08033" lon="6.12476">
        <ele>1796</ele>
        <time>2024-06-04T21:32:22Z</time>
      </trkpt>
      <trkpt lat="45.08064" lon="6.12525">
        <ele>1799</ele>
        <time>2024-06-04T21:32:30Z</time>
      </trkpt>
      <trkpt lat="45.08081" lon="6.12559">
        <ele>1796</ele>
        <time>2024-06-04T21:32:35Z</time>
      </trkpt>
      <trkpt lat="45.08095" lon="6.12582">
        <ele>1797</ele>
        <time>2024-06-04T21:32:39Z</time>
      </trkpt>
      <trkpt lat="45.08117" lon="6.12628">
        <ele>1803</ele>
        <time>2024-06-04T21:32:46Z</time>
      </trkpt>
      <trkpt lat="45.08138" lon="6.12662">
        <ele>1804</ele>
        <time>2024-06-04T21:32:52Z</time>
      </trkpt>
      <trkpt lat="45.0814" lon="6.1267">
        <ele>1804</ele>
        <time>2024-06-04T21:32:53Z</time>
      </trkpt>
      <trkpt lat="45.0814" lon="6.12694">
        <ele>1802</ele>
        <time>2024-06-04T21:32:56Z</time>
      </trkpt>
      <trkpt lat="45.0816" lon="6.12777">
        <ele>1802</ele>
        <time>2024-06-04T21:33:07Z</time>
      </trkpt>
      <trkpt lat="45.08167" lon="6.12798">
        <ele>1802</ele>
        <time>2024-06-04T21:33:10Z</time>
      </trkpt>
      <trkpt lat="45.08175" lon="6.12818">
        <ele>1807</ele>
        <time>2024-06-04T21:33:13Z</time>
      </trkpt>
      <trkpt lat="45.08182" lon="6.12863">
        <ele>1814</ele>
        <time>2024-06-04T21:33:18Z</time>
      </trkpt>
      <trkpt lat="45.08181" lon="6.12882">
        <ele>1815</ele>
        <time>2024-06-04T21:33:21Z</time>
      </trkpt>
      <trkpt lat="45.08181" lon="6.12905">
        <ele>1817</ele>
        <time>2024-06-04T21:33:24Z</time>
      </trkpt>
      <trkpt lat="45.08185" lon="6.12932">
        <ele>1822</ele>
        <time>2024-06-04T21:33:27Z</time>
      </trkpt>
      <trkpt lat="45.08184" lon="6.1295">
        <ele>1825</ele>
        <time>2024-06-04T21:33:29Z</time>
      </trkpt>
      <trkpt lat="45.0818" lon="6.12969">
        <ele>1826</ele>
        <time>2024-06-04T21:33:32Z</time>
      </trkpt>
      <trkpt lat="45.08157" lon="6.13016">
        <ele>1824</ele>
        <time>2024-06-04T21:33:39Z</time>
      </trkpt>
      <trkpt lat="45.08143" lon="6.13052">
        <ele>1827</ele>
        <time>2024-06-04T21:33:44Z</time>
      </trkpt>
      <trkpt lat="45.0814" lon="6.13068">
        <ele>1827</ele>
        <time>2024-06-04T21:33:46Z</time>
      </trkpt>
      <trkpt lat="45.08141" lon="6.13082">
        <ele>1828</ele>
        <time>2024-06-04T21:33:48Z</time>
      </trkpt>
      <trkpt lat="45.08144" lon="6.13099">
        <ele>1829</ele>
        <time>2024-06-04T21:33:50Z</time>
      </trkpt>
      <trkpt lat="45.08149" lon="6.13119">
        <ele>1831</ele>
        <time>2024-06-04T21:33:53Z</time>
      </trkpt>
      <trkpt lat="45.08157" lon="6.13135">
        <ele>1832</ele>
        <time>2024-06-04T21:33:55Z</time>
      </trkpt>
      <trkpt lat="45.08159" lon="6.13152">
        <ele>1832</ele>
        <time>2024-06-04T21:33:58Z</time>
      </trkpt>
      <trkpt lat="45.08153" lon="6.13167">
        <ele>1832</ele>
        <time>2024-06-04T21:34:00Z</time>
      </trkpt>
      <trkpt lat="45.08138" lon="6.1318">
        <ele>1833</ele>
        <time>2024-06-04T21:34:03Z</time>
      </trkpt>
      <trkpt lat="45.08115" lon="6.132">
        <ele>1835</ele>
        <time>2024-06-04T21:34:08Z</time>
      </trkpt>
      <trkpt lat="45.08095" lon="6.13213">
        <ele>1836</ele>
        <time>2024-06-04T21:34:12Z</time>
      </trkpt>
      <trkpt lat="45.08082" lon="6.13216">
        <ele>1836</ele>
        <time>2024-06-04T21:34:14Z</time>
      </trkpt>
      <trkpt lat="45.08066" lon="6.13215">
        <ele>1838</ele>
        <time>2024-06-04T21:34:17Z</time>
      </trkpt>
      <trkpt lat="45.08053" lon="6.13206">
        <ele>1840</ele>
        <time>2024-06-04T21:34:19Z</time>
      </trkpt>
      <trkpt lat="45.08038" lon="6.13187">
        <ele>1841</ele>
        <time>2024-06-04T21:34:23Z</time>
      </trkpt>
      <trkpt lat="45.08019" lon="6.13149">
        <ele>1842</ele>
        <time>2024-06-04T21:34:29Z</time>
      </trkpt>
      <trkpt lat="45.08013" lon="6.13133">
        <ele>1843</ele>
        <time>2024-06-04T21:34:31Z</time>
      </trkpt>
      <trkpt lat="45.0801" lon="6.13117">
        <ele>1844</ele>
        <time>2024-06-04T21:34:33Z</time>
      </trkpt>
      <trkpt lat="45.08009" lon="6.13095">
        <ele>1844</ele>
        <time>2024-06-04T21:34:36Z</time>
      </trkpt>
      <trkpt lat="45.08005" lon="6.13088">
        <ele>1845</ele>
        <time>2024-06-04T21:34:37Z</time>
      </trkpt>
      <trkpt lat="45.08" lon="6.13087">
        <ele>1846</ele>
        <time>2024-06-04T21:34:38Z</time>
      </trkpt>
      <trkpt lat="45.07996" lon="6.13089">
        <ele>1847</ele>
        <time>2024-06-04T21:34:39Z</time>
      </trkpt>
      <trkpt lat="45.07994" lon="6.13093">
        <ele>1848</ele>
        <time>2024-06-04T21:34:39Z</time>
      </trkpt>
      <trkpt lat="45.0798" lon="6.13138">
        <ele>1853</ele>
        <time>2024-06-04T21:34:45Z</time>
      </trkpt>
      <trkpt lat="45.0797" lon="6.13179">
        <ele>1856</ele>
        <time>2024-06-04T21:34:51Z</time>
      </trkpt>
      <trkpt lat="45.07966" lon="6.1322">
        <ele>1860</ele>
        <time>2024-06-04T21:34:56Z</time>
      </trkpt>
      <trkpt lat="45.07967" lon="6.13244">
        <ele>1861</ele>
        <time>2024-06-04T21:34:59Z</time>
      </trkpt>
      <trkpt lat="45.07975" lon="6.13272">
        <ele>1863</ele>
        <time>2024-06-04T21:35:03Z</time>
      </trkpt>
      <trkpt lat="45.07999" lon="6.1333">
        <ele>1865</ele>
        <time>2024-06-04T21:35:11Z</time>
      </trkpt>
      <trkpt lat="45.0803" lon="6.13441">
        <ele>1876</ele>
        <time>2024-06-04T21:35:26Z</time>
      </trkpt>
      <trkpt lat="45.08061" lon="6.13542">
        <ele>1886</ele>
        <time>2024-06-04T21:35:40Z</time>
      </trkpt>
      <trkpt lat="45.08065" lon="6.1356">
        <ele>1888</ele>
        <time>2024-06-04T21:35:43Z</time>
      </trkpt>
      <trkpt lat="45.08068" lon="6.13585">
        <ele>1891</ele>
        <time>2024-06-04T21:35:46Z</time>
      </trkpt>
      <trkpt lat="45.08073" lon="6.13706">
        <ele>1896</ele>
        <time>2024-06-04T21:36:01Z</time>
      </trkpt>
      <trkpt lat="45.08091" lon="6.13853">
        <ele>1911</ele>
        <time>2024-06-04T21:36:20Z</time>
      </trkpt>
      <trkpt lat="45.081" lon="6.1389">
        <ele>1914</ele>
        <time>2024-06-04T21:36:25Z</time>
      </trkpt>
      <trkpt lat="45.08146" lon="6.14041">
        <ele>1922</ele>
        <time>2024-06-04T21:36:45Z</time>
      </trkpt>
      <trkpt lat="45.08153" lon="6.14052">
        <ele>1920</ele>
        <time>2024-06-04T21:36:47Z</time>
      </trkpt>
      <trkpt lat="45.0816" lon="6.14068">
        <ele>1918</ele>
        <time>2024-06-04T21:36:50Z</time>
      </trkpt>
      <trkpt lat="45.08173" lon="6.14118">
        <ele>1923</ele>
        <time>2024-06-04T21:36:56Z</time>
      </trkpt>
      <trkpt lat="45.08189" lon="6.14196">
        <ele>1939</ele>
        <time>2024-06-04T21:37:06Z</time>
      </trkpt>
      <trkpt lat="45.08202" lon="6.14224">
        <ele>1943</ele>
        <time>2024-06-04T21:37:11Z</time>
      </trkpt>
      <trkpt lat="45.0822" lon="6.14255">
        <ele>1946</ele>
        <time>2024-06-04T21:37:16Z</time>
      </trkpt>
      <trkpt lat="45.08248" lon="6.14295">
        <ele>1943</ele>
        <time>2024-06-04T21:37:23Z</time>
      </trkpt>
      <trkpt lat="45.08276" lon="6.14347">
        <ele>1950</ele>
        <time>2024-06-04T21:37:31Z</time>
      </trkpt>
      <trkpt lat="45.08334" lon="6.14431">
        <ele>1955</ele>
        <time>2024-06-04T21:37:46Z</time>
      </trkpt>
      <trkpt lat="45.08417" lon="6.14575">
        <ele>1969</ele>
        <time>2024-06-04T21:38:09Z</time>
      </trkpt>
      <trkpt lat="45.08457" lon="6.14631">
        <ele>1977</ele>
        <time>2024-06-04T21:38:19Z</time>
      </trkpt>
      <trkpt lat="45.08504" lon="6.147">
        <ele>1982</ele>
        <time>2024-06-04T21:38:31Z</time>
      </trkpt>
      <trkpt lat="45.08523" lon="6.14724">
        <ele>1984</ele>
        <time>2024-06-04T21:38:36Z</time>
      </trkpt>
      <trkpt lat="45.08554" lon="6.1475">
        <ele>1985</ele>
        <time>2024-06-04T21:38:42Z</time>
      </trkpt>
      <trkpt lat="45.08578" lon="6.14777">
        <ele>1986</ele>
        <time>2024-06-04T21:38:48Z</time>
      </trkpt>
      <trkpt lat="45.08596" lon="6.14805">
        <ele>1988</ele>
        <time>2024-06-04T21:38:52Z</time>
      </trkpt>
      <trkpt lat="45.08628" lon="6.14846">
        <ele>1991</ele>
        <time>2024-06-04T21:39:00Z</time>
      </trkpt>
      <trkpt lat="45.08651" lon="6.14867">
        <ele>1990</ele>
        <time>2024-06-04T21:39:05Z</time>
      </trkpt>
      <trkpt lat="45.08665" lon="6.14878">
        <ele>1989</ele>
        <time>2024-06-04T21:39:08Z</time>
      </trkpt>
      <trkpt lat="45.08686" lon="6.14889">
        <ele>1989</ele>
        <time>2024-06-04T21:39:12Z</time>
      </trkpt>
      <trkpt lat="45.08729" lon="6.14901">
        <ele>1988</ele>
        <time>2024-06-04T21:39:20Z</time>
      </trkpt>
      <trkpt lat="45.08736" lon="6.14904">
        <ele>1988</ele>
        <time>2024-06-04T21:39:21Z</time>
      </trkpt>
      <trkpt lat="45.08752" lon="6.14905">
        <ele>1988</ele>
        <time>2024-06-04T21:39:24Z</time>
      </trkpt>
      <trkpt lat="45.08783" lon="6.14909">
        <ele>1990</ele>
        <time>2024-06-04T21:39:29Z</time>
      </trkpt>
      <trkpt lat="45.08803" lon="6.14917">
        <ele>1991</ele>
        <time>2024-06-04T21:39:33Z</time>
      </trkpt>
      <trkpt lat="45.08848" lon="6.14938">
        <ele>1986</ele>
        <time>2024-06-04T21:39:41Z</time>
      </trkpt>
      <trkpt lat="45.08866" lon="6.14941">
        <ele>1983</ele>
        <time>2024-06-04T21:39:45Z</time>
      </trkpt>
      <trkpt lat="45.08879" lon="6.1494">
        <ele>1982</ele>
        <time>2024-06-04T21:39:47Z</time>
      </trkpt>
      <trkpt lat="45.0889" lon="6.14926">
        <ele>1985</ele>
        <time>2024-06-04T21:39:50Z</time>
      </trkpt>
      <trkpt lat="45.08901" lon="6.14917">
        <ele>1985</ele>
        <time>2024-06-04T21:39:52Z</time>
      </trkpt>
      <trkpt lat="45.08922" lon="6.14917">
        <ele>1982</ele>
        <time>2024-06-04T21:39:56Z</time>
      </trkpt>
      <trkpt lat="45.08948" lon="6.14926">
        <ele>1975</ele>
        <time>2024-06-04T21:40:00Z</time>
      </trkpt>
      <trkpt lat="45.08962" lon="6.14921">
        <ele>1974</ele>
        <time>2024-06-04T21:40:03Z</time>
      </trkpt>
      <trkpt lat="45.08982" lon="6.14901">
        <ele>1976</ele>
        <time>2024-06-04T21:40:07Z</time>
      </trkpt>
      <trkpt lat="45.09002" lon="6.14888">
        <ele>1978</ele>
        <time>2024-06-04T21:40:11Z</time>
      </trkpt>
      <trkpt lat="45.09031" lon="6.14865">
        <ele>1983</ele>
        <time>2024-06-04T21:40:17Z</time>
      </trkpt>
      <trkpt lat="45.09037" lon="6.14864">
        <ele>1982</ele>
        <time>2024-06-04T21:40:18Z</time>
      </trkpt>
      <trkpt lat="45.0904" lon="6.14867">
        <ele>1981</ele>
        <time>2024-06-04T21:40:19Z</time>
      </trkpt>
      <trkpt lat="45.0904" lon="6.14874">
        <ele>1978</ele>
        <time>2024-06-04T21:40:20Z</time>
      </trkpt>
      <trkpt lat="45.09036" lon="6.14881">
        <ele>1976</ele>
        <time>2024-06-04T21:40:21Z</time>
      </trkpt>
      <trkpt lat="45.09006" lon="6.14909">
        <ele>1969</ele>
        <time>2024-06-04T21:40:27Z</time>
      </trkpt>
      <trkpt lat="45.08997" lon="6.14923">
        <ele>1967</ele>
        <time>2024-06-04T21:40:30Z</time>
      </trkpt>
      <trkpt lat="45.08993" lon="6.14937">
        <ele>1965</ele>
        <time>2024-06-04T21:40:31Z</time>
      </trkpt>
      <trkpt lat="45.08994" lon="6.14944">
        <ele>1964</ele>
        <time>2024-06-04T21:40:32Z</time>
      </trkpt>
      <trkpt lat="45.08996" lon="6.1495">
        <ele>1962</ele>
        <time>2024-06-04T21:40:33Z</time>
      </trkpt>
      <trkpt lat="45.09002" lon="6.14954">
        <ele>1960</ele>
        <time>2024-06-04T21:40:34Z</time>
      </trkpt>
      <trkpt lat="45.09008" lon="6.14948">
        <ele>1959</ele>
        <time>2024-06-04T21:40:36Z</time>
      </trkpt>
      <trkpt lat="45.09019" lon="6.14928">
        <ele>1962</ele>
        <time>2024-06-04T21:40:39Z</time>
      </trkpt>
      <trkpt lat="45.09025" lon="6.14918">
        <ele>1963</ele>
        <time>2024-06-04T21:40:40Z</time>
      </trkpt>
      <trkpt lat="45.09039" lon="6.14911">
        <ele>1964</ele>
        <time>2024-06-04T21:40:43Z</time>
      </trkpt>
      <trkpt lat="45.09066" lon="6.14907">
        <ele>1962</ele>
        <time>2024-06-04T21:40:48Z</time>
      </trkpt>
      <trkpt lat="45.09086" lon="6.14895">
        <ele>1965</ele>
        <time>2024-06-04T21:40:52Z</time>
      </trkpt>
      <trkpt lat="45.09104" lon="6.149">
        <ele>1967</ele>
        <time>2024-06-04T21:40:55Z</time>
      </trkpt>
      <trkpt lat="45.09121" lon="6.14914">
        <ele>1964</ele>
        <time>2024-06-04T21:40:59Z</time>
      </trkpt>
      <trkpt lat="45.09136" lon="6.14932">
        <ele>1958</ele>
        <time>2024-06-04T21:41:02Z</time>
      </trkpt>
      <trkpt lat="45.09145" lon="6.14948">
        <ele>1951</ele>
        <time>2024-06-04T21:41:05Z</time>
      </trkpt>
      <trkpt lat="45.09161" lon="6.14958">
        <ele>1949</ele>
        <time>2024-06-04T21:41:08Z</time>
      </trkpt>
      <trkpt lat="45.09171" lon="6.14973">
        <ele>1945</ele>
        <time>2024-06-04T21:41:10Z</time>
      </trkpt>
      <trkpt lat="45.09188" lon="6.15016">
        <ele>1930</ele>
        <time>2024-06-04T21:41:17Z</time>
      </trkpt>
      <trkpt lat="45.09193" lon="6.15032">
        <ele>1924</ele>
        <time>2024-06-04T21:41:19Z</time>
      </trkpt>
      <trkpt lat="45.092" lon="6.15044">
        <ele>1921</ele>
        <time>2024-06-04T21:41:21Z</time>
      </trkpt>
      <trkpt lat="45.0921" lon="6.15046">
        <ele>1923</ele>
        <time>2024-06-04T21:41:22Z</time>
      </trkpt>
      <trkpt lat="45.09222" lon="6.15051">
        <ele>1923</ele>
        <time>2024-06-04T21:41:25Z</time>
      </trkpt>
      <trkpt lat="45.09232" lon="6.1506">
        <ele>1921</ele>
        <time>2024-06-04T21:41:27Z</time>
      </trkpt>
      <trkpt lat="45.09239" lon="6.15064">
        <ele>1920</ele>
        <time>2024-06-04T21:41:28Z</time>
      </trkpt>
      <trkpt lat="45.0926" lon="6.15064">
        <ele>1925</ele>
        <time>2024-06-04T21:41:32Z</time>
      </trkpt>
      <trkpt lat="45.09271" lon="6.1506">
        <ele>1930</ele>
        <time>2024-06-04T21:41:34Z</time>
      </trkpt>
      <trkpt lat="45.09285" lon="6.15061">
        <ele>1932</ele>
        <time>2024-06-04T21:41:36Z</time>
      </trkpt>
      <trkpt lat="45.09294" lon="6.15072">
        <ele>1926</ele>
        <time>2024-06-04T21:41:39Z</time>
      </trkpt>
      <trkpt lat="45.09304" lon="6.15095">
        <ele>1914</ele>
        <time>2024-06-04T21:41:42Z</time>
      </trkpt>
      <trkpt lat="45.09312" lon="6.15095">
        <ele>1916</ele>
        <time>2024-06-04T21:41:43Z</time>
      </trkpt>
      <trkpt lat="45.09326" lon="6.15084">
        <ele>1924</ele>
        <time>2024-06-04T21:41:46Z</time>
      </trkpt>
      <trkpt lat="45.09334" lon="6.15083">
        <ele>1926</ele>
        <time>2024-06-04T21:41:48Z</time>
      </trkpt>
      <trkpt lat="45.09341" lon="6.15092">
        <ele>1922</ele>
        <time>2024-06-04T21:41:49Z</time>
      </trkpt>
      <trkpt lat="45.09346" lon="6.15108">
        <ele>1914</ele>
        <time>2024-06-04T21:41:52Z</time>
      </trkpt>
      <trkpt lat="45.09352" lon="6.1512">
        <ele>1908</ele>
        <time>2024-06-04T21:41:53Z</time>
      </trkpt>
      <trkpt lat="45.09359" lon="6.15125">
        <ele>1906</ele>
        <time>2024-06-04T21:41:55Z</time>
      </trkpt>
      <trkpt lat="45.09367" lon="6.15122">
        <ele>1909</ele>
        <time>2024-06-04T21:41:56Z</time>
      </trkpt>
      <trkpt lat="45.09379" lon="6.15108">
        <ele>1919</ele>
        <time>2024-06-04T21:41:59Z</time>
      </trkpt>
      <trkpt lat="45.09385" lon="6.15106">
        <ele>1921</ele>
        <time>2024-06-04T21:42:00Z</time>
      </trkpt>
      <trkpt lat="45.09397" lon="6.15116">
        <ele>1918</ele>
        <time>2024-06-04T21:42:03Z</time>
      </trkpt>
      <trkpt lat="45.09414" lon="6.15143">
        <ele>1906</ele>
        <time>2024-06-04T21:42:07Z</time>
      </trkpt>
      <trkpt lat="45.09429" lon="6.1515">
        <ele>1906</ele>
        <time>2024-06-04T21:42:10Z</time>
      </trkpt>
      <trkpt lat="45.09453" lon="6.15155">
        <ele>1911</ele>
        <time>2024-06-04T21:42:14Z</time>
      </trkpt>
      <trkpt lat="45.09462" lon="6.15162">
        <ele>1909</ele>
        <time>2024-06-04T21:42:16Z</time>
      </trkpt>
      <trkpt lat="45.09471" lon="6.15173">
        <ele>1905</ele>
        <time>2024-06-04T21:42:18Z</time>
      </trkpt>
      <trkpt lat="45.09481" lon="6.15183">
        <ele>1902</ele>
        <time>2024-06-04T21:42:20Z</time>
      </trkpt>
      <trkpt lat="45.09507" lon="6.15186">
        <ele>1907</ele>
        <time>2024-06-04T21:42:25Z</time>
      </trkpt>
      <trkpt lat="45.09525" lon="6.15204">
        <ele>1902</ele>
        <time>2024-06-04T21:42:29Z</time>
      </trkpt>
      <trkpt lat="45.09552" lon="6.15239">
        <ele>1892</ele>
        <time>2024-06-04T21:42:35Z</time>
      </trkpt>
      <trkpt lat="45.09572" lon="6.15262">
        <ele>1889</ele>
        <time>2024-06-04T21:42:40Z</time>
      </trkpt>
      <trkpt lat="45.09591" lon="6.15288">
        <ele>1886</ele>
        <time>2024-06-04T21:42:45Z</time>
      </trkpt>
      <trkpt lat="45.09605" lon="6.15316">
        <ele>1880</ele>
        <time>2024-06-04T21:42:49Z</time>
      </trkpt>
      <trkpt lat="45.09645" lon="6.15355">
        <ele>1880</ele>
        <time>2024-06-04T21:42:58Z</time>
      </trkpt>
      <trkpt lat="45.09662" lon="6.15367">
        <ele>1882</ele>
        <time>2024-06-04T21:43:01Z</time>
      </trkpt>
      <trkpt lat="45.09684" lon="6.15396">
        <ele>1879</ele>
        <time>2024-06-04T21:43:06Z</time>
      </trkpt>
      <trkpt lat="45.0971" lon="6.15419">
        <ele>1879</ele>
        <time>2024-06-04T21:43:12Z</time>
      </trkpt>
      <trkpt lat="45.0973" lon="6.1543">
        <ele>1881</ele>
        <time>2024-06-04T21:43:16Z</time>
      </trkpt>
      <trkpt lat="45.09735" lon="6.15437">
        <ele>1879</ele>
        <time>2024-06-04T21:43:17Z</time>
      </trkpt>
      <trkpt lat="45.09735" lon="6.15444">
        <ele>1875</ele>
        <time>2024-06-04T21:43:18Z</time>
      </trkpt>
      <trkpt lat="45.09733" lon="6.1545">
        <ele>1871</ele>
        <time>2024-06-04T21:43:19Z</time>
      </trkpt>
      <trkpt lat="45.09728" lon="6.15452">
        <ele>1869</ele>
        <time>2024-06-04T21:43:20Z</time>
      </trkpt>
      <trkpt lat="45.09696" lon="6.15431">
        <ele>1869</ele>
        <time>2024-06-04T21:43:26Z</time>
      </trkpt>
      <trkpt lat="45.0967" lon="6.15418">
        <ele>1866</ele>
        <time>2024-06-04T21:43:31Z</time>
      </trkpt>
      <trkpt lat="45.09639" lon="6.15392">
        <ele>1865</ele>
        <time>2024-06-04T21:43:37Z</time>
      </trkpt>
      <trkpt lat="45.09592" lon="6.15365">
        <ele>1857</ele>
        <time>2024-06-04T21:43:46Z</time>
      </trkpt>
      <trkpt lat="45.09528" lon="6.15341">
        <ele>1846</ele>
        <time>2024-06-04T21:43:58Z</time>
      </trkpt>
      <trkpt lat="45.09441" lon="6.15302">
        <ele>1834</ele>
        <time>2024-06-04T21:44:14Z</time>
      </trkpt>
      <trkpt lat="45.09413" lon="6.15292">
        <ele>1830</ele>
        <time>2024-06-04T21:44:19Z</time>
      </trkpt>
      <trkpt lat="45.09398" lon="6.15281">
        <ele>1832</ele>
        <time>2024-06-04T21:44:22Z</time>
      </trkpt>
      <trkpt lat="45.09385" lon="6.15277">
        <ele>1831</ele>
        <time>2024-06-04T21:44:25Z</time>
      </trkpt>
      <trkpt lat="45.09359" lon="6.15275">
        <ele>1826</ele>
        <time>2024-06-04T21:44:29Z</time>
      </trkpt>
      <trkpt lat="45.09307" lon="6.15261">
        <ele>1823</ele>
        <time>2024-06-04T21:44:39Z</time>
      </trkpt>
      <trkpt lat="45.09299" lon="6.15261">
        <ele>1822</ele>
        <time>2024-06-04T21:44:40Z</time>
      </trkpt>
      <trkpt lat="45.09295" lon="6.15264">
        <ele>1820</ele>
        <time>2024-06-04T21:44:41Z</time>
      </trkpt>
      <trkpt lat="45.09296" lon="6.15272">
        <ele>1817</ele>
        <time>2024-06-04T21:44:42Z</time>
      </trkpt>
      <trkpt lat="45.09301" lon="6.15276">
        <ele>1816</ele>
        <time>2024-06-04T21:44:43Z</time>
      </trkpt>
      <trkpt lat="45.09324" lon="6.15279">
        <ele>1818</ele>
        <time>2024-06-04T21:44:47Z</time>
      </trkpt>
      <trkpt lat="45.09335" lon="6.15287">
        <ele>1816</ele>
        <time>2024-06-04T21:44:49Z</time>
      </trkpt>
      <trkpt lat="45.09378" lon="6.15323">
        <ele>1810</ele>
        <time>2024-06-04T21:44:58Z</time>
      </trkpt>
      <trkpt lat="45.09388" lon="6.15332">
        <ele>1809</ele>
        <time>2024-06-04T21:45:00Z</time>
      </trkpt>
      <trkpt lat="45.09447" lon="6.15414">
        <ele>1795</ele>
        <time>2024-06-04T21:45:15Z</time>
      </trkpt>
      <trkpt lat="45.09478" lon="6.15444">
        <ele>1793</ele>
        <time>2024-06-04T21:45:22Z</time>
      </trkpt>
      <trkpt lat="45.09489" lon="6.1546">
        <ele>1790</ele>
        <time>2024-06-04T21:45:25Z</time>
      </trkpt>
      <trkpt lat="45.09546" lon="6.15506">
        <ele>1789</ele>
        <time>2024-06-04T21:45:36Z</time>
      </trkpt>
      <trkpt lat="45.09567" lon="6.15536">
        <ele>1785</ele>
        <time>2024-06-04T21:45:41Z</time>
      </trkpt>
      <trkpt lat="45.09595" lon="6.15592">
        <ele>1773</ele>
        <time>2024-06-04T21:45:50Z</time>
      </trkpt>
      <trkpt lat="45.09615" lon="6.15614">
        <ele>1770</ele>
        <time>2024-06-04T21:45:55Z</time>
      </trkpt>
      <trkpt lat="45.0963" lon="6.15625">
        <ele>1770</ele>
        <time>2024-06-04T21:45:58Z</time>
      </trkpt>
      <trkpt lat="45.09651" lon="6.15636">
        <ele>1770</ele>
        <time>2024-06-04T21:46:02Z</time>
      </trkpt>
      <trkpt lat="45.09685" lon="6.15643">
        <ele>1774</ele>
        <time>2024-06-04T21:46:08Z</time>
      </trkpt>
      <trkpt lat="45.09698" lon="6.1565">
        <ele>1773</ele>
        <time>2024-06-04T21:46:10Z</time>
      </trkpt>
      <trkpt lat="45.09752" lon="6.15688">
        <ele>1766</ele>
        <time>2024-06-04T21:46:21Z</time>
      </trkpt>
      <trkpt lat="45.09769" lon="6.15706">
        <ele>1762</ele>
        <time>2024-06-04T21:46:25Z</time>
      </trkpt>
      <trkpt lat="45.09794" lon="6.15745">
        <ele>1750</ele>
        <time>2024-06-04T21:46:31Z</time>
      </trkpt>
      <trkpt lat="45.09819" lon="6.15769">
        <ele>1749</ele>
        <time>2024-06-04T21:46:37Z</time>
      </trkpt>
      <trkpt lat="45.09831" lon="6.15785">
        <ele>1747</ele>
        <time>2024-06-04T21:46:40Z</time>
      </trkpt>
      <trkpt lat="45.09838" lon="6.15794">
        <ele>1746</ele>
        <time>2024-06-04T21:46:41Z</time>
      </trkpt>
      <trkpt lat="45.09863" lon="6.1583">
        <ele>1740</ele>
        <time>2024-06-04T21:46:48Z</time>
      </trkpt>
      <trkpt lat="45.09868" lon="6.15859">
        <ele>1733</ele>
        <time>2024-06-04T21:46:51Z</time>
      </trkpt>
      <trkpt lat="45.09874" lon="6.15875">
        <ele>1730</ele>
        <time>2024-06-04T21:46:54Z</time>
      </trkpt>
      <trkpt lat="45.09881" lon="6.15886">
        <ele>1728</ele>
        <time>2024-06-04T21:46:56Z</time>
      </trkpt>
      <trkpt lat="45.09898" lon="6.15889">
        <ele>1732</ele>
        <time>2024-06-04T21:46:59Z</time>
      </trkpt>
      <trkpt lat="45.09912" lon="6.15896">
        <ele>1733</ele>
        <time>2024-06-04T21:47:01Z</time>
      </trkpt>
      <trkpt lat="45.09977" lon="6.15975">
        <ele>1724</ele>
        <time>2024-06-04T21:47:16Z</time>
      </trkpt>
      <trkpt lat="45.0999" lon="6.15983">
        <ele>1725</ele>
        <time>2024-06-04T21:47:19Z</time>
      </trkpt>
      <trkpt lat="45.1" lon="6.15987">
        <ele>1726</ele>
        <time>2024-06-04T21:47:21Z</time>
      </trkpt>
      <trkpt lat="45.10006" lon="6.15994">
        <ele>1726</ele>
        <time>2024-06-04T21:47:22Z</time>
      </trkpt>
      <trkpt lat="45.10011" lon="6.16003">
        <ele>1725</ele>
        <time>2024-06-04T21:47:24Z</time>
      </trkpt>
      <trkpt lat="45.1001" lon="6.16013">
        <ele>1721</ele>
        <time>2024-06-04T21:47:25Z</time>
      </trkpt>
      <trkpt lat="45.10006" lon="6.16018">
        <ele>1718</ele>
        <time>2024-06-04T21:47:26Z</time>
      </trkpt>
      <trkpt lat="45.10002" lon="6.16019">
        <ele>1717</ele>
        <time>2024-06-04T21:47:27Z</time>
      </trkpt>
      <trkpt lat="45.09985" lon="6.16006">
        <ele>1718</ele>
        <time>2024-06-04T21:47:30Z</time>
      </trkpt>
      <trkpt lat="45.09953" lon="6.15994">
        <ele>1714</ele>
        <time>2024-06-04T21:47:36Z</time>
      </trkpt>
      <trkpt lat="45.09935" lon="6.15983">
        <ele>1714</ele>
        <time>2024-06-04T21:47:39Z</time>
      </trkpt>
      <trkpt lat="45.09928" lon="6.15981">
        <ele>1713</ele>
        <time>2024-06-04T21:47:41Z</time>
      </trkpt>
      <trkpt lat="45.09921" lon="6.15987">
        <ele>1709</ele>
        <time>2024-06-04T21:47:42Z</time>
      </trkpt>
      <trkpt lat="45.09919" lon="6.15995">
        <ele>1707</ele>
        <time>2024-06-04T21:47:43Z</time>
      </trkpt>
      <trkpt lat="45.09922" lon="6.16">
        <ele>1706</ele>
        <time>2024-06-04T21:47:44Z</time>
      </trkpt>
      <trkpt lat="45.0993" lon="6.16006">
        <ele>1706</ele>
        <time>2024-06-04T21:47:46Z</time>
      </trkpt>
      <trkpt lat="45.09943" lon="6.16009">
        <ele>1708</ele>
        <time>2024-06-04T21:47:48Z</time>
      </trkpt>
      <trkpt lat="45.09964" lon="6.16033">
        <ele>1705</ele>
        <time>2024-06-04T21:47:53Z</time>
      </trkpt>
      <trkpt lat="45.09991" lon="6.1605">
        <ele>1705</ele>
        <time>2024-06-04T21:47:58Z</time>
      </trkpt>
      <trkpt lat="45.09995" lon="6.16054">
        <ele>1705</ele>
        <time>2024-06-04T21:47:59Z</time>
      </trkpt>
      <trkpt lat="45.09996" lon="6.1606">
        <ele>1703</ele>
        <time>2024-06-04T21:48:00Z</time>
      </trkpt>
      <trkpt lat="45.09993" lon="6.16066">
        <ele>1700</ele>
        <time>2024-06-04T21:48:01Z</time>
      </trkpt>
      <trkpt lat="45.09989" lon="6.16067">
        <ele>1699</ele>
        <time>2024-06-04T21:48:01Z</time>
      </trkpt>
      <trkpt lat="45.09955" lon="6.16049">
        <ele>1698</ele>
        <time>2024-06-04T21:48:08Z</time>
      </trkpt>
      <trkpt lat="45.09934" lon="6.16042">
        <ele>1696</ele>
        <time>2024-06-04T21:48:12Z</time>
      </trkpt>
      <trkpt lat="45.09913" lon="6.16047">
        <ele>1691</ele>
        <time>2024-06-04T21:48:15Z</time>
      </trkpt>
      <trkpt lat="45.09887" lon="6.16059">
        <ele>1682</ele>
        <time>2024-06-04T21:48:20Z</time>
      </trkpt>
      <trkpt lat="45.09874" lon="6.16061">
        <ele>1678</ele>
        <time>2024-06-04T21:48:23Z</time>
      </trkpt>
      <trkpt lat="45.09859" lon="6.16049">
        <ele>1678</ele>
        <time>2024-06-04T21:48:26Z</time>
      </trkpt>
      <trkpt lat="45.09854" lon="6.16049">
        <ele>1677</ele>
        <time>2024-06-04T21:48:27Z</time>
      </trkpt>
      <trkpt lat="45.09852" lon="6.16056">
        <ele>1675</ele>
        <time>2024-06-04T21:48:27Z</time>
      </trkpt>
      <trkpt lat="45.09854" lon="6.16062">
        <ele>1674</ele>
        <time>2024-06-04T21:48:28Z</time>
      </trkpt>
      <trkpt lat="45.09858" lon="6.16067">
        <ele>1673</ele>
        <time>2024-06-04T21:48:29Z</time>
      </trkpt>
      <trkpt lat="45.09889" lon="6.16082">
        <ele>1675</ele>
        <time>2024-06-04T21:48:35Z</time>
      </trkpt>
      <trkpt lat="45.09901" lon="6.16095">
        <ele>1675</ele>
        <time>2024-06-04T21:48:38Z</time>
      </trkpt>
      <trkpt lat="45.09911" lon="6.16115">
        <ele>1673</ele>
        <time>2024-06-04T21:48:41Z</time>
      </trkpt>
      <trkpt lat="45.09924" lon="6.16135">
        <ele>1671</ele>
        <time>2024-06-04T21:48:44Z</time>
      </trkpt>
      <trkpt lat="45.09945" lon="6.16156">
        <ele>1669</ele>
        <time>2024-06-04T21:48:49Z</time>
      </trkpt>
      <trkpt lat="45.09956" lon="6.16165">
        <ele>1668</ele>
        <time>2024-06-04T21:48:51Z</time>
      </trkpt>
      <trkpt lat="45.09977" lon="6.16171">
        <ele>1669</ele>
        <time>2024-06-04T21:48:55Z</time>
      </trkpt>
      <trkpt lat="45.0998" lon="6.16178">
        <ele>1668</ele>
        <time>2024-06-04T21:48:56Z</time>
      </trkpt>
      <trkpt lat="45.09979" lon="6.16187">
        <ele>1666</ele>
        <time>2024-06-04T21:48:57Z</time>
      </trkpt>
      <trkpt lat="45.09975" lon="6.16191">
        <ele>1664</ele>
        <time>2024-06-04T21:48:58Z</time>
      </trkpt>
      <trkpt lat="45.09952" lon="6.16188">
        <ele>1663</ele>
        <time>2024-06-04T21:49:02Z</time>
      </trkpt>
      <trkpt lat="45.09941" lon="6.16192">
        <ele>1661</ele>
        <time>2024-06-04T21:49:04Z</time>
      </trkpt>
      <trkpt lat="45.09903" lon="6.16217">
        <ele>1652</ele>
        <time>2024-06-04T21:49:12Z</time>
      </trkpt>
      <trkpt lat="45.09892" lon="6.1622">
        <ele>1649</ele>
        <time>2024-06-04T21:49:14Z</time>
      </trkpt>
      <trkpt lat="45.0988" lon="6.16219">
        <ele>1646</ele>
        <time>2024-06-04T21:49:16Z</time>
      </trkpt>
      <trkpt lat="45.09869" lon="6.16216">
        <ele>1645</ele>
        <time>2024-06-04T21:49:18Z</time>
      </trkpt>
      <trkpt lat="45.09859" lon="6.1621">
        <ele>1644</ele>
        <time>2024-06-04T21:49:20Z</time>
      </trkpt>
      <trkpt lat="45.09834" lon="6.16185">
        <ele>1644</ele>
        <time>2024-06-04T21:49:25Z</time>
      </trkpt>
      <trkpt lat="45.09829" lon="6.16171">
        <ele>1645</ele>
        <time>2024-06-04T21:49:27Z</time>
      </trkpt>
      <trkpt lat="45.09819" lon="6.16122">
        <ele>1651</ele>
        <time>2024-06-04T21:49:33Z</time>
      </trkpt>
      <trkpt lat="45.09814" lon="6.16115">
        <ele>1650</ele>
        <time>2024-06-04T21:49:35Z</time>
      </trkpt>
      <trkpt lat="45.09809" lon="6.16115">
        <ele>1649</ele>
        <time>2024-06-04T21:49:36Z</time>
      </trkpt>
      <trkpt lat="45.09803" lon="6.16118">
        <ele>1646</ele>
        <time>2024-06-04T21:49:37Z</time>
      </trkpt>
      <trkpt lat="45.09801" lon="6.16128">
        <ele>1643</ele>
        <time>2024-06-04T21:49:38Z</time>
      </trkpt>
      <trkpt lat="45.09812" lon="6.16165">
        <ele>1639</ele>
        <time>2024-06-04T21:49:43Z</time>
      </trkpt>
      <trkpt lat="45.09821" lon="6.16214">
        <ele>1633</ele>
        <time>2024-06-04T21:49:49Z</time>
      </trkpt>
      <trkpt lat="45.09831" lon="6.16243">
        <ele>1632</ele>
        <time>2024-06-04T21:49:53Z</time>
      </trkpt>
      <trkpt lat="45.09872" lon="6.16319">
        <ele>1624</ele>
        <time>2024-06-04T21:50:05Z</time>
      </trkpt>
      <trkpt lat="45.09894" lon="6.16351">
        <ele>1623</ele>
        <time>2024-06-04T21:50:11Z</time>
      </trkpt>
      <trkpt lat="45.09898" lon="6.16363">
        <ele>1622</ele>
        <time>2024-06-04T21:50:13Z</time>
      </trkpt>
      <trkpt lat="45.09899" lon="6.16396">
        <ele>1617</ele>
        <time>2024-06-04T21:50:17Z</time>
      </trkpt>
      <trkpt lat="45.09902" lon="6.16411">
        <ele>1615</ele>
        <time>2024-06-04T21:50:19Z</time>
      </trkpt>
      <trkpt lat="45.09911" lon="6.16423">
        <ele>1615</ele>
        <time>2024-06-04T21:50:21Z</time>
      </trkpt>
      <trkpt lat="45.09937" lon="6.16443">
        <ele>1613</ele>
        <time>2024-06-04T21:50:26Z</time>
      </trkpt>
      <trkpt lat="45.09956" lon="6.16448">
        <ele>1613</ele>
        <time>2024-06-04T21:50:30Z</time>
      </trkpt>
      <trkpt lat="45.09984" lon="6.16448">
        <ele>1617</ele>
        <time>2024-06-04T21:50:35Z</time>
      </trkpt>
      <trkpt lat="45.10004" lon="6.16453">
        <ele>1618</ele>
        <time>2024-06-04T21:50:38Z</time>
      </trkpt>
      <trkpt lat="45.10008" lon="6.16457">
        <ele>1617</ele>
        <time>2024-06-04T21:50:39Z</time>
      </trkpt>
      <trkpt lat="45.1001" lon="6.16464">
        <ele>1615</ele>
        <time>2024-06-04T21:50:40Z</time>
      </trkpt>
      <trkpt lat="45.10007" lon="6.16469">
        <ele>1614</ele>
        <time>2024-06-04T21:50:41Z</time>
      </trkpt>
      <trkpt lat="45.10002" lon="6.16471">
        <ele>1614</ele>
        <time>2024-06-04T21:50:42Z</time>
      </trkpt>
      <trkpt lat="45.09947" lon="6.16476">
        <ele>1605</ele>
        <time>2024-06-04T21:50:52Z</time>
      </trkpt>
      <trkpt lat="45.09929" lon="6.16475">
        <ele>1602</ele>
        <time>2024-06-04T21:50:55Z</time>
      </trkpt>
      <trkpt lat="45.09903" lon="6.16461">
        <ele>1601</ele>
        <time>2024-06-04T21:51:00Z</time>
      </trkpt>
      <trkpt lat="45.09857" lon="6.16427">
        <ele>1599</ele>
        <time>2024-06-04T21:51:09Z</time>
      </trkpt>
      <trkpt lat="45.09805" lon="6.1638">
        <ele>1594</ele>
        <time>2024-06-04T21:51:20Z</time>
      </trkpt>
      <trkpt lat="45.09754" lon="6.1632">
        <ele>1590</ele>
        <time>2024-06-04T21:51:32Z</time>
      </trkpt>
      <trkpt lat="45.09706" lon="6.16249">
        <ele>1590</ele>
        <time>2024-06-04T21:51:44Z</time>
      </trkpt>
      <trkpt lat="45.09698" lon="6.16244">
        <ele>1589</ele>
        <time>2024-06-04T21:51:46Z</time>
      </trkpt>
      <trkpt lat="45.09693" lon="6.16244">
        <ele>1587</ele>
        <time>2024-06-04T21:51:47Z</time>
      </trkpt>
      <trkpt lat="45.09692" lon="6.16251">
        <ele>1586</ele>
        <time>2024-06-04T21:51:48Z</time>
      </trkpt>
      <trkpt lat="45.09734" lon="6.16326">
        <ele>1584</ele>
        <time>2024-06-04T21:52:00Z</time>
      </trkpt>
      <trkpt lat="45.09755" lon="6.16401">
        <ele>1575</ele>
        <time>2024-06-04T21:52:10Z</time>
      </trkpt>
      <trkpt lat="45.09763" lon="6.16414">
        <ele>1575</ele>
        <time>2024-06-04T21:52:12Z</time>
      </trkpt>
      <trkpt lat="45.09765" lon="6.16421">
        <ele>1574</ele>
        <time>2024-06-04T21:52:13Z</time>
      </trkpt>
      <trkpt lat="45.09764" lon="6.1643">
        <ele>1571</ele>
        <time>2024-06-04T21:52:14Z</time>
      </trkpt>
      <trkpt lat="45.09759" lon="6.16431">
        <ele>1570</ele>
        <time>2024-06-04T21:52:15Z</time>
      </trkpt>
      <trkpt lat="45.09754" lon="6.16428">
        <ele>1569</ele>
        <time>2024-06-04T21:52:16Z</time>
      </trkpt>
      <trkpt lat="45.0973" lon="6.16382">
        <ele>1574</ele>
        <time>2024-06-04T21:52:23Z</time>
      </trkpt>
      <trkpt lat="45.09721" lon="6.16377">
        <ele>1573</ele>
        <time>2024-06-04T21:52:25Z</time>
      </trkpt>
      <trkpt lat="45.09714" lon="6.16376">
        <ele>1572</ele>
        <time>2024-06-04T21:52:26Z</time>
      </trkpt>
      <trkpt lat="45.09699" lon="6.16384">
        <ele>1568</ele>
        <time>2024-06-04T21:52:29Z</time>
      </trkpt>
      <trkpt lat="45.09677" lon="6.16401">
        <ele>1564</ele>
        <time>2024-06-04T21:52:33Z</time>
      </trkpt>
      <trkpt lat="45.09658" lon="6.16406">
        <ele>1562</ele>
        <time>2024-06-04T21:52:37Z</time>
      </trkpt>
      <trkpt lat="45.0965" lon="6.16399">
        <ele>1561</ele>
        <time>2024-06-04T21:52:38Z</time>
      </trkpt>
      <trkpt lat="45.09642" lon="6.1638">
        <ele>1561</ele>
        <time>2024-06-04T21:52:41Z</time>
      </trkpt>
      <trkpt lat="45.09633" lon="6.16366">
        <ele>1560</ele>
        <time>2024-06-04T21:52:44Z</time>
      </trkpt>
      <trkpt lat="45.09616" lon="6.16355">
        <ele>1559</ele>
        <time>2024-06-04T21:52:47Z</time>
      </trkpt>
      <trkpt lat="45.09609" lon="6.1635">
        <ele>1558</ele>
        <time>2024-06-04T21:52:48Z</time>
      </trkpt>
      <trkpt lat="45.09583" lon="6.16331">
        <ele>1555</ele>
        <time>2024-06-04T21:52:54Z</time>
      </trkpt>
      <trkpt lat="45.09558" lon="6.16325">
        <ele>1554</ele>
        <time>2024-06-04T21:52:58Z</time>
      </trkpt>
      <trkpt lat="45.09527" lon="6.16322">
        <ele>1552</ele>
        <time>2024-06-04T21:53:04Z</time>
      </trkpt>
      <trkpt lat="45.09451" lon="6.1631">
        <ele>1549</ele>
        <time>2024-06-04T21:53:17Z</time>
      </trkpt>
      <trkpt lat="45.09441" lon="6.16311">
        <ele>1548</ele>
        <time>2024-06-04T21:53:19Z</time>
      </trkpt>
      <trkpt lat="45.0942" lon="6.16326">
        <ele>1545</ele>
        <time>2024-06-04T21:53:23Z</time>
      </trkpt>
      <trkpt lat="45.09398" lon="6.16351">
        <ele>1540</ele>
        <time>2024-06-04T21:53:28Z</time>
      </trkpt>
      <trkpt lat="45.09392" lon="6.16353">
        <ele>1538</ele>
        <time>2024-06-04T21:53:29Z</time>
      </trkpt>
      <trkpt lat="45.0937" lon="6.16351">
        <ele>1535</ele>
        <time>2024-06-04T21:53:33Z</time>
      </trkpt>
      <trkpt lat="45.0935" lon="6.1634">
        <ele>1534</ele>
        <time>2024-06-04T21:53:37Z</time>
      </trkpt>
      <trkpt lat="45.09283" lon="6.16329">
        <ele>1526</ele>
        <time>2024-06-04T21:53:49Z</time>
      </trkpt>
      <trkpt lat="45.09244" lon="6.16296">
        <ele>1525</ele>
        <time>2024-06-04T21:53:57Z</time>
      </trkpt>
      <trkpt lat="45.09236" lon="6.16294">
        <ele>1525</ele>
        <time>2024-06-04T21:53:59Z</time>
      </trkpt>
      <trkpt lat="45.09229" lon="6.16299">
        <ele>1524</ele>
        <time>2024-06-04T21:54:00Z</time>
      </trkpt>
      <trkpt lat="45.09228" lon="6.16313">
        <ele>1522</ele>
        <time>2024-06-04T21:54:02Z</time>
      </trkpt>
      <trkpt lat="45.09231" lon="6.16354">
        <ele>1518</ele>
        <time>2024-06-04T21:54:07Z</time>
      </trkpt>
      <trkpt lat="45.09227" lon="6.16399">
        <ele>1512</ele>
        <time>2024-06-04T21:54:13Z</time>
      </trkpt>
      <trkpt lat="45.09217" lon="6.16413">
        <ele>1509</ele>
        <time>2024-06-04T21:54:15Z</time>
      </trkpt>
      <trkpt lat="45.09211" lon="6.16417">
        <ele>1508</ele>
        <time>2024-06-04T21:54:16Z</time>
      </trkpt>
      <trkpt lat="45.09202" lon="6.16418">
        <ele>1506</ele>
        <time>2024-06-04T21:54:18Z</time>
      </trkpt>
      <trkpt lat="45.09193" lon="6.16415">
        <ele>1505</ele>
        <time>2024-06-04T21:54:20Z</time>
      </trkpt>
      <trkpt lat="45.0915" lon="6.16376">
        <ele>1504</ele>
        <time>2024-06-04T21:54:29Z</time>
      </trkpt>
      <trkpt lat="45.09105" lon="6.16351">
        <ele>1502</ele>
        <time>2024-06-04T21:54:37Z</time>
      </trkpt>
      <trkpt lat="45.09071" lon="6.16327">
        <ele>1503</ele>
        <time>2024-06-04T21:54:44Z</time>
      </trkpt>
      <trkpt lat="45.09056" lon="6.16329">
        <ele>1500</ele>
        <time>2024-06-04T21:54:47Z</time>
      </trkpt>
      <trkpt lat="45.09028" lon="6.16367">
        <ele>1489</ele>
        <time>2024-06-04T21:54:54Z</time>
      </trkpt>
      <trkpt lat="45.09018" lon="6.1637">
        <ele>1487</ele>
        <time>2024-06-04T21:54:55Z</time>
      </trkpt>
      <trkpt lat="45.09011" lon="6.16367">
        <ele>1487</ele>
        <time>2024-06-04T21:54:57Z</time>
      </trkpt>
      <trkpt lat="45.08997" lon="6.16348">
        <ele>1488</ele>
        <time>2024-06-04T21:55:00Z</time>
      </trkpt>
      <trkpt lat="45.08986" lon="6.16337">
        <ele>1488</ele>
        <time>2024-06-04T21:55:02Z</time>
      </trkpt>
      <trkpt lat="45.08958" lon="6.16329">
        <ele>1484</ele>
        <time>2024-06-04T21:55:08Z</time>
      </trkpt>
      <trkpt lat="45.08921" lon="6.16292">
        <ele>1484</ele>
        <time>2024-06-04T21:55:16Z</time>
      </trkpt>
      <trkpt lat="45.08888" lon="6.16265">
        <ele>1481</ele>
        <time>2024-06-04T21:55:22Z</time>
      </trkpt>
      <trkpt lat="45.08851" lon="6.16215">
        <ele>1479</ele>
        <time>2024-06-04T21:55:32Z</time>
      </trkpt>
      <trkpt lat="45.08806" lon="6.16168">
        <ele>1475</ele>
        <time>2024-06-04T21:55:41Z</time>
      </trkpt>
      <trkpt lat="45.08786" lon="6.16152">
        <ele>1475</ele>
        <time>2024-06-04T21:55:46Z</time>
      </trkpt>
      <trkpt lat="45.08715" lon="6.16127">
        <ele>1469</ele>
        <time>2024-06-04T21:55:59Z</time>
      </trkpt>
      <trkpt lat="45.08665" lon="6.16118">
        <ele>1464</ele>
        <time>2024-06-04T21:56:08Z</time>
      </trkpt>
      <trkpt lat="45.08639" lon="6.16138">
        <ele>1455</ele>
        <time>2024-06-04T21:56:13Z</time>
      </trkpt>
      <trkpt lat="45.0863" lon="6.16142">
        <ele>1453</ele>
        <time>2024-06-04T21:56:14Z</time>
      </trkpt>
      <trkpt lat="45.08617" lon="6.16138">
        <ele>1453</ele>
        <time>2024-06-04T21:56:17Z</time>
      </trkpt>
      <trkpt lat="45.08597" lon="6.16119">
        <ele>1454</ele>
        <time>2024-06-04T21:56:21Z</time>
      </trkpt>
      <trkpt lat="45.08553" lon="6.16107">
        <ele>1452</ele>
        <time>2024-06-04T21:56:29Z</time>
      </trkpt>
      <trkpt lat="45.08535" lon="6.16109">
        <ele>1449</ele>
        <time>2024-06-04T21:56:32Z</time>
      </trkpt>
      <trkpt lat="45.08434" lon="6.16132">
        <ele>1435</ele>
        <time>2024-06-04T21:56:51Z</time>
      </trkpt>
      <trkpt lat="45.08387" lon="6.16124">
        <ele>1429</ele>
        <time>2024-06-04T21:56:59Z</time>
      </trkpt>
      <trkpt lat="45.08359" lon="6.16104">
        <ele>1427</ele>
        <time>2024-06-04T21:57:05Z</time>
      </trkpt>
      <trkpt lat="45.08321" lon="6.16064">
        <ele>1427</ele>
        <time>2024-06-04T21:57:13Z</time>
      </trkpt>
      <trkpt lat="45.08297" lon="6.16044">
        <ele>1427</ele>
        <time>2024-06-04T21:57:18Z</time>
      </trkpt>
      <trkpt lat="45.0827" lon="6.16033">
        <ele>1424</ele>
        <time>2024-06-04T21:57:23Z</time>
      </trkpt>
      <trkpt lat="45.08234" lon="6.16033">
        <ele>1417</ele>
        <time>2024-06-04T21:57:29Z</time>
      </trkpt>
      <trkpt lat="45.08217" lon="6.1603">
        <ele>1414</ele>
        <time>2024-06-04T21:57:32Z</time>
      </trkpt>
      <trkpt lat="45.08188" lon="6.16018">
        <ele>1410</ele>
        <time>2024-06-04T21:57:38Z</time>
      </trkpt>
      <trkpt lat="45.08173" lon="6.16005">
        <ele>1409</ele>
        <time>2024-06-04T21:57:41Z</time>
      </trkpt>
      <trkpt lat="45.08155" lon="6.15981">
        <ele>1410</ele>
        <time>2024-06-04T21:57:45Z</time>
      </trkpt>
      <trkpt lat="45.08135" lon="6.15947">
        <ele>1414</ele>
        <time>2024-06-04T21:57:51Z</time>
      </trkpt>
      <trkpt lat="45.08126" lon="6.15945">
        <ele>1413</ele>
        <time>2024-06-04T21:57:52Z</time>
      </trkpt>
      <trkpt lat="45.08124" lon="6.1595">
        <ele>1412</ele>
        <time>2024-06-04T21:57:53Z</time>
      </trkpt>
      <trkpt lat="45.08138" lon="6.15973">
        <ele>1409</ele>
        <time>2024-06-04T21:57:57Z</time>
      </trkpt>
      <trkpt lat="45.08147" lon="6.15993">
        <ele>1406</ele>
        <time>2024-06-04T21:58:00Z</time>
      </trkpt>
      <trkpt lat="45.08165" lon="6.16046">
        <ele>1400</ele>
        <time>2024-06-04T21:58:07Z</time>
      </trkpt>
      <trkpt lat="45.08171" lon="6.16058">
        <ele>1399</ele>
        <time>2024-06-04T21:58:09Z</time>
      </trkpt>
      <trkpt lat="45.08183" lon="6.16077">
        <ele>1398</ele>
        <time>2024-06-04T21:58:12Z</time>
      </trkpt>
      <trkpt lat="45.08202" lon="6.16102">
        <ele>1398</ele>
        <time>2024-06-04T21:58:17Z</time>
      </trkpt>
      <trkpt lat="45.08237" lon="6.16129">
        <ele>1400</ele>
        <time>2024-06-04T21:58:24Z</time>
      </trkpt>
      <trkpt lat="45.0824" lon="6.16135">
        <ele>1400</ele>
        <time>2024-06-04T21:58:25Z</time>
      </trkpt>
      <trkpt lat="45.08239" lon="6.16141">
        <ele>1399</ele>
        <time>2024-06-04T21:58:26Z</time>
      </trkpt>
      <trkpt lat="45.08235" lon="6.16143">
        <ele>1398</ele>
        <time>2024-06-04T21:58:27Z</time>
      </trkpt>
      <trkpt lat="45.08223" lon="6.16136">
        <ele>1397</ele>
        <time>2024-06-04T21:58:29Z</time>
      </trkpt>
      <trkpt lat="45.08163" lon="6.1609">
        <ele>1392</ele>
        <time>2024-06-04T21:58:41Z</time>
      </trkpt>
      <trkpt lat="45.08142" lon="6.16072">
        <ele>1390</ele>
        <time>2024-06-04T21:58:45Z</time>
      </trkpt>
      <trkpt lat="45.08063" lon="6.15983">
        <ele>1393</ele>
        <time>2024-06-04T21:59:03Z</time>
      </trkpt>
      <trkpt lat="45.07976" lon="6.15902">
        <ele>1394</ele>
        <time>2024-06-04T21:59:22Z</time>
      </trkpt>
      <trkpt lat="45.07953" lon="6.15888">
        <ele>1393</ele>
        <time>2024-06-04T21:59:26Z</time>
      </trkpt>
      <trkpt lat="45.07915" lon="6.15874">
        <ele>1389</ele>
        <time>2024-06-04T21:59:33Z</time>
      </trkpt>
      <trkpt lat="45.07851" lon="6.15825">
        <ele>1393</ele>
        <time>2024-06-04T21:59:46Z</time>
      </trkpt>
      <trkpt lat="45.07818" lon="6.15804">
        <ele>1395</ele>
        <time>2024-06-04T21:59:53Z</time>
      </trkpt>
      <trkpt lat="45.07808" lon="6.15801">
        <ele>1394</ele>
        <time>2024-06-04T21:59:54Z</time>
      </trkpt>
      <trkpt lat="45.07782" lon="6.158">
        <ele>1390</ele>
        <time>2024-06-04T21:59:59Z</time>
      </trkpt>
      <trkpt lat="45.07698" lon="6.15793">
        <ele>1388</ele>
        <time>2024-06-04T22:00:14Z</time>
      </trkpt>
      <trkpt lat="45.07682" lon="6.15798">
        <ele>1387</ele>
        <time>2024-06-04T22:00:17Z</time>
      </trkpt>
      <trkpt lat="45.07651" lon="6.15825">
        <ele>1378</ele>
        <time>2024-06-04T22:00:23Z</time>
      </trkpt>
      <trkpt lat="45.07626" lon="6.15833">
        <ele>1375</ele>
        <time>2024-06-04T22:00:28Z</time>
      </trkpt>
      <trkpt lat="45.07614" lon="6.15835">
        <ele>1375</ele>
        <time>2024-06-04T22:00:30Z</time>
      </trkpt>
      <trkpt lat="45.07602" lon="6.15834">
        <ele>1375</ele>
        <time>2024-06-04T22:00:32Z</time>
      </trkpt>
      <trkpt lat="45.07587" lon="6.1583">
        <ele>1376</ele>
        <time>2024-06-04T22:00:35Z</time>
      </trkpt>
      <trkpt lat="45.07553" lon="6.15814">
        <ele>1381</ele>
        <time>2024-06-04T22:00:41Z</time>
      </trkpt>
      <trkpt lat="45.07528" lon="6.15806">
        <ele>1383</ele>
        <time>2024-06-04T22:00:46Z</time>
      </trkpt>
      <trkpt lat="45.07507" lon="6.15807">
        <ele>1382</ele>
        <time>2024-06-04T22:00:50Z</time>
      </trkpt>
      <trkpt lat="45.0748" lon="6.15812">
        <ele>1375</ele>
        <time>2024-06-04T22:00:55Z</time>
      </trkpt>
      <trkpt lat="45.07463" lon="6.15809">
        <ele>1372</ele>
        <time>2024-06-04T22:00:58Z</time>
      </trkpt>
      <trkpt lat="45.07452" lon="6.15799">
        <ele>1373</ele>
        <time>2024-06-04T22:01:00Z</time>
      </trkpt>
      <trkpt lat="45.07425" lon="6.15767">
        <ele>1377</ele>
        <time>2024-06-04T22:01:06Z</time>
      </trkpt>
      <trkpt lat="45.07417" lon="6.15761">
        <ele>1377</ele>
        <time>2024-06-04T22:01:08Z</time>
      </trkpt>
      <trkpt lat="45.07388" lon="6.15744">
        <ele>1375</ele>
        <time>2024-06-04T22:01:13Z</time>
      </trkpt>
      <trkpt lat="45.07345" lon="6.157">
        <ele>1377</ele>
        <time>2024-06-04T22:01:23Z</time>
      </trkpt>
      <trkpt lat="45.07333" lon="6.15691">
        <ele>1376</ele>
        <time>2024-06-04T22:01:25Z</time>
      </trkpt>
      <trkpt lat="45.07294" lon="6.1567">
        <ele>1372</ele>
        <time>2024-06-04T22:01:33Z</time>
      </trkpt>
      <trkpt lat="45.0727" lon="6.15652">
        <ele>1370</ele>
        <time>2024-06-04T22:01:38Z</time>
      </trkpt>
      <trkpt lat="45.07185" lon="6.15574">
        <ele>1369</ele>
        <time>2024-06-04T22:01:56Z</time>
      </trkpt>
      <trkpt lat="45.07161" lon="6.15548">
        <ele>1366</ele>
        <time>2024-06-04T22:02:01Z</time>
      </trkpt>
      <trkpt lat="45.07149" lon="6.15526">
        <ele>1366</ele>
        <time>2024-06-04T22:02:04Z</time>
      </trkpt>
      <trkpt lat="45.07146" lon="6.15515">
        <ele>1367</ele>
        <time>2024-06-04T22:02:06Z</time>
      </trkpt>
      <trkpt lat="45.07143" lon="6.15496">
        <ele>1369</ele>
        <time>2024-06-04T22:02:08Z</time>
      </trkpt>
      <trkpt lat="45.07134" lon="6.1548">
        <ele>1369</ele>
        <time>2024-06-04T22:02:11Z</time>
      </trkpt>
      <trkpt lat="45.07131" lon="6.15466">
        <ele>1369</ele>
        <time>2024-06-04T22:02:13Z</time>
      </trkpt>
      <trkpt lat="45.07126" lon="6.15436">
        <ele>1371</ele>
        <time>2024-06-04T22:02:17Z</time>
      </trkpt>
      <trkpt lat="45.07121" lon="6.15424">
        <ele>1371</ele>
        <time>2024-06-04T22:02:18Z</time>
      </trkpt>
      <trkpt lat="45.07106" lon="6.15407">
        <ele>1371</ele>
        <time>2024-06-04T22:02:22Z</time>
      </trkpt>
      <trkpt lat="45.07059" lon="6.15369">
        <ele>1370</ele>
        <time>2024-06-04T22:02:31Z</time>
      </trkpt>
      <trkpt lat="45.07027" lon="6.1536">
        <ele>1367</ele>
        <time>2024-06-04T22:02:37Z</time>
      </trkpt>
      <trkpt lat="45.06972" lon="6.15364">
        <ele>1358</ele>
        <time>2024-06-04T22:02:47Z</time>
      </trkpt>
      <trkpt lat="45.06945" lon="6.15376">
        <ele>1352</ele>
        <time>2024-06-04T22:02:52Z</time>
      </trkpt>
      <trkpt lat="45.06929" lon="6.15381">
        <ele>1349</ele>
        <time>2024-06-04T22:02:55Z</time>
      </trkpt>
      <trkpt lat="45.06915" lon="6.15382">
        <ele>1346</ele>
        <time>2024-06-04T22:02:57Z</time>
      </trkpt>
      <trkpt lat="45.06899" lon="6.15379">
        <ele>1343</ele>
        <time>2024-06-04T22:03:00Z</time>
      </trkpt>
      <trkpt lat="45.06879" lon="6.1537">
        <ele>1340</ele>
        <time>2024-06-04T22:03:04Z</time>
      </trkpt>
      <trkpt lat="45.06858" lon="6.15356">
        <ele>1338</ele>
        <time>2024-06-04T22:03:08Z</time>
      </trkpt>
      <trkpt lat="45.06838" lon="6.15347">
        <ele>1336</ele>
        <time>2024-06-04T22:03:12Z</time>
      </trkpt>
      <trkpt lat="45.06823" lon="6.15343">
        <ele>1334</ele>
        <time>2024-06-04T22:03:15Z</time>
      </trkpt>
      <trkpt lat="45.06752" lon="6.1534">
        <ele>1324</ele>
        <time>2024-06-04T22:03:27Z</time>
      </trkpt>
      <trkpt lat="45.06738" lon="6.15334">
        <ele>1323</ele>
        <time>2024-06-04T22:03:30Z</time>
      </trkpt>
      <trkpt lat="45.06665" lon="6.15269">
        <ele>1318</ele>
        <time>2024-06-04T22:03:45Z</time>
      </trkpt>
      <trkpt lat="45.06622" lon="6.15244">
        <ele>1311</ele>
        <time>2024-06-04T22:03:54Z</time>
      </trkpt>
      <trkpt lat="45.0651" lon="6.15138">
        <ele>1299</ele>
        <time>2024-06-04T22:04:17Z</time>
      </trkpt>
      <trkpt lat="45.06487" lon="6.15112">
        <ele>1298</ele>
        <time>2024-06-04T22:04:23Z</time>
      </trkpt>
      <trkpt lat="45.06481" lon="6.15108">
        <ele>1297</ele>
        <time>2024-06-04T22:04:24Z</time>
      </trkpt>
      <trkpt lat="45.06475" lon="6.15112">
        <ele>1294</ele>
        <time>2024-06-04T22:04:25Z</time>
      </trkpt>
      <trkpt lat="45.06465" lon="6.15099">
        <ele>1295</ele>
        <time>2024-06-04T22:04:27Z</time>
      </trkpt>
      <trkpt lat="45.06432" lon="6.1507">
        <ele>1293</ele>
        <time>2024-06-04T22:04:34Z</time>
      </trkpt>
      <trkpt lat="45.06392" lon="6.15026">
        <ele>1288</ele>
        <time>2024-06-04T22:04:43Z</time>
      </trkpt>
      <trkpt lat="45.0635" lon="6.14984">
        <ele>1283</ele>
        <time>2024-06-04T22:04:53Z</time>
      </trkpt>
      <trkpt lat="45.06299" lon="6.14939">
        <ele>1279</ele>
        <time>2024-06-04T22:05:03Z</time>
      </trkpt>
      <trkpt lat="45.06259" lon="6.14924">
        <ele>1273</ele>
        <time>2024-06-04T22:05:11Z</time>
      </trkpt>
      <trkpt lat="45.06241" lon="6.14909">
        <ele>1272</ele>
        <time>2024-06-04T22:05:14Z</time>
      </trkpt>
      <trkpt lat="45.06224" lon="6.14889">
        <ele>1272</ele>
        <time>2024-06-04T22:05:18Z</time>
      </trkpt>
      <trkpt lat="45.06214" lon="6.14882">
        <ele>1271</ele>
        <time>2024-06-04T22:05:20Z</time>
      </trkpt>
      <trkpt lat="45.06153" lon="6.14855">
        <ele>1263</ele>
        <time>2024-06-04T22:05:32Z</time>
      </trkpt>
      <trkpt lat="45.06095" lon="6.1482">
        <ele>1255</ele>
        <time>2024-06-04T22:05:43Z</time>
      </trkpt>
      <trkpt lat="45.06073" lon="6.14805">
        <ele>1251</ele>
        <time>2024-06-04T22:05:47Z</time>
      </trkpt>
      <trkpt lat="45.06008" lon="6.14745">
        <ele>1245</ele>
        <time>2024-06-04T22:06:01Z</time>
      </trkpt>
      <trkpt lat="45.05981" lon="6.14725">
        <ele>1239</ele>
        <time>2024-06-04T22:06:06Z</time>
      </trkpt>
      <trkpt lat="45.05931" lon="6.14685">
        <ele>1230</ele>
        <time>2024-06-04T22:06:17Z</time>
      </trkpt>
      <trkpt lat="45.05907" lon="6.14645">
        <ele>1230</ele>
        <time>2024-06-04T22:06:23Z</time>
      </trkpt>
      <trkpt lat="45.05901" lon="6.14648">
        <ele>1226</ele>
        <time>2024-06-04T22:06:24Z</time>
      </trkpt>
      <trkpt lat="45.05905" lon="6.14671">
        <ele>1223</ele>
        <time>2024-06-04T22:06:27Z</time>
      </trkpt>
      <trkpt lat="45.05942" lon="6.14766">
        <ele>1218</ele>
        <time>2024-06-04T22:06:41Z</time>
      </trkpt>
      <trkpt lat="45.05959" lon="6.1484">
        <ele>1214</ele>
        <time>2024-06-04T22:06:51Z</time>
      </trkpt>
      <trkpt lat="45.05999" lon="6.14942">
        <ele>1204</ele>
        <time>2024-06-04T22:07:05Z</time>
      </trkpt>
      <trkpt lat="45.05998" lon="6.14951">
        <ele>1203</ele>
        <time>2024-06-04T22:07:07Z</time>
      </trkpt>
      <trkpt lat="45.05994" lon="6.14957">
        <ele>1201</ele>
        <time>2024-06-04T22:07:08Z</time>
      </trkpt>
      <trkpt lat="45.05988" lon="6.14954">
        <ele>1201</ele>
        <time>2024-06-04T22:07:09Z</time>
      </trkpt>
      <trkpt lat="45.05957" lon="6.14887">
        <ele>1203</ele>
        <time>2024-06-04T22:07:19Z</time>
      </trkpt>
      <trkpt lat="45.05941" lon="6.14863">
        <ele>1203</ele>
        <time>2024-06-04T22:07:23Z</time>
      </trkpt>
      <trkpt lat="45.05914" lon="6.14832">
        <ele>1200</ele>
        <time>2024-06-04T22:07:29Z</time>
      </trkpt>
      <trkpt lat="45.05872" lon="6.14799">
        <ele>1195</ele>
        <time>2024-06-04T22:07:38Z</time>
      </trkpt>
      <trkpt lat="45.0585" lon="6.14786">
        <ele>1189</ele>
        <time>2024-06-04T22:07:42Z</time>
      </trkpt>
      <trkpt lat="45.05822" lon="6.14759">
        <ele>1184</ele>
        <time>2024-06-04T22:07:48Z</time>
      </trkpt>
      <trkpt lat="45.05794" lon="6.14727">
        <ele>1187</ele>
        <time>2024-06-04T22:07:54Z</time>
      </trkpt>
      <trkpt lat="45.05782" lon="6.14721">
        <ele>1187</ele>
        <time>2024-06-04T22:07:57Z</time>
      </trkpt>
      <trkpt lat="45.05764" lon="6.14719">
        <ele>1188</ele>
        <time>2024-06-04T22:08:00Z</time>
      </trkpt>
      <trkpt lat="45.05752" lon="6.14714">
        <ele>1187</ele>
        <time>2024-06-04T22:08:02Z</time>
      </trkpt>
      <trkpt lat="45.05741" lon="6.14704">
        <ele>1187</ele>
        <time>2024-06-04T22:08:04Z</time>
      </trkpt>
      <trkpt lat="45.05726" lon="6.14674">
        <ele>1183</ele>
        <time>2024-06-04T22:08:09Z</time>
      </trkpt>
      <trkpt lat="45.05705" lon="6.14656">
        <ele>1192</ele>
        <time>2024-06-04T22:08:13Z</time>
      </trkpt>
      <trkpt lat="45.05696" lon="6.14646">
        <ele>1194</ele>
        <time>2024-06-04T22:08:15Z</time>
      </trkpt>
      <trkpt lat="45.0566" lon="6.14577">
        <ele>1179</ele>
        <time>2024-06-04T22:08:26Z</time>
      </trkpt>
      <trkpt lat="45.05646" lon="6.14567">
        <ele>1179</ele>
        <time>2024-06-04T22:08:29Z</time>
      </trkpt>
      <trkpt lat="45.05618" lon="6.14561">
        <ele>1186</ele>
        <time>2024-06-04T22:08:34Z</time>
      </trkpt>
      <trkpt lat="45.05591" lon="6.14563">
        <ele>1196</ele>
        <time>2024-06-04T22:08:39Z</time>
      </trkpt>
      <trkpt lat="45.05579" lon="6.14561">
        <ele>1198</ele>
        <time>2024-06-04T22:08:41Z</time>
      </trkpt>
      <trkpt lat="45.05566" lon="6.14554">
        <ele>1199</ele>
        <time>2024-06-04T22:08:43Z</time>
      </trkpt>
      <trkpt lat="45.0552" lon="6.14538">
        <ele>1204</ele>
        <time>2024-06-04T22:08:52Z</time>
      </trkpt>
      <trkpt lat="45.05507" lon="6.14527">
        <ele>1204</ele>
        <time>2024-06-04T22:08:55Z</time>
      </trkpt>
      <trkpt lat="45.0546" lon="6.14499">
        <ele>1206</ele>
        <time>2024-06-04T22:09:04Z</time>
      </trkpt>
      <trkpt lat="45.05444" lon="6.1448">
        <ele>1201</ele>
        <time>2024-06-04T22:09:07Z</time>
      </trkpt>
      <trkpt lat="45.05432" lon="6.14464">
        <ele>1196</ele>
        <time>2024-06-04T22:09:10Z</time>
      </trkpt>
      <trkpt lat="45.05426" lon="6.14459">
        <ele>1196</ele>
        <time>2024-06-04T22:09:12Z</time>
      </trkpt>
      <trkpt lat="45.05417" lon="6.14455">
        <ele>1197</ele>
        <time>2024-06-04T22:09:13Z</time>
      </trkpt>
      <trkpt lat="45.05384" lon="6.14451">
        <ele>1201</ele>
        <time>2024-06-04T22:09:19Z</time>
      </trkpt>
      <trkpt lat="45.0534" lon="6.14417">
        <ele>1199</ele>
        <time>2024-06-04T22:09:28Z</time>
      </trkpt>
      <trkpt lat="45.05324" lon="6.14398">
        <ele>1196</ele>
        <time>2024-06-04T22:09:32Z</time>
      </trkpt>
      <trkpt lat="45.05306" lon="6.14369">
        <ele>1190</ele>
        <time>2024-06-04T22:09:37Z</time>
      </trkpt>
      <trkpt lat="45.0528" lon="6.14332">
        <ele>1186</ele>
        <time>2024-06-04T22:09:43Z</time>
      </trkpt>
      <trkpt lat="45.05236" lon="6.14285">
        <ele>1185</ele>
        <time>2024-06-04T22:09:53Z</time>
      </trkpt>
      <trkpt lat="45.05216" lon="6.14273">
        <ele>1184</ele>
        <time>2024-06-04T22:09:57Z</time>
      </trkpt>
      <trkpt lat="45.05204" lon="6.1427">
        <ele>1184</ele>
        <time>2024-06-04T22:09:59Z</time>
      </trkpt>
      <trkpt lat="45.05193" lon="6.14271">
        <ele>1185</ele>
        <time>2024-06-04T22:10:01Z</time>
      </trkpt>
      <trkpt lat="45.05122" lon="6.143">
        <ele>1190</ele>
        <time>2024-06-04T22:10:14Z</time>
      </trkpt>
      <trkpt lat="45.05097" lon="6.14306">
        <ele>1191</ele>
        <time>2024-06-04T22:10:19Z</time>
      </trkpt>
      <trkpt lat="45.05075" lon="6.14309">
        <ele>1191</ele>
        <time>2024-06-04T22:10:23Z</time>
      </trkpt>
      <trkpt lat="45.05063" lon="6.14305">
        <ele>1190</ele>
        <time>2024-06-04T22:10:25Z</time>
      </trkpt>
      <trkpt lat="45.05042" lon="6.1429">
        <ele>1188</ele>
        <time>2024-06-04T22:10:29Z</time>
      </trkpt>
      <trkpt lat="45.0502" lon="6.14278">
        <ele>1187</ele>
        <time>2024-06-04T22:10:33Z</time>
      </trkpt>
      <trkpt lat="45.04998" lon="6.1427">
        <ele>1186</ele>
        <time>2024-06-04T22:10:37Z</time>
      </trkpt>
      <trkpt lat="45.04981" lon="6.14235">
        <ele>1180</ele>
        <time>2024-06-04T22:10:43Z</time>
      </trkpt>
      <trkpt lat="45.04957" lon="6.14197">
        <ele>1174</ele>
        <time>2024-06-04T22:10:49Z</time>
      </trkpt>
      <trkpt lat="45.04932" lon="6.1413">
        <ele>1167</ele>
        <time>2024-06-04T22:10:58Z</time>
      </trkpt>
      <trkpt lat="45.04926" lon="6.14107">
        <ele>1165</ele>
        <time>2024-06-04T22:11:02Z</time>
      </trkpt>
      <trkpt lat="45.04926" lon="6.14093">
        <ele>1165</ele>
        <time>2024-06-04T22:11:03Z</time>
      </trkpt>
      <trkpt lat="45.04929" lon="6.1407">
        <ele>1164</ele>
        <time>2024-06-04T22:11:06Z</time>
      </trkpt>
      <trkpt lat="45.04939" lon="6.14045">
        <ele>1162</ele>
        <time>2024-06-04T22:11:10Z</time>
      </trkpt>
      <trkpt lat="45.04958" lon="6.14012">
        <ele>1160</ele>
        <time>2024-06-04T22:11:15Z</time>
      </trkpt>
      <trkpt lat="45.04958" lon="6.14006">
        <ele>1158</ele>
        <time>2024-06-04T22:11:16Z</time>
      </trkpt>
      <trkpt lat="45.04955" lon="6.14">
        <ele>1157</ele>
        <time>2024-06-04T22:11:17Z</time>
      </trkpt>
      <trkpt lat="45.04951" lon="6.13999">
        <ele>1156</ele>
        <time>2024-06-04T22:11:18Z</time>
      </trkpt>
      <trkpt lat="45.04945" lon="6.14002">
        <ele>1155</ele>
        <time>2024-06-04T22:11:19Z</time>
      </trkpt>
      <trkpt lat="45.04921" lon="6.14031">
        <ele>1156</ele>
        <time>2024-06-04T22:11:24Z</time>
      </trkpt>
      <trkpt lat="45.04913" lon="6.14043">
        <ele>1155</ele>
        <time>2024-06-04T22:11:26Z</time>
      </trkpt>
      <trkpt lat="45.04903" lon="6.14068">
        <ele>1152</ele>
        <time>2024-06-04T22:11:30Z</time>
      </trkpt>
      <trkpt lat="45.0489" lon="6.14109">
        <ele>1145</ele>
        <time>2024-06-04T22:11:36Z</time>
      </trkpt>
      <trkpt lat="45.04885" lon="6.14135">
        <ele>1141</ele>
        <time>2024-06-04T22:11:39Z</time>
      </trkpt>
      <trkpt lat="45.04884" lon="6.14194">
        <ele>1137</ele>
        <time>2024-06-04T22:11:46Z</time>
      </trkpt>
      <trkpt lat="45.04889" lon="6.14316">
        <ele>1135</ele>
        <time>2024-06-04T22:12:02Z</time>
      </trkpt>
      <trkpt lat="45.04889" lon="6.14334">
        <ele>1135</ele>
        <time>2024-06-04T22:12:04Z</time>
      </trkpt>
      <trkpt lat="45.04887" lon="6.14339">
        <ele>1135</ele>
        <time>2024-06-04T22:12:05Z</time>
      </trkpt>
      <trkpt lat="45.04885" lon="6.1434">
        <ele>1134</ele>
        <time>2024-06-04T22:12:05Z</time>
      </trkpt>
      <trkpt lat="45.04878" lon="6.14337">
        <ele>1129</ele>
        <time>2024-06-04T22:12:06Z</time>
      </trkpt>
      <trkpt lat="45.04875" lon="6.14333">
        <ele>1126</ele>
        <time>2024-06-04T22:12:07Z</time>
      </trkpt>
      <trkpt lat="45.04875" lon="6.14302">
        <ele>1126</ele>
        <time>2024-06-04T22:12:11Z</time>
      </trkpt>
      <trkpt lat="45.04871" lon="6.14278">
        <ele>1124</ele>
        <time>2024-06-04T22:12:14Z</time>
      </trkpt>
      <trkpt lat="45.04842" lon="6.1418">
        <ele>1109</ele>
        <time>2024-06-04T22:12:28Z</time>
      </trkpt>
      <trkpt lat="45.04837" lon="6.14166">
        <ele>1107</ele>
        <time>2024-06-04T22:12:30Z</time>
      </trkpt>
      <trkpt lat="45.04819" lon="6.14131">
        <ele>1096</ele>
        <time>2024-06-04T22:12:35Z</time>
      </trkpt>
      <trkpt lat="45.04812" lon="6.14107">
        <ele>1093</ele>
        <time>2024-06-04T22:12:38Z</time>
      </trkpt>
      <trkpt lat="45.0481" lon="6.14092">
        <ele>1092</ele>
        <time>2024-06-04T22:12:40Z</time>
      </trkpt>
      <trkpt lat="45.04808" lon="6.14046">
        <ele>1093</ele>
        <time>2024-06-04T22:12:46Z</time>
      </trkpt>
      <trkpt lat="45.04794" lon="6.13986">
        <ele>1086</ele>
        <time>2024-06-04T22:12:54Z</time>
      </trkpt>
      <trkpt lat="45.04787" lon="6.13942">
        <ele>1084</ele>
        <time>2024-06-04T22:13:00Z</time>
      </trkpt>
      <trkpt lat="45.04782" lon="6.13929">
        <ele>1082</ele>
        <time>2024-06-04T22:13:01Z</time>
      </trkpt>
      <trkpt lat="45.04766" lon="6.13899">
        <ele>1070</ele>
        <time>2024-06-04T22:13:06Z</time>
      </trkpt>
      <trkpt lat="45.04763" lon="6.13883">
        <ele>1067</ele>
        <time>2024-06-04T22:13:08Z</time>
      </trkpt>
      <trkpt lat="45.04762" lon="6.13858">
        <ele>1064</ele>
        <time>2024-06-04T22:13:11Z</time>
      </trkpt>
      <trkpt lat="45.04758" lon="6.13852">
        <ele>1061</ele>
        <time>2024-06-04T22:13:12Z</time>
      </trkpt>
      <trkpt lat="45.04751" lon="6.13852">
        <ele>1056</ele>
        <time>2024-06-04T22:13:14Z</time>
      </trkpt>
      <trkpt lat="45.04749" lon="6.13856">
        <ele>1056</ele>
        <time>2024-06-04T22:13:14Z</time>
      </trkpt>
      <trkpt lat="45.04747" lon="6.13863">
        <ele>1055</ele>
        <time>2024-06-04T22:13:15Z</time>
      </trkpt>
      <trkpt lat="45.04748" lon="6.13882">
        <ele>1057</ele>
        <time>2024-06-04T22:13:18Z</time>
      </trkpt>
      <trkpt lat="45.04761" lon="6.13937">
        <ele>1068</ele>
        <time>2024-06-04T22:13:25Z</time>
      </trkpt>
      <trkpt lat="45.04763" lon="6.1397">
        <ele>1068</ele>
        <time>2024-06-04T22:13:29Z</time>
      </trkpt>
      <trkpt lat="45.0476" lon="6.14013">
        <ele>1063</ele>
        <time>2024-06-04T22:13:35Z</time>
      </trkpt>
      <trkpt lat="45.04763" lon="6.14105">
        <ele>1056</ele>
        <time>2024-06-04T22:13:46Z</time>
      </trkpt>
      <trkpt lat="45.04759" lon="6.1411">
        <ele>1053</ele>
        <time>2024-06-04T22:13:47Z</time>
      </trkpt>
      <trkpt lat="45.04753" lon="6.14112">
        <ele>1048</ele>
        <time>2024-06-04T22:13:48Z</time>
      </trkpt>
      <trkpt lat="45.04743" lon="6.13977">
        <ele>1055</ele>
        <time>2024-06-04T22:14:05Z</time>
      </trkpt>
      <trkpt lat="45.04737" lon="6.13952">
        <ele>1052</ele>
        <time>2024-06-04T22:14:09Z</time>
      </trkpt>
      <trkpt lat="45.04709" lon="6.13888">
        <ele>1033</ele>
        <time>2024-06-04T22:14:18Z</time>
      </trkpt>
      <trkpt lat="45.04705" lon="6.13864">
        <ele>1029</ele>
        <time>2024-06-04T22:14:21Z</time>
      </trkpt>
      <trkpt lat="45.04705" lon="6.13839">
        <ele>1027</ele>
        <time>2024-06-04T22:14:24Z</time>
      </trkpt>
      <trkpt lat="45.04704" lon="6.13828">
        <ele>1026</ele>
        <time>2024-06-04T22:14:26Z</time>
      </trkpt>
      <trkpt lat="45.047" lon="6.13817">
        <ele>1024</ele>
        <time>2024-06-04T22:14:27Z</time>
      </trkpt>
      <trkpt lat="45.04695" lon="6.13809">
        <ele>1021</ele>
        <time>2024-06-04T22:14:29Z</time>
      </trkpt>
      <trkpt lat="45.04686" lon="6.13802">
        <ele>1016</ele>
        <time>2024-06-04T22:14:30Z</time>
      </trkpt>
      <trkpt lat="45.04579" lon="6.13782">
        <ele>1001</ele>
        <time>2024-06-04T22:14:50Z</time>
      </trkpt>
      <trkpt lat="45.04563" lon="6.13775">
        <ele>1003</ele>
        <time>2024-06-04T22:14:53Z</time>
      </trkpt>
      <trkpt lat="45.04547" lon="6.13764">
        <ele>1006</ele>
        <time>2024-06-04T22:14:56Z</time>
      </trkpt>
      <trkpt lat="45.04529" lon="6.13744">
        <ele>1011</ele>
        <time>2024-06-04T22:15:00Z</time>
      </trkpt>
      <trkpt lat="45.04515" lon="6.13717">
        <ele>1018</ele>
        <time>2024-06-04T22:15:04Z</time>
      </trkpt>
      <trkpt lat="45.04508" lon="6.13693">
        <ele>1023</ele>
        <time>2024-06-04T22:15:07Z</time>
      </trkpt>
      <trkpt lat="45.04506" lon="6.13661">
        <ele>1029</ele>
        <time>2024-06-04T22:15:11Z</time>
      </trkpt>
      <trkpt lat="45.04506" lon="6.13644">
        <ele>1034</ele>
        <time>2024-06-04T22:15:13Z</time>
      </trkpt>
      <trkpt lat="45.04493" lon="6.13642">
        <ele>1036</ele>
        <time>2024-06-04T22:15:16Z</time>
      </trkpt>
      <trkpt lat="45.04455" lon="6.13594">
        <ele>1053</ele>
        <time>2024-06-04T22:15:25Z</time>
      </trkpt>
      <trkpt lat="45.04443" lon="6.13581">
        <ele>1059</ele>
        <time>2024-06-04T22:15:28Z</time>
      </trkpt>
      <trkpt lat="45.04416" lon="6.13564">
        <ele>1070</ele>
        <time>2024-06-04T22:15:33Z</time>
      </trkpt>
      <trkpt lat="45.04404" lon="6.13562">
        <ele>1073</ele>
        <time>2024-06-04T22:15:35Z</time>
      </trkpt>
      <trkpt lat="45.04393" lon="6.13564">
        <ele>1073</ele>
        <time>2024-06-04T22:15:37Z</time>
      </trkpt>
      <trkpt lat="45.0436" lon="6.13574">
        <ele>1071</ele>
        <time>2024-06-04T22:15:43Z</time>
      </trkpt>
      <trkpt lat="45.04325" lon="6.13594">
        <ele>1067</ele>
        <time>2024-06-04T22:15:50Z</time>
      </trkpt>
      <trkpt lat="45.04314" lon="6.13598">
        <ele>1067</ele>
        <time>2024-06-04T22:15:52Z</time>
      </trkpt>
      <trkpt lat="45.04231" lon="6.13606">
        <ele>1076</ele>
        <time>2024-06-04T22:16:06Z</time>
      </trkpt>
      <trkpt lat="45.04191" lon="6.13599">
        <ele>1082</ele>
        <time>2024-06-04T22:16:14Z</time>
      </trkpt>
      <trkpt lat="45.04175" lon="6.136">
        <ele>1083</ele>
        <time>2024-06-04T22:16:16Z</time>
      </trkpt>
      <trkpt lat="45.04131" lon="6.13613">
        <ele>1080</ele>
        <time>2024-06-04T22:16:24Z</time>
      </trkpt>
      <trkpt lat="45.04008" lon="6.13596">
        <ele>1094</ele>
        <time>2024-06-04T22:16:46Z</time>
      </trkpt>
      <trkpt lat="45.0395" lon="6.1358">
        <ele>1104</ele>
        <time>2024-06-04T22:16:57Z</time>
      </trkpt>
      <trkpt lat="45.0392" lon="6.13575">
        <ele>1108</ele>
        <time>2024-06-04T22:17:02Z</time>
      </trkpt>
      <trkpt lat="45.0391" lon="6.13575">
        <ele>1110</ele>
        <time>2024-06-04T22:17:04Z</time>
      </trkpt>
      <trkpt lat="45.03901" lon="6.13578">
        <ele>1111</ele>
        <time>2024-06-04T22:17:06Z</time>
      </trkpt>
      <trkpt lat="45.03892" lon="6.13585">
        <ele>1111</ele>
        <time>2024-06-04T22:17:08Z</time>
      </trkpt>
      <trkpt lat="45.03886" lon="6.13593">
        <ele>1110</ele>
        <time>2024-06-04T22:17:09Z</time>
      </trkpt>
      <trkpt lat="45.03878" lon="6.13622">
        <ele>1106</ele>
        <time>2024-06-04T22:17:13Z</time>
      </trkpt>
      <trkpt lat="45.03872" lon="6.13633">
        <ele>1105</ele>
        <time>2024-06-04T22:17:15Z</time>
      </trkpt>
      <trkpt lat="45.03866" lon="6.13634">
        <ele>1107</ele>
        <time>2024-06-04T22:17:16Z</time>
      </trkpt>
      <trkpt lat="45.03861" lon="6.1363">
        <ele>1109</ele>
        <time>2024-06-04T22:17:17Z</time>
      </trkpt>
      <trkpt lat="45.03859" lon="6.13623">
        <ele>1111</ele>
        <time>2024-06-04T22:17:18Z</time>
      </trkpt>
      <trkpt lat="45.03858" lon="6.13607">
        <ele>1114</ele>
        <time>2024-06-04T22:17:20Z</time>
      </trkpt>
      <trkpt lat="45.03863" lon="6.13589">
        <ele>1116</ele>
        <time>2024-06-04T22:17:22Z</time>
      </trkpt>
      <trkpt lat="45.03871" lon="6.13572">
        <ele>1118</ele>
        <time>2024-06-04T22:17:25Z</time>
      </trkpt>
      <trkpt lat="45.03884" lon="6.13552">
        <ele>1122</ele>
        <time>2024-06-04T22:17:28Z</time>
      </trkpt>
      <trkpt lat="45.03898" lon="6.13542">
        <ele>1122</ele>
        <time>2024-06-04T22:17:31Z</time>
      </trkpt>
      <trkpt lat="45.03953" lon="6.13535">
        <ele>1119</ele>
        <time>2024-06-04T22:17:41Z</time>
      </trkpt>
      <trkpt lat="45.03975" lon="6.13529">
        <ele>1119</ele>
        <time>2024-06-04T22:17:45Z</time>
      </trkpt>
      <trkpt lat="45.03982" lon="6.13523">
        <ele>1120</ele>
        <time>2024-06-04T22:17:46Z</time>
      </trkpt>
      <trkpt lat="45.03985" lon="6.13516">
        <ele>1123</ele>
        <time>2024-06-04T22:17:47Z</time>
      </trkpt>
      <trkpt lat="45.03985" lon="6.13508">
        <ele>1125</ele>
        <time>2024-06-04T22:17:48Z</time>
      </trkpt>
      <trkpt lat="45.03982" lon="6.13502">
        <ele>1127</ele>
        <time>2024-06-04T22:17:49Z</time>
      </trkpt>
      <trkpt lat="45.03974" lon="6.135">
        <ele>1129</ele>
        <time>2024-06-04T22:17:51Z</time>
      </trkpt>
      <trkpt lat="45.03959" lon="6.13508">
        <ele>1127</ele>
        <time>2024-06-04T22:17:54Z</time>
      </trkpt>
      <trkpt lat="45.0395" lon="6.1351">
        <ele>1127</ele>
        <time>2024-06-04T22:17:55Z</time>
      </trkpt>
      <trkpt lat="45.03931" lon="6.13508">
        <ele>1129</ele>
        <time>2024-06-04T22:17:59Z</time>
      </trkpt>
      <trkpt lat="45.03885" lon="6.13489">
        <ele>1140</ele>
        <time>2024-06-04T22:18:07Z</time>
      </trkpt>
      <trkpt lat="45.03871" lon="6.13486">
        <ele>1142</ele>
        <time>2024-06-04T22:18:10Z</time>
      </trkpt>
      <trkpt lat="45.03841" lon="6.13485">
        <ele>1146</ele>
        <time>2024-06-04T22:18:15Z</time>
      </trkpt>
      <trkpt lat="45.03819" lon="6.13491">
        <ele>1151</ele>
        <time>2024-06-04T22:18:19Z</time>
      </trkpt>
      <trkpt lat="45.03807" lon="6.135">
        <ele>1154</ele>
        <time>2024-06-04T22:18:21Z</time>
      </trkpt>
      <trkpt lat="45.03797" lon="6.13513">
        <ele>1155</ele>
        <time>2024-06-04T22:18:24Z</time>
      </trkpt>
      <trkpt lat="45.03775" lon="6.13551">
        <ele>1156</ele>
        <time>2024-06-04T22:18:30Z</time>
      </trkpt>
      <trkpt lat="45.03753" lon="6.13602">
        <ele>1154</ele>
        <time>2024-06-04T22:18:37Z</time>
      </trkpt>
      <trkpt lat="45.03738" lon="6.13651">
        <ele>1152</ele>
        <time>2024-06-04T22:18:44Z</time>
      </trkpt>
      <trkpt lat="45.03733" lon="6.13679">
        <ele>1146</ele>
        <time>2024-06-04T22:18:48Z</time>
      </trkpt>
      <trkpt lat="45.03726" lon="6.13688">
        <ele>1147</ele>
        <time>2024-06-04T22:18:49Z</time>
      </trkpt>
      <trkpt lat="45.03717" lon="6.13686">
        <ele>1153</ele>
        <time>2024-06-04T22:18:51Z</time>
      </trkpt>
      <trkpt lat="45.03713" lon="6.13679">
        <ele>1158</ele>
        <time>2024-06-04T22:18:52Z</time>
      </trkpt>
      <trkpt lat="45.03712" lon="6.1367">
        <ele>1162</ele>
        <time>2024-06-04T22:18:53Z</time>
      </trkpt>
      <trkpt lat="45.03713" lon="6.13659">
        <ele>1164</ele>
        <time>2024-06-04T22:18:55Z</time>
      </trkpt>
      <trkpt lat="45.03725" lon="6.13625">
        <ele>1165</ele>
        <time>2024-06-04T22:19:00Z</time>
      </trkpt>
      <trkpt lat="45.03731" lon="6.13603">
        <ele>1166</ele>
        <time>2024-06-04T22:19:02Z</time>
      </trkpt>
      <trkpt lat="45.03746" lon="6.13533">
        <ele>1172</ele>
        <time>2024-06-04T22:19:12Z</time>
      </trkpt>
      <trkpt lat="45.03755" lon="6.13499">
        <ele>1175</ele>
        <time>2024-06-04T22:19:16Z</time>
      </trkpt>
      <trkpt lat="45.03761" lon="6.13466">
        <ele>1180</ele>
        <time>2024-06-04T22:19:21Z</time>
      </trkpt>
      <trkpt lat="45.03768" lon="6.13436">
        <ele>1183</ele>
        <time>2024-06-04T22:19:24Z</time>
      </trkpt>
      <trkpt lat="45.03777" lon="6.13413">
        <ele>1185</ele>
        <time>2024-06-04T22:19:28Z</time>
      </trkpt>
      <trkpt lat="45.03786" lon="6.13396">
        <ele>1188</ele>
        <time>2024-06-04T22:19:30Z</time>
      </trkpt>
      <trkpt lat="45.03796" lon="6.13383">
        <ele>1189</ele>
        <time>2024-06-04T22:19:33Z</time>
      </trkpt>
      <trkpt lat="45.03813" lon="6.13365">
        <ele>1189</ele>
        <time>2024-06-04T22:19:37Z</time>
      </trkpt>
      <trkpt lat="45.03834" lon="6.1335">
        <ele>1188</ele>
        <time>2024-06-04T22:19:41Z</time>
      </trkpt>
      <trkpt lat="45.03851" lon="6.13345">
        <ele>1190</ele>
        <time>2024-06-04T22:19:44Z</time>
      </trkpt>
      <trkpt lat="45.03867" lon="6.13344">
        <ele>1191</ele>
        <time>2024-06-04T22:19:47Z</time>
      </trkpt>
      <trkpt lat="45.03932" lon="6.1337">
        <ele>1181</ele>
        <time>2024-06-04T22:19:59Z</time>
      </trkpt>
      <trkpt lat="45.03946" lon="6.13372">
        <ele>1180</ele>
        <time>2024-06-04T22:20:01Z</time>
      </trkpt>
      <trkpt lat="45.0396" lon="6.13369">
        <ele>1181</ele>
        <time>2024-06-04T22:20:04Z</time>
      </trkpt>
      <trkpt lat="45.04002" lon="6.1334">
        <ele>1192</ele>
        <time>2024-06-04T22:20:12Z</time>
      </trkpt>
      <trkpt lat="45.04025" lon="6.13329">
        <ele>1195</ele>
        <time>2024-06-04T22:20:16Z</time>
      </trkpt>
      <trkpt lat="45.04104" lon="6.13311">
        <ele>1198</ele>
        <time>2024-06-04T22:20:31Z</time>
      </trkpt>
      <trkpt lat="45.04147" lon="6.1329">
        <ele>1203</ele>
        <time>2024-06-04T22:20:39Z</time>
      </trkpt>
      <trkpt lat="45.0419" lon="6.13284">
        <ele>1203</ele>
        <time>2024-06-04T22:20:46Z</time>
      </trkpt>
      <trkpt lat="45.04246" lon="6.13261">
        <ele>1207</ele>
        <time>2024-06-04T22:20:57Z</time>
      </trkpt>
      <trkpt lat="45.04276" lon="6.13254">
        <ele>1201</ele>
        <time>2024-06-04T22:21:02Z</time>
      </trkpt>
      <trkpt lat="45.04282" lon="6.13248">
        <ele>1200</ele>
        <time>2024-06-04T22:21:04Z</time>
      </trkpt>
      <trkpt lat="45.04284" lon="6.13237">
        <ele>1196</ele>
        <time>2024-06-04T22:21:05Z</time>
      </trkpt>
      <trkpt lat="45.04279" lon="6.13228">
        <ele>1195</ele>
        <time>2024-06-04T22:21:06Z</time>
      </trkpt>
      <trkpt lat="45.04269" lon="6.13228">
        <ele>1198</ele>
        <time>2024-06-04T22:21:08Z</time>
      </trkpt>
      <trkpt lat="45.0425" lon="6.13238">
        <ele>1206</ele>
        <time>2024-06-04T22:21:12Z</time>
      </trkpt>
      <trkpt lat="45.04234" lon="6.13242">
        <ele>1209</ele>
        <time>2024-06-04T22:21:15Z</time>
      </trkpt>
      <trkpt lat="45.04139" lon="6.13246">
        <ele>1219</ele>
        <time>2024-06-04T22:21:32Z</time>
      </trkpt>
      <trkpt lat="45.04059" lon="6.13228">
        <ele>1232</ele>
        <time>2024-06-04T22:21:46Z</time>
      </trkpt>
      <trkpt lat="45.0395" lon="6.13225">
        <ele>1238</ele>
        <time>2024-06-04T22:22:05Z</time>
      </trkpt>
      <trkpt lat="45.03878" lon="6.13208">
        <ele>1246</ele>
        <time>2024-06-04T22:22:18Z</time>
      </trkpt>
      <trkpt lat="45.03858" lon="6.13203">
        <ele>1247</ele>
        <time>2024-06-04T22:22:22Z</time>
      </trkpt>
      <trkpt lat="45.03817" lon="6.13197">
        <ele>1251</ele>
        <time>2024-06-04T22:22:29Z</time>
      </trkpt>
      <trkpt lat="45.03798" lon="6.13198">
        <ele>1254</ele>
        <time>2024-06-04T22:22:33Z</time>
      </trkpt>
      <trkpt lat="45.03707" lon="6.13211">
        <ele>1261</ele>
        <time>2024-06-04T22:22:49Z</time>
      </trkpt>
      <trkpt lat="45.03697" lon="6.13217">
        <ele>1260</ele>
        <time>2024-06-04T22:22:51Z</time>
      </trkpt>
      <trkpt lat="45.03679" lon="6.13222">
        <ele>1262</ele>
        <time>2024-06-04T22:22:54Z</time>
      </trkpt>
      <trkpt lat="45.03675" lon="6.13221">
        <ele>1262</ele>
        <time>2024-06-04T22:22:55Z</time>
      </trkpt>
      <trkpt lat="45.03667" lon="6.13225">
        <ele>1263</ele>
        <time>2024-06-04T22:22:56Z</time>
      </trkpt>
      <trkpt lat="45.03658" lon="6.13264">
        <ele>1262</ele>
        <time>2024-06-04T22:23:02Z</time>
      </trkpt>
      <trkpt lat="45.03651" lon="6.13271">
        <ele>1265</ele>
        <time>2024-06-04T22:23:03Z</time>
      </trkpt>
      <trkpt lat="45.03637" lon="6.13274">
        <ele>1271</ele>
        <time>2024-06-04T22:23:06Z</time>
      </trkpt>
      <trkpt lat="45.03623" lon="6.13269">
        <ele>1277</ele>
        <time>2024-06-04T22:23:08Z</time>
      </trkpt>
      <trkpt lat="45.03612" lon="6.13256">
        <ele>1283</ele>
        <time>2024-06-04T22:23:11Z</time>
      </trkpt>
      <trkpt lat="45.03608" lon="6.13247">
        <ele>1284</ele>
        <time>2024-06-04T22:23:12Z</time>
      </trkpt>
      <trkpt lat="45.03597" lon="6.13198">
        <ele>1285</ele>
        <time>2024-06-04T22:23:19Z</time>
      </trkpt>
      <trkpt lat="45.0359" lon="6.1318">
        <ele>1285</ele>
        <time>2024-06-04T22:23:21Z</time>
      </trkpt>
      <trkpt lat="45.03582" lon="6.13164">
        <ele>1285</ele>
        <time>2024-06-04T22:23:24Z</time>
      </trkpt>
      <trkpt lat="45.03523" lon="6.13074">
        <ele>1300</ele>
        <time>2024-06-04T22:23:39Z</time>
      </trkpt>
      <trkpt lat="45.03514" lon="6.13056">
        <ele>1299</ele>
        <time>2024-06-04T22:23:42Z</time>
      </trkpt>
      <trkpt lat="45.03484" lon="6.12978">
        <ele>1288</ele>
        <time>2024-06-04T22:23:53Z</time>
      </trkpt>
      <trkpt lat="45.03475" lon="6.12959">
        <ele>1288</ele>
        <time>2024-06-04T22:23:56Z</time>
      </trkpt>
      <trkpt lat="45.03458" lon="6.12934">
        <ele>1288</ele>
        <time>2024-06-04T22:24:00Z</time>
      </trkpt>
      <trkpt lat="45.03445" lon="6.12921">
        <ele>1289</ele>
        <time>2024-06-04T22:24:03Z</time>
      </trkpt>
      <trkpt lat="45.03372" lon="6.1286">
        <ele>1301</ele>
        <time>2024-06-04T22:24:18Z</time>
      </trkpt>
      <trkpt lat="45.03351" lon="6.12837">
        <ele>1302</ele>
        <time>2024-06-04T22:24:23Z</time>
      </trkpt>
      <trkpt lat="45.03301" lon="6.12763">
        <ele>1302</ele>
        <time>2024-06-04T22:24:36Z</time>
      </trkpt>
      <trkpt lat="45.03278" lon="6.12719">
        <ele>1299</ele>
        <time>2024-06-04T22:24:43Z</time>
      </trkpt>
      <trkpt lat="45.03266" lon="6.12693">
        <ele>1297</ele>
        <time>2024-06-04T22:24:47Z</time>
      </trkpt>
      <trkpt lat="45.03205" lon="6.12543">
        <ele>1294</ele>
        <time>2024-06-04T22:25:08Z</time>
      </trkpt>
      <trkpt lat="45.03193" lon="6.1251">
        <ele>1292</ele>
        <time>2024-06-04T22:25:13Z</time>
      </trkpt>
      <trkpt lat="45.03187" lon="6.12486">
        <ele>1295</ele>
        <time>2024-06-04T22:25:16Z</time>
      </trkpt>
      <trkpt lat="45.03189" lon="6.12462">
        <ele>1299</ele>
        <time>2024-06-04T22:25:19Z</time>
      </trkpt>
      <trkpt lat="45.03193" lon="6.12452">
        <ele>1300</ele>
        <time>2024-06-04T22:25:21Z</time>
      </trkpt>
      <trkpt lat="45.032" lon="6.12441">
        <ele>1300</ele>
        <time>2024-06-04T22:25:23Z</time>
      </trkpt>
      <trkpt lat="45.03208" lon="6.12434">
        <ele>1299</ele>
        <time>2024-06-04T22:25:24Z</time>
      </trkpt>
      <trkpt lat="45.03293" lon="6.124">
        <ele>1285</ele>
        <time>2024-06-04T22:25:40Z</time>
      </trkpt>
      <trkpt lat="45.03303" lon="6.12392">
        <ele>1284</ele>
        <time>2024-06-04T22:25:42Z</time>
      </trkpt>
      <trkpt lat="45.03312" lon="6.12379">
        <ele>1285</ele>
        <time>2024-06-04T22:25:44Z</time>
      </trkpt>
      <trkpt lat="45.03319" lon="6.12367">
        <ele>1286</ele>
        <time>2024-06-04T22:25:46Z</time>
      </trkpt>
      <trkpt lat="45.03332" lon="6.12325">
        <ele>1291</ele>
        <time>2024-06-04T22:25:52Z</time>
      </trkpt>
      <trkpt lat="45.03344" lon="6.12263">
        <ele>1295</ele>
        <time>2024-06-04T22:26:00Z</time>
      </trkpt>
      <trkpt lat="45.03347" lon="6.12221">
        <ele>1298</ele>
        <time>2024-06-04T22:26:05Z</time>
      </trkpt>
      <trkpt lat="45.03358" lon="6.12066">
        <ele>1309</ele>
        <time>2024-06-04T22:26:25Z</time>
      </trkpt>
      <trkpt lat="45.03371" lon="6.11974">
        <ele>1317</ele>
        <time>2024-06-04T22:26:37Z</time>
      </trkpt>
      <trkpt lat="45.03376" lon="6.11849">
        <ele>1330</ele>
        <time>2024-06-04T22:26:52Z</time>
      </trkpt>
      <trkpt lat="45.03375" lon="6.11745">
        <ele>1339</ele>
        <time>2024-06-04T22:27:06Z</time>
      </trkpt>
      <trkpt lat="45.03372" lon="6.11707">
        <ele>1342</ele>
        <time>2024-06-04T22:27:10Z</time>
      </trkpt>
      <trkpt lat="45.03368" lon="6.11684">
        <ele>1344</ele>
        <time>2024-06-04T22:27:13Z</time>
      </trkpt>
      <trkpt lat="45.03364" lon="6.11664">
        <ele>1347</ele>
        <time>2024-06-04T22:27:16Z</time>
      </trkpt>
      <trkpt lat="45.03363" lon="6.11646">
        <ele>1347</ele>
        <time>2024-06-04T22:27:18Z</time>
      </trkpt>
      <trkpt lat="45.03375" lon="6.1153">
        <ele>1343</ele>
        <time>2024-06-04T22:27:33Z</time>
      </trkpt>
      <trkpt lat="45.03376" lon="6.11434">
        <ele>1349</ele>
        <time>2024-06-04T22:27:45Z</time>
      </trkpt>
      <trkpt lat="45.03369" lon="6.11358">
        <ele>1356</ele>
        <time>2024-06-04T22:27:55Z</time>
      </trkpt>
      <trkpt lat="45.03361" lon="6.11224">
        <ele>1362</ele>
        <time>2024-06-04T22:28:12Z</time>
      </trkpt>
      <trkpt lat="45.03354" lon="6.11218">
        <ele>1366</ele>
        <time>2024-06-04T22:28:13Z</time>
      </trkpt>
      <trkpt lat="45.03348" lon="6.11222">
        <ele>1368</ele>
        <time>2024-06-04T22:28:14Z</time>
      </trkpt>
      <trkpt lat="45.03345" lon="6.11232">
        <ele>1370</ele>
        <time>2024-06-04T22:28:16Z</time>
      </trkpt>
      <trkpt lat="45.03349" lon="6.11256">
        <ele>1367</ele>
        <time>2024-06-04T22:28:19Z</time>
      </trkpt>
      <trkpt lat="45.03348" lon="6.11299">
        <ele>1368</ele>
        <time>2024-06-04T22:28:24Z</time>
      </trkpt>
      <trkpt lat="45.0333" lon="6.11389">
        <ele>1373</ele>
        <time>2024-06-04T22:28:36Z</time>
      </trkpt>
      <trkpt lat="45.03321" lon="6.11429">
        <ele>1375</ele>
        <time>2024-06-04T22:28:41Z</time>
      </trkpt>
      <trkpt lat="45.03292" lon="6.11504">
        <ele>1388</ele>
        <time>2024-06-04T22:28:52Z</time>
      </trkpt>
      <trkpt lat="45.03278" lon="6.1156">
        <ele>1396</ele>
        <time>2024-06-04T22:28:59Z</time>
      </trkpt>
      <trkpt lat="45.03277" lon="6.11581">
        <ele>1396</ele>
        <time>2024-06-04T22:29:02Z</time>
      </trkpt>
      <trkpt lat="45.0329" lon="6.11721">
        <ele>1400</ele>
        <time>2024-06-04T22:29:20Z</time>
      </trkpt>
      <trkpt lat="45.03288" lon="6.11762">
        <ele>1403</ele>
        <time>2024-06-04T22:29:25Z</time>
      </trkpt>
      <trkpt lat="45.03277" lon="6.1181">
        <ele>1406</ele>
        <time>2024-06-04T22:29:31Z</time>
      </trkpt>
      <trkpt lat="45.03258" lon="6.11861">
        <ele>1410</ele>
        <time>2024-06-04T22:29:39Z</time>
      </trkpt>
      <trkpt lat="45.03217" lon="6.11931">
        <ele>1414</ele>
        <time>2024-06-04T22:29:50Z</time>
      </trkpt>
      <trkpt lat="45.03155" lon="6.1202">
        <ele>1425</ele>
        <time>2024-06-04T22:30:06Z</time>
      </trkpt>
      <trkpt lat="45.03131" lon="6.12067">
        <ele>1430</ele>
        <time>2024-06-04T22:30:13Z</time>
      </trkpt>
      <trkpt lat="45.03113" lon="6.12097">
        <ele>1434</ele>
        <time>2024-06-04T22:30:18Z</time>
      </trkpt>
      <trkpt lat="45.03094" lon="6.12158">
        <ele>1430</ele>
        <time>2024-06-04T22:30:26Z</time>
      </trkpt>
      <trkpt lat="45.03087" lon="6.12174">
        <ele>1429</ele>
        <time>2024-06-04T22:30:29Z</time>
      </trkpt>
      <trkpt lat="45.03077" lon="6.12183">
        <ele>1430</ele>
        <time>2024-06-04T22:30:31Z</time>
      </trkpt>
      <trkpt lat="45.03052" lon="6.12202">
        <ele>1431</ele>
        <time>2024-06-04T22:30:36Z</time>
      </trkpt>
      <trkpt lat="45.03034" lon="6.12211">
        <ele>1433</ele>
        <time>2024-06-04T22:30:39Z</time>
      </trkpt>
      <trkpt lat="45.02974" lon="6.12226">
        <ele>1441</ele>
        <time>2024-06-04T22:30:50Z</time>
      </trkpt>
      <trkpt lat="45.02942" lon="6.1223">
        <ele>1445</ele>
        <time>2024-06-04T22:30:56Z</time>
      </trkpt>
      <trkpt lat="45.02921" lon="6.12228">
        <ele>1450</ele>
        <time>2024-06-04T22:31:00Z</time>
      </trkpt>
      <trkpt lat="45.02913" lon="6.12229">
        <ele>1451</ele>
        <time>2024-06-04T22:31:01Z</time>
      </trkpt>
      <trkpt lat="45.02906" lon="6.12232">
        <ele>1451</ele>
        <time>2024-06-04T22:31:02Z</time>
      </trkpt>
      <trkpt lat="45.02883" lon="6.12251">
        <ele>1449</ele>
        <time>2024-06-04T22:31:07Z</time>
      </trkpt>
      <trkpt lat="45.02874" lon="6.12247">
        <ele>1452</ele>
        <time>2024-06-04T22:31:09Z</time>
      </trkpt>
      <trkpt lat="45.02872" lon="6.12241">
        <ele>1455</ele>
        <time>2024-06-04T22:31:10Z</time>
      </trkpt>
      <trkpt lat="45.02872" lon="6.12232">
        <ele>1458</ele>
        <time>2024-06-04T22:31:11Z</time>
      </trkpt>
      <trkpt lat="45.02877" lon="6.12224">
        <ele>1460</ele>
        <time>2024-06-04T22:31:12Z</time>
      </trkpt>
      <trkpt lat="45.02883" lon="6.12219">
        <ele>1460</ele>
        <time>2024-06-04T22:31:13Z</time>
      </trkpt>
      <trkpt lat="45.02945" lon="6.12204">
        <ele>1454</ele>
        <time>2024-06-04T22:31:24Z</time>
      </trkpt>
      <trkpt lat="45.02969" lon="6.12191">
        <ele>1454</ele>
        <time>2024-06-04T22:31:29Z</time>
      </trkpt>
      <trkpt lat="45.02997" lon="6.12167">
        <ele>1456</ele>
        <time>2024-06-04T22:31:35Z</time>
      </trkpt>
      <trkpt lat="45.03008" lon="6.12155">
        <ele>1457</ele>
        <time>2024-06-04T22:31:37Z</time>
      </trkpt>
      <trkpt lat="45.0302" lon="6.12139">
        <ele>1459</ele>
        <time>2024-06-04T22:31:40Z</time>
      </trkpt>
      <trkpt lat="45.03051" lon="6.12081">
        <ele>1466</ele>
        <time>2024-06-04T22:31:49Z</time>
      </trkpt>
      <trkpt lat="45.03055" lon="6.12072">
        <ele>1466</ele>
        <time>2024-06-04T22:31:51Z</time>
      </trkpt>
      <trkpt lat="45.03054" lon="6.12063">
        <ele>1468</ele>
        <time>2024-06-04T22:31:52Z</time>
      </trkpt>
      <trkpt lat="45.03051" lon="6.12057">
        <ele>1471</ele>
        <time>2024-06-04T22:31:53Z</time>
      </trkpt>
      <trkpt lat="45.03048" lon="6.12054">
        <ele>1472</ele>
        <time>2024-06-04T22:31:53Z</time>
      </trkpt>
      <trkpt lat="45.03039" lon="6.12057">
        <ele>1475</ele>
        <time>2024-06-04T22:31:55Z</time>
      </trkpt>
      <trkpt lat="45.03036" lon="6.12061">
        <ele>1476</ele>
        <time>2024-06-04T22:31:56Z</time>
      </trkpt>
      <trkpt lat="45.03029" lon="6.12092">
        <ele>1470</ele>
        <time>2024-06-04T22:32:00Z</time>
      </trkpt>
      <trkpt lat="45.03016" lon="6.12115">
        <ele>1468</ele>
        <time>2024-06-04T22:32:04Z</time>
      </trkpt>
      <trkpt lat="45.02995" lon="6.12133">
        <ele>1468</ele>
        <time>2024-06-04T22:32:08Z</time>
      </trkpt>
      <trkpt lat="45.02961" lon="6.12145">
        <ele>1471</ele>
        <time>2024-06-04T22:32:14Z</time>
      </trkpt>
      <trkpt lat="45.02947" lon="6.12147">
        <ele>1473</ele>
        <time>2024-06-04T22:32:17Z</time>
      </trkpt>
      <trkpt lat="45.02926" lon="6.12146">
        <ele>1478</ele>
        <time>2024-06-04T22:32:20Z</time>
      </trkpt>
      <trkpt lat="45.02906" lon="6.12139">
        <ele>1485</ele>
        <time>2024-06-04T22:32:24Z</time>
      </trkpt>
      <trkpt lat="45.02899" lon="6.12138">
        <ele>1486</ele>
        <time>2024-06-04T22:32:25Z</time>
      </trkpt>
      <trkpt lat="45.02879" lon="6.12147">
        <ele>1487</ele>
        <time>2024-06-04T22:32:29Z</time>
      </trkpt>
      <trkpt lat="45.02845" lon="6.1217">
        <ele>1485</ele>
        <time>2024-06-04T22:32:36Z</time>
      </trkpt>
      <trkpt lat="45.0284" lon="6.1217">
        <ele>1486</ele>
        <time>2024-06-04T22:32:37Z</time>
      </trkpt>
      <trkpt lat="45.02835" lon="6.12167">
        <ele>1489</ele>
        <time>2024-06-04T22:32:38Z</time>
      </trkpt>
      <trkpt lat="45.02832" lon="6.12162">
        <ele>1491</ele>
        <time>2024-06-04T22:32:38Z</time>
      </trkpt>
      <trkpt lat="45.02832" lon="6.12154">
        <ele>1494</ele>
        <time>2024-06-04T22:32:39Z</time>
      </trkpt>
      <trkpt lat="45.02834" lon="6.12147">
        <ele>1496</ele>
        <time>2024-06-04T22:32:40Z</time>
      </trkpt>
      <trkpt lat="45.02839" lon="6.12142">
        <ele>1497</ele>
        <time>2024-06-04T22:32:42Z</time>
      </trkpt>
      <trkpt lat="45.02863" lon="6.12136">
        <ele>1495</ele>
        <time>2024-06-04T22:32:46Z</time>
      </trkpt>
      <trkpt lat="45.02871" lon="6.12131">
        <ele>1495</ele>
        <time>2024-06-04T22:32:47Z</time>
      </trkpt>
      <trkpt lat="45.02892" lon="6.12112">
        <ele>1498</ele>
        <time>2024-06-04T22:32:52Z</time>
      </trkpt>
      <trkpt lat="45.02903" lon="6.12107">
        <ele>1497</ele>
        <time>2024-06-04T22:32:54Z</time>
      </trkpt>
      <trkpt lat="45.02932" lon="6.12099">
        <ele>1494</ele>
        <time>2024-06-04T22:32:59Z</time>
      </trkpt>
      <trkpt lat="45.02945" lon="6.12092">
        <ele>1493</ele>
        <time>2024-06-04T22:33:02Z</time>
      </trkpt>
      <trkpt lat="45.02966" lon="6.12072">
        <ele>1495</ele>
        <time>2024-06-04T22:33:06Z</time>
      </trkpt>
      <trkpt lat="45.02973" lon="6.12062">
        <ele>1496</ele>
        <time>2024-06-04T22:33:08Z</time>
      </trkpt>
      <trkpt lat="45.02979" lon="6.12049">
        <ele>1499</ele>
        <time>2024-06-04T22:33:10Z</time>
      </trkpt>
      <trkpt lat="45.03042" lon="6.11838">
        <ele>1526</ele>
        <time>2024-06-04T22:33:39Z</time>
      </trkpt>
      <trkpt lat="45.0306" lon="6.1179">
        <ele>1526</ele>
        <time>2024-06-04T22:33:45Z</time>
      </trkpt>
      <trkpt lat="45.03098" lon="6.11706">
        <ele>1514</ele>
        <time>2024-06-04T22:33:58Z</time>
      </trkpt>
      <trkpt lat="45.03098" lon="6.11698">
        <ele>1514</ele>
        <time>2024-06-04T22:33:59Z</time>
      </trkpt>
      <trkpt lat="45.03094" lon="6.11688">
        <ele>1516</ele>
        <time>2024-06-04T22:34:00Z</time>
      </trkpt>
      <trkpt lat="45.03089" lon="6.11687">
        <ele>1518</ele>
        <time>2024-06-04T22:34:01Z</time>
      </trkpt>
      <trkpt lat="45.03084" lon="6.11687">
        <ele>1521</ele>
        <time>2024-06-04T22:34:02Z</time>
      </trkpt>
      <trkpt lat="45.03077" lon="6.117">
        <ele>1525</ele>
        <time>2024-06-04T22:34:04Z</time>
      </trkpt>
      <trkpt lat="45.03066" lon="6.11737">
        <ele>1531</ele>
        <time>2024-06-04T22:34:09Z</time>
      </trkpt>
      <trkpt lat="45.03017" lon="6.11813">
        <ele>1545</ele>
        <time>2024-06-04T22:34:22Z</time>
      </trkpt>
      <trkpt lat="45.02974" lon="6.11886">
        <ele>1547</ele>
        <time>2024-06-04T22:34:34Z</time>
      </trkpt>
      <trkpt lat="45.02927" lon="6.11951">
        <ele>1549</ele>
        <time>2024-06-04T22:34:46Z</time>
      </trkpt>
      <trkpt lat="45.02917" lon="6.11959">
        <ele>1551</ele>
        <time>2024-06-04T22:34:48Z</time>
      </trkpt>
      <trkpt lat="45.02894" lon="6.11969">
        <ele>1554</ele>
        <time>2024-06-04T22:34:52Z</time>
      </trkpt>
      <trkpt lat="45.02863" lon="6.11977">
        <ele>1559</ele>
        <time>2024-06-04T22:34:58Z</time>
      </trkpt>
      <trkpt lat="45.02794" lon="6.1201">
        <ele>1562</ele>
        <time>2024-06-04T22:35:11Z</time>
      </trkpt>
      <trkpt lat="45.02775" lon="6.12015">
        <ele>1564</ele>
        <time>2024-06-04T22:35:14Z</time>
      </trkpt>
      <trkpt lat="45.02681" lon="6.12027">
        <ele>1570</ele>
        <time>2024-06-04T22:35:31Z</time>
      </trkpt>
      <trkpt lat="45.02636" lon="6.12023">
        <ele>1575</ele>
        <time>2024-06-04T22:35:39Z</time>
      </trkpt>
      <trkpt lat="45.02595" lon="6.12025">
        <ele>1577</ele>
        <time>2024-06-04T22:35:46Z</time>
      </trkpt>
      <trkpt lat="45.02564" lon="6.12032">
        <ele>1581</ele>
        <time>2024-06-04T22:35:52Z</time>
      </trkpt>
      <trkpt lat="45.02392" lon="6.12101">
        <ele>1597</ele>
        <time>2024-06-04T22:36:24Z</time>
      </trkpt>
      <trkpt lat="45.02342" lon="6.12123">
        <ele>1601</ele>
        <time>2024-06-04T22:36:33Z</time>
      </trkpt>
      <trkpt lat="45.0233" lon="6.12135">
        <ele>1601</ele>
        <time>2024-06-04T22:36:36Z</time>
      </trkpt>
      <trkpt lat="45.02316" lon="6.12152">
        <ele>1601</ele>
        <time>2024-06-04T22:36:39Z</time>
      </trkpt>
      <trkpt lat="45.02294" lon="6.12186">
        <ele>1600</ele>
        <time>2024-06-04T22:36:45Z</time>
      </trkpt>
      <trkpt lat="45.02283" lon="6.12197">
        <ele>1601</ele>
        <time>2024-06-04T22:36:47Z</time>
      </trkpt>
      <trkpt lat="45.02271" lon="6.12205">
        <ele>1602</ele>
        <time>2024-06-04T22:36:50Z</time>
      </trkpt>
      <trkpt lat="45.0219" lon="6.1224">
        <ele>1615</ele>
        <time>2024-06-04T22:37:05Z</time>
      </trkpt>
      <trkpt lat="45.02135" lon="6.1227">
        <ele>1626</ele>
        <time>2024-06-04T22:37:15Z</time>
      </trkpt>
      <trkpt lat="45.02061" lon="6.12317">
        <ele>1633</ele>
        <time>2024-06-04T22:37:30Z</time>
      </trkpt>
      <trkpt lat="45.02028" lon="6.12335">
        <ele>1634</ele>
        <time>2024-06-04T22:37:36Z</time>
      </trkpt>
      <trkpt lat="45.01972" lon="6.12373">
        <ele>1640</ele>
        <time>2024-06-04T22:37:47Z</time>
      </trkpt>
      <trkpt lat="45.01922" lon="6.12421">
        <ele>1646</ele>
        <time>2024-06-04T22:37:58Z</time>
      </trkpt>
      <trkpt lat="45.01909" lon="6.1243">
        <ele>1647</ele>
        <time>2024-06-04T22:38:00Z</time>
      </trkpt>
      <trkpt lat="45.01884" lon="6.12445">
        <ele>1650</ele>
        <time>2024-06-04T22:38:05Z</time>
      </trkpt>
      <trkpt lat="45.0187" lon="6.12449">
        <ele>1651</ele>
        <time>2024-06-04T22:38:08Z</time>
      </trkpt>
      <trkpt lat="45.01803" lon="6.1246">
        <ele>1655</ele>
        <time>2024-06-04T22:38:20Z</time>
      </trkpt>
      <trkpt lat="45.01767" lon="6.12484">
        <ele>1655</ele>
        <time>2024-06-04T22:38:27Z</time>
      </trkpt>
      <trkpt lat="45.0176" lon="6.12487">
        <ele>1655</ele>
        <time>2024-06-04T22:38:28Z</time>
      </trkpt>
      <trkpt lat="45.0175" lon="6.12488">
        <ele>1655</ele>
        <time>2024-06-04T22:38:30Z</time>
      </trkpt>
      <trkpt lat="45.01731" lon="6.12486">
        <ele>1655</ele>
        <time>2024-06-04T22:38:33Z</time>
      </trkpt>
      <trkpt lat="45.0171" lon="6.12481">
        <ele>1657</ele>
        <time>2024-06-04T22:38:37Z</time>
      </trkpt>
      <trkpt lat="45.01667" lon="6.12465">
        <ele>1660</ele>
        <time>2024-06-04T22:38:45Z</time>
      </trkpt>
      <trkpt lat="45.01599" lon="6.12447">
        <ele>1663</ele>
        <time>2024-06-04T22:38:57Z</time>
      </trkpt>
      <trkpt lat="45.01533" lon="6.12419">
        <ele>1663</ele>
        <time>2024-06-04T22:39:09Z</time>
      </trkpt>
      <trkpt lat="45.01505" lon="6.12414">
        <ele>1663</ele>
        <time>2024-06-04T22:39:14Z</time>
      </trkpt>
      <trkpt lat="45.01488" lon="6.12413">
        <ele>1663</ele>
        <time>2024-06-04T22:39:17Z</time>
      </trkpt>
      <trkpt lat="45.01466" lon="6.12417">
        <ele>1663</ele>
        <time>2024-06-04T22:39:21Z</time>
      </trkpt>
      <trkpt lat="45.01442" lon="6.12425">
        <ele>1663</ele>
        <time>2024-06-04T22:39:26Z</time>
      </trkpt>
      <trkpt lat="45.01377" lon="6.12458">
        <ele>1660</ele>
        <time>2024-06-04T22:39:38Z</time>
      </trkpt>
      <trkpt lat="45.01358" lon="6.12465">
        <ele>1659</ele>
        <time>2024-06-04T22:39:42Z</time>
      </trkpt>
      <trkpt lat="45.01335" lon="6.1247">
        <ele>1658</ele>
        <time>2024-06-04T22:39:46Z</time>
      </trkpt>
      <trkpt lat="45.01306" lon="6.12471">
        <ele>1658</ele>
        <time>2024-06-04T22:39:51Z</time>
      </trkpt>
      <trkpt lat="45.01279" lon="6.12468">
        <ele>1658</ele>
        <time>2024-06-04T22:39:56Z</time>
      </trkpt>
      <trkpt lat="45.01222" lon="6.12457">
        <ele>1659</ele>
        <time>2024-06-04T22:40:06Z</time>
      </trkpt>
      <trkpt lat="45.01174" lon="6.12446">
        <ele>1659</ele>
        <time>2024-06-04T22:40:15Z</time>
      </trkpt>
      <trkpt lat="45.01143" lon="6.12435">
        <ele>1659</ele>
        <time>2024-06-04T22:40:20Z</time>
      </trkpt>
      <trkpt lat="45.01125" lon="6.12424">
        <ele>1659</ele>
        <time>2024-06-04T22:40:24Z</time>
      </trkpt>
      <trkpt lat="45.01143" lon="6.12435">
        <ele>1659</ele>
        <time>2024-06-04T22:40:27Z</time>
      </trkpt>
      <trkpt lat="45.01174" lon="6.12446">
        <ele>1659</ele>
        <time>2024-06-04T22:40:33Z</time>
      </trkpt>
      <trkpt lat="45.01222" lon="6.12457">
        <ele>1659</ele>
        <time>2024-06-04T22:40:42Z</time>
      </trkpt>
      <trkpt lat="45.01279" lon="6.12468">
        <ele>1658</ele>
        <time>2024-06-04T22:40:52Z</time>
      </trkpt>
      <trkpt lat="45.01306" lon="6.12471">
        <ele>1658</ele>
        <time>2024-06-04T22:40:57Z</time>
      </trkpt>
      <trkpt lat="45.01335" lon="6.1247">
        <ele>1658</ele>
        <time>2024-06-04T22:41:02Z</time>
      </trkpt>
      <trkpt lat="45.01358" lon="6.12465">
        <ele>1659</ele>
        <time>2024-06-04T22:41:06Z</time>
      </trkpt>
      <trkpt lat="45.01377" lon="6.12458">
        <ele>1660</ele>
        <time>2024-06-04T22:41:09Z</time>
      </trkpt>
      <trkpt lat="45.01442" lon="6.12425">
        <ele>1663</ele>
        <time>2024-06-04T22:41:22Z</time>
      </trkpt>
      <trkpt lat="45.01466" lon="6.12417">
        <ele>1663</ele>
        <time>2024-06-04T22:41:26Z</time>
      </trkpt>
      <trkpt lat="45.01488" lon="6.12413">
        <ele>1663</ele>
        <time>2024-06-04T22:41:30Z</time>
      </trkpt>
      <trkpt lat="45.01505" lon="6.12414">
        <ele>1663</ele>
        <time>2024-06-04T22:41:33Z</time>
      </trkpt>
      <trkpt lat="45.01533" lon="6.12419">
        <ele>1663</ele>
        <time>2024-06-04T22:41:38Z</time>
      </trkpt>
      <trkpt lat="45.01599" lon="6.12447">
        <ele>1663</ele>
        <time>2024-06-04T22:41:50Z</time>
      </trkpt>
      <trkpt lat="45.01667" lon="6.12465">
        <ele>1660</ele>
        <time>2024-06-04T22:42:03Z</time>
      </trkpt>
      <trkpt lat="45.0171" lon="6.12481">
        <ele>1657</ele>
        <time>2024-06-04T22:42:11Z</time>
      </trkpt>
      <trkpt lat="45.01731" lon="6.12486">
        <ele>1655</ele>
        <time>2024-06-04T22:42:14Z</time>
      </trkpt>
      <trkpt lat="45.0175" lon="6.12488">
        <ele>1655</ele>
        <time>2024-06-04T22:42:18Z</time>
      </trkpt>
      <trkpt lat="45.0176" lon="6.12487">
        <ele>1655</ele>
        <time>2024-06-04T22:42:20Z</time>
      </trkpt>
      <trkpt lat="45.01767" lon="6.12484">
        <ele>1655</ele>
        <time>2024-06-04T22:42:21Z</time>
      </trkpt>
      <trkpt lat="45.01803" lon="6.1246">
        <ele>1655</ele>
        <time>2024-06-04T22:42:28Z</time>
      </trkpt>
      <trkpt lat="45.0187" lon="6.12449">
        <ele>1651</ele>
        <time>2024-06-04T22:42:40Z</time>
      </trkpt>
      <trkpt lat="45.01884" lon="6.12445">
        <ele>1650</ele>
        <time>2024-06-04T22:42:42Z</time>
      </trkpt>
      <trkpt lat="45.01909" lon="6.1243">
        <ele>1647</ele>
        <time>2024-06-04T22:42:47Z</time>
      </trkpt>
      <trkpt lat="45.01922" lon="6.12421">
        <ele>1646</ele>
        <time>2024-06-04T22:42:50Z</time>
      </trkpt>
      <trkpt lat="45.01972" lon="6.12373">
        <ele>1640</ele>
        <time>2024-06-04T22:43:01Z</time>
      </trkpt>
      <trkpt lat="45.01998" lon="6.12355">
        <ele>1637</ele>
        <time>2024-06-04T22:43:06Z</time>
      </trkpt>
      <trkpt lat="45.02039" lon="6.12346">
        <ele>1632</ele>
        <time>2024-06-04T22:43:13Z</time>
      </trkpt>
      <trkpt lat="45.0206" lon="6.12336">
        <ele>1630</ele>
        <time>2024-06-04T22:43:17Z</time>
      </trkpt>
      <trkpt lat="45.02087" lon="6.12315">
        <ele>1630</ele>
        <time>2024-06-04T22:43:23Z</time>
      </trkpt>
      <trkpt lat="45.02114" lon="6.12285">
        <ele>1629</ele>
        <time>2024-06-04T22:43:29Z</time>
      </trkpt>
      <trkpt lat="45.02135" lon="6.1227">
        <ele>1626</ele>
        <time>2024-06-04T22:43:33Z</time>
      </trkpt>
      <trkpt lat="45.0219" lon="6.1224">
        <ele>1615</ele>
        <time>2024-06-04T22:43:43Z</time>
      </trkpt>
      <trkpt lat="45.02271" lon="6.12205">
        <ele>1602</ele>
        <time>2024-06-04T22:43:58Z</time>
      </trkpt>
      <trkpt lat="45.02283" lon="6.12197">
        <ele>1601</ele>
        <time>2024-06-04T22:44:01Z</time>
      </trkpt>
      <trkpt lat="45.02294" lon="6.12186">
        <ele>1600</ele>
        <time>2024-06-04T22:44:03Z</time>
      </trkpt>
      <trkpt lat="45.02316" lon="6.12152">
        <ele>1601</ele>
        <time>2024-06-04T22:44:09Z</time>
      </trkpt>
      <trkpt lat="45.0233" lon="6.12135">
        <ele>1601</ele>
        <time>2024-06-04T22:44:12Z</time>
      </trkpt>
      <trkpt lat="45.02342" lon="6.12123">
        <ele>1601</ele>
        <time>2024-06-04T22:44:15Z</time>
      </trkpt>
      <trkpt lat="45.02392" lon="6.12101">
        <ele>1597</ele>
        <time>2024-06-04T22:44:24Z</time>
      </trkpt>
      <trkpt lat="45.02564" lon="6.12032">
        <ele>1581</ele>
        <time>2024-06-04T22:44:56Z</time>
      </trkpt>
      <trkpt lat="45.02595" lon="6.12025">
        <ele>1577</ele>
        <time>2024-06-04T22:45:02Z</time>
      </trkpt>
      <trkpt lat="45.02636" lon="6.12023">
        <ele>1575</ele>
        <time>2024-06-04T22:45:09Z</time>
      </trkpt>
      <trkpt lat="45.02681" lon="6.12027">
        <ele>1570</ele>
        <time>2024-06-04T22:45:17Z</time>
      </trkpt>
      <trkpt lat="45.02775" lon="6.12015">
        <ele>1564</ele>
        <time>2024-06-04T22:45:34Z</time>
      </trkpt>
      <trkpt lat="45.02794" lon="6.1201">
        <ele>1562</ele>
        <time>2024-06-04T22:45:37Z</time>
      </trkpt>
      <trkpt lat="45.02863" lon="6.11977">
        <ele>1559</ele>
        <time>2024-06-04T22:45:50Z</time>
      </trkpt>
      <trkpt lat="45.02894" lon="6.11969">
        <ele>1554</ele>
        <time>2024-06-04T22:45:56Z</time>
      </trkpt>
      <trkpt lat="45.02917" lon="6.11959">
        <ele>1551</ele>
        <time>2024-06-04T22:46:00Z</time>
      </trkpt>
      <trkpt lat="45.02927" lon="6.11951">
        <ele>1549</ele>
        <time>2024-06-04T22:46:02Z</time>
      </trkpt>
      <trkpt lat="45.02974" lon="6.11886">
        <ele>1547</ele>
        <time>2024-06-04T22:46:14Z</time>
      </trkpt>
      <trkpt lat="45.03017" lon="6.11813">
        <ele>1545</ele>
        <time>2024-06-04T22:46:26Z</time>
      </trkpt>
      <trkpt lat="45.03056" lon="6.11754">
        <ele>1536</ele>
        <time>2024-06-04T22:46:36Z</time>
      </trkpt>
      <trkpt lat="45.03066" lon="6.11737">
        <ele>1531</ele>
        <time>2024-06-04T22:46:39Z</time>
      </trkpt>
      <trkpt lat="45.03077" lon="6.117">
        <ele>1525</ele>
        <time>2024-06-04T22:46:44Z</time>
      </trkpt>
      <trkpt lat="45.03084" lon="6.11687">
        <ele>1521</ele>
        <time>2024-06-04T22:46:46Z</time>
      </trkpt>
      <trkpt lat="45.03089" lon="6.11687">
        <ele>1518</ele>
        <time>2024-06-04T22:46:47Z</time>
      </trkpt>
      <trkpt lat="45.03094" lon="6.11688">
        <ele>1516</ele>
        <time>2024-06-04T22:46:48Z</time>
      </trkpt>
      <trkpt lat="45.03098" lon="6.11698">
        <ele>1514</ele>
        <time>2024-06-04T22:46:49Z</time>
      </trkpt>
      <trkpt lat="45.03098" lon="6.11706">
        <ele>1514</ele>
        <time>2024-06-04T22:46:50Z</time>
      </trkpt>
      <trkpt lat="45.0306" lon="6.1179">
        <ele>1526</ele>
        <time>2024-06-04T22:47:03Z</time>
      </trkpt>
      <trkpt lat="45.03042" lon="6.11838">
        <ele>1526</ele>
        <time>2024-06-04T22:47:09Z</time>
      </trkpt>
      <trkpt lat="45.02979" lon="6.12049">
        <ele>1499</ele>
        <time>2024-06-04T22:47:38Z</time>
      </trkpt>
      <trkpt lat="45.02973" lon="6.12062">
        <ele>1496</ele>
        <time>2024-06-04T22:47:40Z</time>
      </trkpt>
      <trkpt lat="45.02966" lon="6.12072">
        <ele>1495</ele>
        <time>2024-06-04T22:47:42Z</time>
      </trkpt>
      <trkpt lat="45.02945" lon="6.12092">
        <ele>1493</ele>
        <time>2024-06-04T22:47:46Z</time>
      </trkpt>
      <trkpt lat="45.02932" lon="6.12099">
        <ele>1494</ele>
        <time>2024-06-04T22:47:49Z</time>
      </trkpt>
      <trkpt lat="45.02903" lon="6.12107">
        <ele>1497</ele>
        <time>2024-06-04T22:47:54Z</time>
      </trkpt>
      <trkpt lat="45.02892" lon="6.12112">
        <ele>1498</ele>
        <time>2024-06-04T22:47:56Z</time>
      </trkpt>
      <trkpt lat="45.02871" lon="6.12131">
        <ele>1495</ele>
        <time>2024-06-04T22:48:01Z</time>
      </trkpt>
      <trkpt lat="45.02863" lon="6.12136">
        <ele>1495</ele>
        <time>2024-06-04T22:48:02Z</time>
      </trkpt>
      <trkpt lat="45.02839" lon="6.12142">
        <ele>1497</ele>
        <time>2024-06-04T22:48:07Z</time>
      </trkpt>
      <trkpt lat="45.02834" lon="6.12147">
        <ele>1496</ele>
        <time>2024-06-04T22:48:08Z</time>
      </trkpt>
      <trkpt lat="45.02832" lon="6.12154">
        <ele>1494</ele>
        <time>2024-06-04T22:48:09Z</time>
      </trkpt>
      <trkpt lat="45.02832" lon="6.12162">
        <ele>1491</ele>
        <time>2024-06-04T22:48:10Z</time>
      </trkpt>
      <trkpt lat="45.02835" lon="6.12167">
        <ele>1489</ele>
        <time>2024-06-04T22:48:10Z</time>
      </trkpt>
      <trkpt lat="45.0284" lon="6.1217">
        <ele>1486</ele>
        <time>2024-06-04T22:48:11Z</time>
      </trkpt>
      <trkpt lat="45.02845" lon="6.1217">
        <ele>1485</ele>
        <time>2024-06-04T22:48:12Z</time>
      </trkpt>
      <trkpt lat="45.02879" lon="6.12147">
        <ele>1487</ele>
        <time>2024-06-04T22:48:19Z</time>
      </trkpt>
      <trkpt lat="45.02899" lon="6.12138">
        <ele>1486</ele>
        <time>2024-06-04T22:48:23Z</time>
      </trkpt>
      <trkpt lat="45.02906" lon="6.12139">
        <ele>1485</ele>
        <time>2024-06-04T22:48:24Z</time>
      </trkpt>
      <trkpt lat="45.02926" lon="6.12146">
        <ele>1478</ele>
        <time>2024-06-04T22:48:28Z</time>
      </trkpt>
      <trkpt lat="45.02947" lon="6.12147">
        <ele>1473</ele>
        <time>2024-06-04T22:48:31Z</time>
      </trkpt>
      <trkpt lat="45.02961" lon="6.12145">
        <ele>1471</ele>
        <time>2024-06-04T22:48:34Z</time>
      </trkpt>
      <trkpt lat="45.02995" lon="6.12133">
        <ele>1468</ele>
        <time>2024-06-04T22:48:40Z</time>
      </trkpt>
      <trkpt lat="45.03016" lon="6.12115">
        <ele>1468</ele>
        <time>2024-06-04T22:48:44Z</time>
      </trkpt>
      <trkpt lat="45.03029" lon="6.12092">
        <ele>1470</ele>
        <time>2024-06-04T22:48:48Z</time>
      </trkpt>
      <trkpt lat="45.03036" lon="6.12061">
        <ele>1476</ele>
        <time>2024-06-04T22:48:52Z</time>
      </trkpt>
      <trkpt lat="45.03039" lon="6.12057">
        <ele>1475</ele>
        <time>2024-06-04T22:48:53Z</time>
      </trkpt>
      <trkpt lat="45.03048" lon="6.12054">
        <ele>1472</ele>
        <time>2024-06-04T22:48:55Z</time>
      </trkpt>
      <trkpt lat="45.03051" lon="6.12057">
        <ele>1471</ele>
        <time>2024-06-04T22:48:55Z</time>
      </trkpt>
      <trkpt lat="45.03054" lon="6.12063">
        <ele>1468</ele>
        <time>2024-06-04T22:48:56Z</time>
      </trkpt>
      <trkpt lat="45.03055" lon="6.12072">
        <ele>1466</ele>
        <time>2024-06-04T22:48:57Z</time>
      </trkpt>
      <trkpt lat="45.03051" lon="6.12081">
        <ele>1466</ele>
        <time>2024-06-04T22:48:59Z</time>
      </trkpt>
      <trkpt lat="45.0302" lon="6.12139">
        <ele>1459</ele>
        <time>2024-06-04T22:49:08Z</time>
      </trkpt>
      <trkpt lat="45.03008" lon="6.12155">
        <ele>1457</ele>
        <time>2024-06-04T22:49:11Z</time>
      </trkpt>
      <trkpt lat="45.02997" lon="6.12167">
        <ele>1456</ele>
        <time>2024-06-04T22:49:13Z</time>
      </trkpt>
      <trkpt lat="45.02969" lon="6.12191">
        <ele>1454</ele>
        <time>2024-06-04T22:49:19Z</time>
      </trkpt>
      <trkpt lat="45.02945" lon="6.12204">
        <ele>1454</ele>
        <time>2024-06-04T22:49:24Z</time>
      </trkpt>
      <trkpt lat="45.02883" lon="6.12219">
        <ele>1460</ele>
        <time>2024-06-04T22:49:35Z</time>
      </trkpt>
      <trkpt lat="45.02877" lon="6.12224">
        <ele>1460</ele>
        <time>2024-06-04T22:49:36Z</time>
      </trkpt>
      <trkpt lat="45.02872" lon="6.12232">
        <ele>1458</ele>
        <time>2024-06-04T22:49:37Z</time>
      </trkpt>
      <trkpt lat="45.02872" lon="6.12241">
        <ele>1455</ele>
        <time>2024-06-04T22:49:39Z</time>
      </trkpt>
      <trkpt lat="45.02874" lon="6.12247">
        <ele>1452</ele>
        <time>2024-06-04T22:49:39Z</time>
      </trkpt>
      <trkpt lat="45.02883" lon="6.12251">
        <ele>1449</ele>
        <time>2024-06-04T22:49:41Z</time>
      </trkpt>
      <trkpt lat="45.02906" lon="6.12232">
        <ele>1451</ele>
        <time>2024-06-04T22:49:46Z</time>
      </trkpt>
      <trkpt lat="45.02913" lon="6.12229">
        <ele>1451</ele>
        <time>2024-06-04T22:49:47Z</time>
      </trkpt>
      <trkpt lat="45.02921" lon="6.12228">
        <ele>1450</ele>
        <time>2024-06-04T22:49:49Z</time>
      </trkpt>
      <trkpt lat="45.02942" lon="6.1223">
        <ele>1445</ele>
        <time>2024-06-04T22:49:52Z</time>
      </trkpt>
      <trkpt lat="45.02974" lon="6.12226">
        <ele>1441</ele>
        <time>2024-06-04T22:49:58Z</time>
      </trkpt>
      <trkpt lat="45.03034" lon="6.12211">
        <ele>1433</ele>
        <time>2024-06-04T22:50:09Z</time>
      </trkpt>
      <trkpt lat="45.03052" lon="6.12202">
        <ele>1431</ele>
        <time>2024-06-04T22:50:12Z</time>
      </trkpt>
      <trkpt lat="45.03077" lon="6.12183">
        <ele>1430</ele>
        <time>2024-06-04T22:50:17Z</time>
      </trkpt>
      <trkpt lat="45.03087" lon="6.12174">
        <ele>1429</ele>
        <time>2024-06-04T22:50:19Z</time>
      </trkpt>
      <trkpt lat="45.03094" lon="6.12158">
        <ele>1430</ele>
        <time>2024-06-04T22:50:22Z</time>
      </trkpt>
      <trkpt lat="45.03113" lon="6.12097">
        <ele>1434</ele>
        <time>2024-06-04T22:50:30Z</time>
      </trkpt>
      <trkpt lat="45.03131" lon="6.12067">
        <ele>1430</ele>
        <time>2024-06-04T22:50:35Z</time>
      </trkpt>
      <trkpt lat="45.03155" lon="6.1202">
        <ele>1425</ele>
        <time>2024-06-04T22:50:42Z</time>
      </trkpt>
      <trkpt lat="45.03217" lon="6.11931">
        <ele>1414</ele>
        <time>2024-06-04T22:50:58Z</time>
      </trkpt>
      <trkpt lat="45.03258" lon="6.11861">
        <ele>1410</ele>
        <time>2024-06-04T22:51:10Z</time>
      </trkpt>
      <trkpt lat="45.03277" lon="6.1181">
        <ele>1406</ele>
        <time>2024-06-04T22:51:17Z</time>
      </trkpt>
      <trkpt lat="45.03288" lon="6.11762">
        <ele>1403</ele>
        <time>2024-06-04T22:51:23Z</time>
      </trkpt>
      <trkpt lat="45.0329" lon="6.11721">
        <ele>1400</ele>
        <time>2024-06-04T22:51:28Z</time>
      </trkpt>
      <trkpt lat="45.03277" lon="6.11581">
        <ele>1396</ele>
        <time>2024-06-04T22:51:46Z</time>
      </trkpt>
      <trkpt lat="45.03278" lon="6.1156">
        <ele>1396</ele>
        <time>2024-06-04T22:51:49Z</time>
      </trkpt>
      <trkpt lat="45.03292" lon="6.11504">
        <ele>1388</ele>
        <time>2024-06-04T22:51:56Z</time>
      </trkpt>
      <trkpt lat="45.03321" lon="6.11429">
        <ele>1375</ele>
        <time>2024-06-04T22:52:07Z</time>
      </trkpt>
      <trkpt lat="45.0333" lon="6.11389">
        <ele>1373</ele>
        <time>2024-06-04T22:52:12Z</time>
      </trkpt>
      <trkpt lat="45.03348" lon="6.11299">
        <ele>1368</ele>
        <time>2024-06-04T22:52:24Z</time>
      </trkpt>
      <trkpt lat="45.03349" lon="6.11256">
        <ele>1367</ele>
        <time>2024-06-04T22:52:29Z</time>
      </trkpt>
      <trkpt lat="45.03345" lon="6.11232">
        <ele>1370</ele>
        <time>2024-06-04T22:52:32Z</time>
      </trkpt>
      <trkpt lat="45.03348" lon="6.11222">
        <ele>1368</ele>
        <time>2024-06-04T22:52:34Z</time>
      </trkpt>
      <trkpt lat="45.03354" lon="6.11218">
        <ele>1366</ele>
        <time>2024-06-04T22:52:35Z</time>
      </trkpt>
      <trkpt lat="45.03361" lon="6.11224">
        <ele>1362</ele>
        <time>2024-06-04T22:52:36Z</time>
      </trkpt>
      <trkpt lat="45.03369" lon="6.11358">
        <ele>1356</ele>
        <time>2024-06-04T22:52:53Z</time>
      </trkpt>
      <trkpt lat="45.03376" lon="6.11434">
        <ele>1349</ele>
        <time>2024-06-04T22:53:03Z</time>
      </trkpt>
      <trkpt lat="45.03375" lon="6.1153">
        <ele>1343</ele>
        <time>2024-06-04T22:53:15Z</time>
      </trkpt>
      <trkpt lat="45.03363" lon="6.11646">
        <ele>1347</ele>
        <time>2024-06-04T22:53:30Z</time>
      </trkpt>
      <trkpt lat="45.03364" lon="6.11664">
        <ele>1347</ele>
        <time>2024-06-04T22:53:32Z</time>
      </trkpt>
      <trkpt lat="45.03368" lon="6.11684">
        <ele>1344</ele>
        <time>2024-06-04T22:53:35Z</time>
      </trkpt>
      <trkpt lat="45.03372" lon="6.11707">
        <ele>1342</ele>
        <time>2024-06-04T22:53:38Z</time>
      </trkpt>
      <trkpt lat="45.03375" lon="6.11745">
        <ele>1339</ele>
        <time>2024-06-04T22:53:42Z</time>
      </trkpt>
      <trkpt lat="45.03376" lon="6.11849">
        <ele>1330</ele>
        <time>2024-06-04T22:53:56Z</time>
      </trkpt>
      <trkpt lat="45.03371" lon="6.11974">
        <ele>1317</ele>
        <time>2024-06-04T22:54:11Z</time>
      </trkpt>
      <trkpt lat="45.03358" lon="6.12066">
        <ele>1309</ele>
        <time>2024-06-04T22:54:23Z</time>
      </trkpt>
      <trkpt lat="45.03347" lon="6.12221">
        <ele>1298</ele>
        <time>2024-06-04T22:54:43Z</time>
      </trkpt>
      <trkpt lat="45.03344" lon="6.12263">
        <ele>1295</ele>
        <time>2024-06-04T22:54:48Z</time>
      </trkpt>
      <trkpt lat="45.03332" lon="6.12325">
        <ele>1291</ele>
        <time>2024-06-04T22:54:56Z</time>
      </trkpt>
      <trkpt lat="45.03319" lon="6.12367">
        <ele>1286</ele>
        <time>2024-06-04T22:55:02Z</time>
      </trkpt>
      <trkpt lat="45.03312" lon="6.12379">
        <ele>1285</ele>
        <time>2024-06-04T22:55:04Z</time>
      </trkpt>
      <trkpt lat="45.03303" lon="6.12392">
        <ele>1284</ele>
        <time>2024-06-04T22:55:06Z</time>
      </trkpt>
      <trkpt lat="45.03293" lon="6.124">
        <ele>1285</ele>
        <time>2024-06-04T22:55:08Z</time>
      </trkpt>
      <trkpt lat="45.03208" lon="6.12434">
        <ele>1299</ele>
        <time>2024-06-04T22:55:24Z</time>
      </trkpt>
      <trkpt lat="45.032" lon="6.12441">
        <ele>1300</ele>
        <time>2024-06-04T22:55:26Z</time>
      </trkpt>
      <trkpt lat="45.03193" lon="6.12452">
        <ele>1300</ele>
        <time>2024-06-04T22:55:27Z</time>
      </trkpt>
      <trkpt lat="45.03189" lon="6.12462">
        <ele>1299</ele>
        <time>2024-06-04T22:55:29Z</time>
      </trkpt>
      <trkpt lat="45.03187" lon="6.12486">
        <ele>1295</ele>
        <time>2024-06-04T22:55:32Z</time>
      </trkpt>
      <trkpt lat="45.03193" lon="6.1251">
        <ele>1292</ele>
        <time>2024-06-04T22:55:35Z</time>
      </trkpt>
      <trkpt lat="45.03205" lon="6.12543">
        <ele>1294</ele>
        <time>2024-06-04T22:55:40Z</time>
      </trkpt>
      <trkpt lat="45.03266" lon="6.12693">
        <ele>1297</ele>
        <time>2024-06-04T22:56:01Z</time>
      </trkpt>
      <trkpt lat="45.03278" lon="6.12719">
        <ele>1299</ele>
        <time>2024-06-04T22:56:05Z</time>
      </trkpt>
      <trkpt lat="45.03301" lon="6.12763">
        <ele>1302</ele>
        <time>2024-06-04T22:56:12Z</time>
      </trkpt>
      <trkpt lat="45.03351" lon="6.12837">
        <ele>1302</ele>
        <time>2024-06-04T22:56:25Z</time>
      </trkpt>
      <trkpt lat="45.03372" lon="6.1286">
        <ele>1301</ele>
        <time>2024-06-04T22:56:30Z</time>
      </trkpt>
      <trkpt lat="45.03445" lon="6.12921">
        <ele>1289</ele>
        <time>2024-06-04T22:56:45Z</time>
      </trkpt>
      <trkpt lat="45.03458" lon="6.12934">
        <ele>1288</ele>
        <time>2024-06-04T22:56:48Z</time>
      </trkpt>
      <trkpt lat="45.03475" lon="6.12959">
        <ele>1288</ele>
        <time>2024-06-04T22:56:52Z</time>
      </trkpt>
      <trkpt lat="45.03484" lon="6.12978">
        <ele>1288</ele>
        <time>2024-06-04T22:56:55Z</time>
      </trkpt>
      <trkpt lat="45.03514" lon="6.13056">
        <ele>1299</ele>
        <time>2024-06-04T22:57:06Z</time>
      </trkpt>
      <trkpt lat="45.03523" lon="6.13074">
        <ele>1300</ele>
        <time>2024-06-04T22:57:09Z</time>
      </trkpt>
      <trkpt lat="45.03582" lon="6.13164">
        <ele>1285</ele>
        <time>2024-06-04T22:57:24Z</time>
      </trkpt>
      <trkpt lat="45.0359" lon="6.1318">
        <ele>1285</ele>
        <time>2024-06-04T22:57:27Z</time>
      </trkpt>
      <trkpt lat="45.03597" lon="6.13198">
        <ele>1285</ele>
        <time>2024-06-04T22:57:29Z</time>
      </trkpt>
      <trkpt lat="45.03608" lon="6.13247">
        <ele>1284</ele>
        <time>2024-06-04T22:57:36Z</time>
      </trkpt>
      <trkpt lat="45.03612" lon="6.13256">
        <ele>1283</ele>
        <time>2024-06-04T22:57:37Z</time>
      </trkpt>
      <trkpt lat="45.03623" lon="6.13269">
        <ele>1277</ele>
        <time>2024-06-04T22:57:40Z</time>
      </trkpt>
      <trkpt lat="45.03637" lon="6.13274">
        <ele>1271</ele>
        <time>2024-06-04T22:57:42Z</time>
      </trkpt>
      <trkpt lat="45.03651" lon="6.13271">
        <ele>1265</ele>
        <time>2024-06-04T22:57:45Z</time>
      </trkpt>
      <trkpt lat="45.03675" lon="6.13251">
        <ele>1258</ele>
        <time>2024-06-04T22:57:50Z</time>
      </trkpt>
      <trkpt lat="45.03682" lon="6.13247">
        <ele>1258</ele>
        <time>2024-06-04T22:57:51Z</time>
      </trkpt>
      <trkpt lat="45.03686" lon="6.13236">
        <ele>1259</ele>
        <time>2024-06-04T22:57:53Z</time>
      </trkpt>
      <trkpt lat="45.03697" lon="6.13217">
        <ele>1260</ele>
        <time>2024-06-04T22:57:56Z</time>
      </trkpt>
      <trkpt lat="45.03707" lon="6.13211">
        <ele>1261</ele>
        <time>2024-06-04T22:57:58Z</time>
      </trkpt>
      <trkpt lat="45.03798" lon="6.13198">
        <ele>1254</ele>
        <time>2024-06-04T22:58:14Z</time>
      </trkpt>
      <trkpt lat="45.03817" lon="6.13197">
        <ele>1251</ele>
        <time>2024-06-04T22:58:17Z</time>
      </trkpt>
      <trkpt lat="45.03858" lon="6.13203">
        <ele>1247</ele>
        <time>2024-06-04T22:58:25Z</time>
      </trkpt>
      <trkpt lat="45.03878" lon="6.13208">
        <ele>1246</ele>
        <time>2024-06-04T22:58:28Z</time>
      </trkpt>
      <trkpt lat="45.0395" lon="6.13225">
        <ele>1238</ele>
        <time>2024-06-04T22:58:41Z</time>
      </trkpt>
      <trkpt lat="45.04059" lon="6.13228">
        <ele>1232</ele>
        <time>2024-06-04T22:59:01Z</time>
      </trkpt>
      <trkpt lat="45.04139" lon="6.13246">
        <ele>1219</ele>
        <time>2024-06-04T22:59:15Z</time>
      </trkpt>
      <trkpt lat="45.04234" lon="6.13242">
        <ele>1209</ele>
        <time>2024-06-04T22:59:32Z</time>
      </trkpt>
      <trkpt lat="45.0425" lon="6.13238">
        <ele>1206</ele>
        <time>2024-06-04T22:59:35Z</time>
      </trkpt>
      <trkpt lat="45.04269" lon="6.13228">
        <ele>1198</ele>
        <time>2024-06-04T22:59:39Z</time>
      </trkpt>
      <trkpt lat="45.04279" lon="6.13228">
        <ele>1195</ele>
        <time>2024-06-04T22:59:40Z</time>
      </trkpt>
      <trkpt lat="45.04284" lon="6.13237">
        <ele>1196</ele>
        <time>2024-06-04T22:59:42Z</time>
      </trkpt>
      <trkpt lat="45.04282" lon="6.13248">
        <ele>1200</ele>
        <time>2024-06-04T22:59:43Z</time>
      </trkpt>
      <trkpt lat="45.04276" lon="6.13254">
        <ele>1201</ele>
        <time>2024-06-04T22:59:45Z</time>
      </trkpt>
      <trkpt lat="45.04246" lon="6.13261">
        <ele>1207</ele>
        <time>2024-06-04T22:59:50Z</time>
      </trkpt>
      <trkpt lat="45.0419" lon="6.13284">
        <ele>1203</ele>
        <time>2024-06-04T23:00:00Z</time>
      </trkpt>
      <trkpt lat="45.04147" lon="6.1329">
        <ele>1203</ele>
        <time>2024-06-04T23:00:08Z</time>
      </trkpt>
      <trkpt lat="45.04104" lon="6.13311">
        <ele>1198</ele>
        <time>2024-06-04T23:00:16Z</time>
      </trkpt>
      <trkpt lat="45.04025" lon="6.13329">
        <ele>1195</ele>
        <time>2024-06-04T23:00:30Z</time>
      </trkpt>
      <trkpt lat="45.04002" lon="6.1334">
        <ele>1192</ele>
        <time>2024-06-04T23:00:35Z</time>
      </trkpt>
      <trkpt lat="45.0396" lon="6.13369">
        <ele>1181</ele>
        <time>2024-06-04T23:00:43Z</time>
      </trkpt>
      <trkpt lat="45.03946" lon="6.13372">
        <ele>1180</ele>
        <time>2024-06-04T23:00:45Z</time>
      </trkpt>
      <trkpt lat="45.03932" lon="6.1337">
        <ele>1181</ele>
        <time>2024-06-04T23:00:48Z</time>
      </trkpt>
      <trkpt lat="45.03867" lon="6.13344">
        <ele>1191</ele>
        <time>2024-06-04T23:01:00Z</time>
      </trkpt>
      <trkpt lat="45.03851" lon="6.13345">
        <ele>1190</ele>
        <time>2024-06-04T23:01:03Z</time>
      </trkpt>
      <trkpt lat="45.03834" lon="6.1335">
        <ele>1188</ele>
        <time>2024-06-04T23:01:06Z</time>
      </trkpt>
      <trkpt lat="45.03813" lon="6.13365">
        <ele>1189</ele>
        <time>2024-06-04T23:01:10Z</time>
      </trkpt>
      <trkpt lat="45.03796" lon="6.13383">
        <ele>1189</ele>
        <time>2024-06-04T23:01:14Z</time>
      </trkpt>
      <trkpt lat="45.03786" lon="6.13396">
        <ele>1188</ele>
        <time>2024-06-04T23:01:16Z</time>
      </trkpt>
      <trkpt lat="45.03777" lon="6.13413">
        <ele>1185</ele>
        <time>2024-06-04T23:01:19Z</time>
      </trkpt>
      <trkpt lat="45.03768" lon="6.13436">
        <ele>1183</ele>
        <time>2024-06-04T23:01:22Z</time>
      </trkpt>
      <trkpt lat="45.03761" lon="6.13466">
        <ele>1180</ele>
        <time>2024-06-04T23:01:26Z</time>
      </trkpt>
      <trkpt lat="45.03755" lon="6.13499">
        <ele>1175</ele>
        <time>2024-06-04T23:01:31Z</time>
      </trkpt>
      <trkpt lat="45.03746" lon="6.13533">
        <ele>1172</ele>
        <time>2024-06-04T23:01:35Z</time>
      </trkpt>
      <trkpt lat="45.03731" lon="6.13603">
        <ele>1166</ele>
        <time>2024-06-04T23:01:44Z</time>
      </trkpt>
      <trkpt lat="45.03725" lon="6.13625">
        <ele>1165</ele>
        <time>2024-06-04T23:01:47Z</time>
      </trkpt>
      <trkpt lat="45.03713" lon="6.13659">
        <ele>1164</ele>
        <time>2024-06-04T23:01:52Z</time>
      </trkpt>
      <trkpt lat="45.03712" lon="6.1367">
        <ele>1162</ele>
        <time>2024-06-04T23:01:53Z</time>
      </trkpt>
      <trkpt lat="45.03713" lon="6.13679">
        <ele>1158</ele>
        <time>2024-06-04T23:01:55Z</time>
      </trkpt>
      <trkpt lat="45.03717" lon="6.13686">
        <ele>1153</ele>
        <time>2024-06-04T23:01:56Z</time>
      </trkpt>
      <trkpt lat="45.03726" lon="6.13688">
        <ele>1147</ele>
        <time>2024-06-04T23:01:57Z</time>
      </trkpt>
      <trkpt lat="45.03733" lon="6.13679">
        <ele>1146</ele>
        <time>2024-06-04T23:01:59Z</time>
      </trkpt>
      <trkpt lat="45.03738" lon="6.13651">
        <ele>1152</ele>
        <time>2024-06-04T23:02:03Z</time>
      </trkpt>
      <trkpt lat="45.03753" lon="6.13602">
        <ele>1154</ele>
        <time>2024-06-04T23:02:09Z</time>
      </trkpt>
      <trkpt lat="45.03775" lon="6.13551">
        <ele>1156</ele>
        <time>2024-06-04T23:02:17Z</time>
      </trkpt>
      <trkpt lat="45.03797" lon="6.13513">
        <ele>1155</ele>
        <time>2024-06-04T23:02:23Z</time>
      </trkpt>
      <trkpt lat="45.03807" lon="6.135">
        <ele>1154</ele>
        <time>2024-06-04T23:02:25Z</time>
      </trkpt>
      <trkpt lat="45.03819" lon="6.13491">
        <ele>1151</ele>
        <time>2024-06-04T23:02:28Z</time>
      </trkpt>
      <trkpt lat="45.03841" lon="6.13485">
        <ele>1146</ele>
        <time>2024-06-04T23:02:32Z</time>
      </trkpt>
      <trkpt lat="45.03871" lon="6.13486">
        <ele>1142</ele>
        <time>2024-06-04T23:02:37Z</time>
      </trkpt>
      <trkpt lat="45.03885" lon="6.13489">
        <ele>1140</ele>
        <time>2024-06-04T23:02:40Z</time>
      </trkpt>
      <trkpt lat="45.03931" lon="6.13508">
        <ele>1129</ele>
        <time>2024-06-04T23:02:48Z</time>
      </trkpt>
      <trkpt lat="45.0395" lon="6.1351">
        <ele>1127</ele>
        <time>2024-06-04T23:02:52Z</time>
      </trkpt>
      <trkpt lat="45.03959" lon="6.13508">
        <ele>1127</ele>
        <time>2024-06-04T23:02:53Z</time>
      </trkpt>
      <trkpt lat="45.03974" lon="6.135">
        <ele>1129</ele>
        <time>2024-06-04T23:02:56Z</time>
      </trkpt>
      <trkpt lat="45.03982" lon="6.13502">
        <ele>1127</ele>
        <time>2024-06-04T23:02:58Z</time>
      </trkpt>
      <trkpt lat="45.03985" lon="6.13508">
        <ele>1125</ele>
        <time>2024-06-04T23:02:59Z</time>
      </trkpt>
      <trkpt lat="45.03985" lon="6.13516">
        <ele>1123</ele>
        <time>2024-06-04T23:03:00Z</time>
      </trkpt>
      <trkpt lat="45.03982" lon="6.13523">
        <ele>1120</ele>
        <time>2024-06-04T23:03:01Z</time>
      </trkpt>
      <trkpt lat="45.03975" lon="6.13529">
        <ele>1119</ele>
        <time>2024-06-04T23:03:02Z</time>
      </trkpt>
      <trkpt lat="45.03953" lon="6.13535">
        <ele>1119</ele>
        <time>2024-06-04T23:03:06Z</time>
      </trkpt>
      <trkpt lat="45.03898" lon="6.13542">
        <ele>1122</ele>
        <time>2024-06-04T23:03:16Z</time>
      </trkpt>
      <trkpt lat="45.03884" lon="6.13552">
        <ele>1122</ele>
        <time>2024-06-04T23:03:19Z</time>
      </trkpt>
      <trkpt lat="45.03871" lon="6.13572">
        <ele>1118</ele>
        <time>2024-06-04T23:03:22Z</time>
      </trkpt>
      <trkpt lat="45.03863" lon="6.13589">
        <ele>1116</ele>
        <time>2024-06-04T23:03:25Z</time>
      </trkpt>
      <trkpt lat="45.03858" lon="6.13607">
        <ele>1114</ele>
        <time>2024-06-04T23:03:27Z</time>
      </trkpt>
      <trkpt lat="45.03859" lon="6.13623">
        <ele>1111</ele>
        <time>2024-06-04T23:03:29Z</time>
      </trkpt>
      <trkpt lat="45.03861" lon="6.1363">
        <ele>1109</ele>
        <time>2024-06-04T23:03:30Z</time>
      </trkpt>
      <trkpt lat="45.03866" lon="6.13634">
        <ele>1107</ele>
        <time>2024-06-04T23:03:31Z</time>
      </trkpt>
      <trkpt lat="45.03872" lon="6.13633">
        <ele>1105</ele>
        <time>2024-06-04T23:03:32Z</time>
      </trkpt>
      <trkpt lat="45.03878" lon="6.13622">
        <ele>1106</ele>
        <time>2024-06-04T23:03:34Z</time>
      </trkpt>
      <trkpt lat="45.03886" lon="6.13593">
        <ele>1110</ele>
        <time>2024-06-04T23:03:38Z</time>
      </trkpt>
      <trkpt lat="45.03892" lon="6.13585">
        <ele>1111</ele>
        <time>2024-06-04T23:03:39Z</time>
      </trkpt>
      <trkpt lat="45.03901" lon="6.13578">
        <ele>1111</ele>
        <time>2024-06-04T23:03:41Z</time>
      </trkpt>
      <trkpt lat="45.0391" lon="6.13575">
        <ele>1110</ele>
        <time>2024-06-04T23:03:43Z</time>
      </trkpt>
      <trkpt lat="45.0392" lon="6.13575">
        <ele>1108</ele>
        <time>2024-06-04T23:03:44Z</time>
      </trkpt>
      <trkpt lat="45.0395" lon="6.1358">
        <ele>1104</ele>
        <time>2024-06-04T23:03:50Z</time>
      </trkpt>
      <trkpt lat="45.04008" lon="6.13596">
        <ele>1094</ele>
        <time>2024-06-04T23:04:00Z</time>
      </trkpt>
      <trkpt lat="45.04131" lon="6.13613">
        <ele>1080</ele>
        <time>2024-06-04T23:04:22Z</time>
      </trkpt>
      <trkpt lat="45.04175" lon="6.136">
        <ele>1083</ele>
        <time>2024-06-04T23:04:30Z</time>
      </trkpt>
      <trkpt lat="45.04191" lon="6.13599">
        <ele>1082</ele>
        <time>2024-06-04T23:04:33Z</time>
      </trkpt>
      <trkpt lat="45.04231" lon="6.13606">
        <ele>1076</ele>
        <time>2024-06-04T23:04:40Z</time>
      </trkpt>
      <trkpt lat="45.04314" lon="6.13598">
        <ele>1067</ele>
        <time>2024-06-04T23:04:55Z</time>
      </trkpt>
      <trkpt lat="45.04325" lon="6.13594">
        <ele>1067</ele>
        <time>2024-06-04T23:04:57Z</time>
      </trkpt>
      <trkpt lat="45.0436" lon="6.13574">
        <ele>1071</ele>
        <time>2024-06-04T23:05:04Z</time>
      </trkpt>
      <trkpt lat="45.04393" lon="6.13564">
        <ele>1073</ele>
        <time>2024-06-04T23:05:10Z</time>
      </trkpt>
      <trkpt lat="45.04404" lon="6.13562">
        <ele>1073</ele>
        <time>2024-06-04T23:05:12Z</time>
      </trkpt>
      <trkpt lat="45.04416" lon="6.13564">
        <ele>1070</ele>
        <time>2024-06-04T23:05:14Z</time>
      </trkpt>
      <trkpt lat="45.04443" lon="6.13581">
        <ele>1059</ele>
        <time>2024-06-04T23:05:19Z</time>
      </trkpt>
      <trkpt lat="45.04455" lon="6.13594">
        <ele>1053</ele>
        <time>2024-06-04T23:05:22Z</time>
      </trkpt>
      <trkpt lat="45.04493" lon="6.13642">
        <ele>1036</ele>
        <time>2024-06-04T23:05:31Z</time>
      </trkpt>
      <trkpt lat="45.04506" lon="6.13644">
        <ele>1034</ele>
        <time>2024-06-04T23:05:33Z</time>
      </trkpt>
      <trkpt lat="45.04508" lon="6.13626">
        <ele>1038</ele>
        <time>2024-06-04T23:05:36Z</time>
      </trkpt>
      <trkpt lat="45.04515" lon="6.13593">
        <ele>1044</ele>
        <time>2024-06-04T23:05:40Z</time>
      </trkpt>
      <trkpt lat="45.04519" lon="6.13568">
        <ele>1050</ele>
        <time>2024-06-04T23:05:43Z</time>
      </trkpt>
      <trkpt lat="45.04525" lon="6.13553">
        <ele>1053</ele>
        <time>2024-06-04T23:05:45Z</time>
      </trkpt>
      <trkpt lat="45.04531" lon="6.13544">
        <ele>1054</ele>
        <time>2024-06-04T23:05:47Z</time>
      </trkpt>
      <trkpt lat="45.04547" lon="6.13534">
        <ele>1050</ele>
        <time>2024-06-04T23:05:50Z</time>
      </trkpt>
      <trkpt lat="45.04561" lon="6.1352">
        <ele>1049</ele>
        <time>2024-06-04T23:05:53Z</time>
      </trkpt>
      <trkpt lat="45.04587" lon="6.13481">
        <ele>1048</ele>
        <time>2024-06-04T23:06:00Z</time>
      </trkpt>
      <trkpt lat="45.04596" lon="6.13473">
        <ele>1044</ele>
        <time>2024-06-04T23:06:02Z</time>
      </trkpt>
      <trkpt lat="45.04624" lon="6.13459">
        <ele>1031</ele>
        <time>2024-06-04T23:06:07Z</time>
      </trkpt>
      <trkpt lat="45.04634" lon="6.13447">
        <ele>1029</ele>
        <time>2024-06-04T23:06:09Z</time>
      </trkpt>
      <trkpt lat="45.04648" lon="6.13416">
        <ele>1032</ele>
        <time>2024-06-04T23:06:14Z</time>
      </trkpt>
      <trkpt lat="45.04662" lon="6.13387">
        <ele>1032</ele>
        <time>2024-06-04T23:06:18Z</time>
      </trkpt>
      <trkpt lat="45.04678" lon="6.13335">
        <ele>1038</ele>
        <time>2024-06-04T23:06:26Z</time>
      </trkpt>
      <trkpt lat="45.04693" lon="6.13282">
        <ele>1026</ele>
        <time>2024-06-04T23:06:33Z</time>
      </trkpt>
      <trkpt lat="45.04696" lon="6.13269">
        <ele>1024</ele>
        <time>2024-06-04T23:06:34Z</time>
      </trkpt>
      <trkpt lat="45.04696" lon="6.13258">
        <ele>1023</ele>
        <time>2024-06-04T23:06:36Z</time>
      </trkpt>
      <trkpt lat="45.04694" lon="6.13247">
        <ele>1023</ele>
        <time>2024-06-04T23:06:37Z</time>
      </trkpt>
      <trkpt lat="45.04688" lon="6.13235">
        <ele>1024</ele>
        <time>2024-06-04T23:06:39Z</time>
      </trkpt>
      <trkpt lat="45.0468" lon="6.13227">
        <ele>1026</ele>
        <time>2024-06-04T23:06:41Z</time>
      </trkpt>
      <trkpt lat="45.04651" lon="6.1322">
        <ele>1032</ele>
        <time>2024-06-04T23:06:46Z</time>
      </trkpt>
      <trkpt lat="45.04639" lon="6.13215">
        <ele>1033</ele>
        <time>2024-06-04T23:06:48Z</time>
      </trkpt>
      <trkpt lat="45.04619" lon="6.13202">
        <ele>1034</ele>
        <time>2024-06-04T23:06:52Z</time>
      </trkpt>
      <trkpt lat="45.04607" lon="6.13191">
        <ele>1033</ele>
        <time>2024-06-04T23:06:55Z</time>
      </trkpt>
      <trkpt lat="45.0459" lon="6.13169">
        <ele>1031</ele>
        <time>2024-06-04T23:06:59Z</time>
      </trkpt>
      <trkpt lat="45.04584" lon="6.13154">
        <ele>1028</ele>
        <time>2024-06-04T23:07:01Z</time>
      </trkpt>
      <trkpt lat="45.0457" lon="6.13112">
        <ele>1023</ele>
        <time>2024-06-04T23:07:07Z</time>
      </trkpt>
      <trkpt lat="45.04554" lon="6.13084">
        <ele>1021</ele>
        <time>2024-06-04T23:07:11Z</time>
      </trkpt>
      <trkpt lat="45.0454" lon="6.13066">
        <ele>1020</ele>
        <time>2024-06-04T23:07:15Z</time>
      </trkpt>
      <trkpt lat="45.04494" lon="6.13023">
        <ele>1017</ele>
        <time>2024-06-04T23:07:25Z</time>
      </trkpt>
      <trkpt lat="45.04347" lon="6.12894">
        <ele>1002</ele>
        <time>2024-06-04T23:07:55Z</time>
      </trkpt>
      <trkpt lat="45.04304" lon="6.12851">
        <ele>998</ele>
        <time>2024-06-04T23:08:05Z</time>
      </trkpt>
      <trkpt lat="45.04252" lon="6.12815">
        <ele>999</ele>
        <time>2024-06-04T23:08:15Z</time>
      </trkpt>
      <trkpt lat="45.04232" lon="6.12798">
        <ele>999</ele>
        <time>2024-06-04T23:08:19Z</time>
      </trkpt>
      <trkpt lat="45.04193" lon="6.12757">
        <ele>996</ele>
        <time>2024-06-04T23:08:28Z</time>
      </trkpt>
      <trkpt lat="45.04152" lon="6.1271">
        <ele>994</ele>
        <time>2024-06-04T23:08:37Z</time>
      </trkpt>
      <trkpt lat="45.04109" lon="6.1266">
        <ele>993</ele>
        <time>2024-06-04T23:08:47Z</time>
      </trkpt>
      <trkpt lat="45.04093" lon="6.12637">
        <ele>993</ele>
        <time>2024-06-04T23:08:51Z</time>
      </trkpt>
      <trkpt lat="45.04079" lon="6.12613">
        <ele>991</ele>
        <time>2024-06-04T23:08:55Z</time>
      </trkpt>
      <trkpt lat="45.04065" lon="6.12582">
        <ele>989</ele>
        <time>2024-06-04T23:09:00Z</time>
      </trkpt>
      <trkpt lat="45.04057" lon="6.12553">
        <ele>988</ele>
        <time>2024-06-04T23:09:04Z</time>
      </trkpt>
      <trkpt lat="45.04046" lon="6.1249">
        <ele>983</ele>
        <time>2024-06-04T23:09:12Z</time>
      </trkpt>
      <trkpt lat="45.04046" lon="6.12481">
        <ele>983</ele>
        <time>2024-06-04T23:09:13Z</time>
      </trkpt>
      <trkpt lat="45.04049" lon="6.12466">
        <ele>981</ele>
        <time>2024-06-04T23:09:15Z</time>
      </trkpt>
      <trkpt lat="45.04052" lon="6.1246">
        <ele>980</ele>
        <time>2024-06-04T23:09:16Z</time>
      </trkpt>
      <trkpt lat="45.04062" lon="6.1245">
        <ele>977</ele>
        <time>2024-06-04T23:09:18Z</time>
      </trkpt>
      <trkpt lat="45.04073" lon="6.12448">
        <ele>973</ele>
        <time>2024-06-04T23:09:20Z</time>
      </trkpt>
      <trkpt lat="45.0408" lon="6.1245">
        <ele>971</ele>
        <time>2024-06-04T23:09:21Z</time>
      </trkpt>
      <trkpt lat="45.04089" lon="6.12457">
        <ele>969</ele>
        <time>2024-06-04T23:09:23Z</time>
      </trkpt>
      <trkpt lat="45.04096" lon="6.1247">
        <ele>968</ele>
        <time>2024-06-04T23:09:25Z</time>
      </trkpt>
      <trkpt lat="45.04098" lon="6.12479">
        <ele>968</ele>
        <time>2024-06-04T23:09:26Z</time>
      </trkpt>
      <trkpt lat="45.04101" lon="6.12538">
        <ele>971</ele>
        <time>2024-06-04T23:09:34Z</time>
      </trkpt>
      <trkpt lat="45.04105" lon="6.12564">
        <ele>972</ele>
        <time>2024-06-04T23:09:37Z</time>
      </trkpt>
      <trkpt lat="45.04111" lon="6.12589">
        <ele>974</ele>
        <time>2024-06-04T23:09:40Z</time>
      </trkpt>
      <trkpt lat="45.04122" lon="6.12616">
        <ele>977</ele>
        <time>2024-06-04T23:09:44Z</time>
      </trkpt>
      <trkpt lat="45.04131" lon="6.12628">
        <ele>977</ele>
        <time>2024-06-04T23:09:46Z</time>
      </trkpt>
      <trkpt lat="45.04152" lon="6.12646">
        <ele>973</ele>
        <time>2024-06-04T23:09:51Z</time>
      </trkpt>
      <trkpt lat="45.0421" lon="6.12674">
        <ele>965</ele>
        <time>2024-06-04T23:10:02Z</time>
      </trkpt>
      <trkpt lat="45.04265" lon="6.12713">
        <ele>962</ele>
        <time>2024-06-04T23:10:13Z</time>
      </trkpt>
      <trkpt lat="45.04296" lon="6.12725">
        <ele>959</ele>
        <time>2024-06-04T23:10:18Z</time>
      </trkpt>
      <trkpt lat="45.04395" lon="6.12745">
        <ele>955</ele>
        <time>2024-06-04T23:10:36Z</time>
      </trkpt>
      <trkpt lat="45.04529" lon="6.12737">
        <ele>943</ele>
        <time>2024-06-04T23:11:00Z</time>
      </trkpt>
      <trkpt lat="45.04551" lon="6.12729">
        <ele>941</ele>
        <time>2024-06-04T23:11:04Z</time>
      </trkpt>
      <trkpt lat="45.04559" lon="6.12722">
        <ele>940</ele>
        <time>2024-06-04T23:11:06Z</time>
      </trkpt>
      <trkpt lat="45.04565" lon="6.12714">
        <ele>939</ele>
        <time>2024-06-04T23:11:07Z</time>
      </trkpt>
      <trkpt lat="45.04567" lon="6.12704">
        <ele>937</ele>
        <time>2024-06-04T23:11:09Z</time>
      </trkpt>
      <trkpt lat="45.04564" lon="6.12695">
        <ele>936</ele>
        <time>2024-06-04T23:11:10Z</time>
      </trkpt>
      <trkpt lat="45.04552" lon="6.12683">
        <ele>935</ele>
        <time>2024-06-04T23:11:12Z</time>
      </trkpt>
      <trkpt lat="45.04541" lon="6.12674">
        <ele>934</ele>
        <time>2024-06-04T23:11:15Z</time>
      </trkpt>
      <trkpt lat="45.04527" lon="6.12666">
        <ele>933</ele>
        <time>2024-06-04T23:11:17Z</time>
      </trkpt>
      <trkpt lat="45.04502" lon="6.12629">
        <ele>932</ele>
        <time>2024-06-04T23:11:24Z</time>
      </trkpt>
      <trkpt lat="45.0448" lon="6.12613">
        <ele>933</ele>
        <time>2024-06-04T23:11:28Z</time>
      </trkpt>
      <trkpt lat="45.04483" lon="6.12594">
        <ele>932</ele>
        <time>2024-06-04T23:11:31Z</time>
      </trkpt>
      <trkpt lat="45.04482" lon="6.1255">
        <ele>930</ele>
        <time>2024-06-04T23:11:36Z</time>
      </trkpt>
      <trkpt lat="45.04476" lon="6.12524">
        <ele>929</ele>
        <time>2024-06-04T23:11:40Z</time>
      </trkpt>
      <trkpt lat="45.04464" lon="6.12513">
        <ele>929</ele>
        <time>2024-06-04T23:11:42Z</time>
      </trkpt>
      <trkpt lat="45.04461" lon="6.12505">
        <ele>929</ele>
        <time>2024-06-04T23:11:43Z</time>
      </trkpt>
      <trkpt lat="45.04384" lon="6.1247">
        <ele>928</ele>
        <time>2024-06-04T23:11:58Z</time>
      </trkpt>
      <trkpt lat="45.04335" lon="6.12442">
        <ele>927</ele>
        <time>2024-06-04T23:12:07Z</time>
      </trkpt>
      <trkpt lat="45.04281" lon="6.12419">
        <ele>930</ele>
        <time>2024-06-04T23:12:17Z</time>
      </trkpt>
      <trkpt lat="45.04264" lon="6.12403">
        <ele>932</ele>
        <time>2024-06-04T23:12:21Z</time>
      </trkpt>
      <trkpt lat="45.04258" lon="6.12394">
        <ele>932</ele>
        <time>2024-06-04T23:12:22Z</time>
      </trkpt>
      <trkpt lat="45.04249" lon="6.12372">
        <ele>932</ele>
        <time>2024-06-04T23:12:26Z</time>
      </trkpt>
      <trkpt lat="45.04242" lon="6.12351">
        <ele>933</ele>
        <time>2024-06-04T23:12:28Z</time>
      </trkpt>
      <trkpt lat="45.04237" lon="6.12329">
        <ele>934</ele>
        <time>2024-06-04T23:12:31Z</time>
      </trkpt>
      <trkpt lat="45.04236" lon="6.12308">
        <ele>935</ele>
        <time>2024-06-04T23:12:34Z</time>
      </trkpt>
      <trkpt lat="45.04238" lon="6.12286">
        <ele>936</ele>
        <time>2024-06-04T23:12:37Z</time>
      </trkpt>
      <trkpt lat="45.04243" lon="6.12266">
        <ele>936</ele>
        <time>2024-06-04T23:12:39Z</time>
      </trkpt>
      <trkpt lat="45.0426" lon="6.12214">
        <ele>940</ele>
        <time>2024-06-04T23:12:47Z</time>
      </trkpt>
      <trkpt lat="45.04263" lon="6.12194">
        <ele>943</ele>
        <time>2024-06-04T23:12:49Z</time>
      </trkpt>
      <trkpt lat="45.04262" lon="6.12152">
        <ele>945</ele>
        <time>2024-06-04T23:12:54Z</time>
      </trkpt>
      <trkpt lat="45.04259" lon="6.12129">
        <ele>942</ele>
        <time>2024-06-04T23:12:57Z</time>
      </trkpt>
      <trkpt lat="45.04254" lon="6.1211">
        <ele>938</ele>
        <time>2024-06-04T23:13:00Z</time>
      </trkpt>
      <trkpt lat="45.04238" lon="6.12079">
        <ele>937</ele>
        <time>2024-06-04T23:13:05Z</time>
      </trkpt>
      <trkpt lat="45.04221" lon="6.12057">
        <ele>940</ele>
        <time>2024-06-04T23:13:09Z</time>
      </trkpt>
      <trkpt lat="45.04202" lon="6.12043">
        <ele>942</ele>
        <time>2024-06-04T23:13:13Z</time>
      </trkpt>
      <trkpt lat="45.04171" lon="6.12028">
        <ele>942</ele>
        <time>2024-06-04T23:13:19Z</time>
      </trkpt>
      <trkpt lat="45.04158" lon="6.12018">
        <ele>943</ele>
        <time>2024-06-04T23:13:21Z</time>
      </trkpt>
      <trkpt lat="45.04152" lon="6.1201">
        <ele>943</ele>
        <time>2024-06-04T23:13:23Z</time>
      </trkpt>
      <trkpt lat="45.04135" lon="6.11972">
        <ele>947</ele>
        <time>2024-06-04T23:13:28Z</time>
      </trkpt>
      <trkpt lat="45.04121" lon="6.1195">
        <ele>950</ele>
        <time>2024-06-04T23:13:32Z</time>
      </trkpt>
      <trkpt lat="45.04047" lon="6.11866">
        <ele>959</ele>
        <time>2024-06-04T23:13:49Z</time>
      </trkpt>
      <trkpt lat="45.04036" lon="6.11848">
        <ele>958</ele>
        <time>2024-06-04T23:13:52Z</time>
      </trkpt>
      <trkpt lat="45.04028" lon="6.1183">
        <ele>956</ele>
        <time>2024-06-04T23:13:55Z</time>
      </trkpt>
      <trkpt lat="45.04013" lon="6.11781">
        <ele>959</ele>
        <time>2024-06-04T23:14:01Z</time>
      </trkpt>
      <trkpt lat="45.04002" lon="6.11725">
        <ele>972</ele>
        <time>2024-06-04T23:14:09Z</time>
      </trkpt>
      <trkpt lat="45.03993" lon="6.11632">
        <ele>1019</ele>
        <time>2024-06-04T23:14:20Z</time>
      </trkpt>
      <trkpt lat="45.03996" lon="6.11575">
        <ele>1031</ele>
        <time>2024-06-04T23:14:28Z</time>
      </trkpt>
      <trkpt lat="45.03995" lon="6.11551">
        <ele>1037</ele>
        <time>2024-06-04T23:14:31Z</time>
      </trkpt>
      <trkpt lat="45.03983" lon="6.11434">
        <ele>1068</ele>
        <time>2024-06-04T23:14:45Z</time>
      </trkpt>
      <trkpt lat="45.03976" lon="6.114">
        <ele>1076</ele>
        <time>2024-06-04T23:14:50Z</time>
      </trkpt>
      <trkpt lat="45.03957" lon="6.11343">
        <ele>1087</ele>
        <time>2024-06-04T23:14:58Z</time>
      </trkpt>
      <trkpt lat="45.03952" lon="6.11318">
        <ele>1090</ele>
        <time>2024-06-04T23:15:01Z</time>
      </trkpt>
      <trkpt lat="45.03947" lon="6.11251">
        <ele>1092</ele>
        <time>2024-06-04T23:15:10Z</time>
      </trkpt>
      <trkpt lat="45.03925" lon="6.1103">
        <ele>997</ele>
        <time>2024-06-04T23:15:38Z</time>
      </trkpt>
      <trkpt lat="45.03919" lon="6.11002">
        <ele>998</ele>
        <time>2024-06-04T23:15:41Z</time>
      </trkpt>
      <trkpt lat="45.03904" lon="6.10969">
        <ele>1007</ele>
        <time>2024-06-04T23:15:46Z</time>
      </trkpt>
      <trkpt lat="45.03898" lon="6.10945">
        <ele>1008</ele>
        <time>2024-06-04T23:15:49Z</time>
      </trkpt>
      <trkpt lat="45.03897" lon="6.10931">
        <ele>1006</ele>
        <time>2024-06-04T23:15:51Z</time>
      </trkpt>
      <trkpt lat="45.03898" lon="6.10912">
        <ele>1001</ele>
        <time>2024-06-04T23:15:54Z</time>
      </trkpt>
      <trkpt lat="45.03902" lon="6.1089">
        <ele>992</ele>
        <time>2024-06-04T23:15:56Z</time>
      </trkpt>
      <trkpt lat="45.03912" lon="6.10854">
        <ele>975</ele>
        <time>2024-06-04T23:16:01Z</time>
      </trkpt>
      <trkpt lat="45.03912" lon="6.10836">
        <ele>970</ele>
        <time>2024-06-04T23:16:04Z</time>
      </trkpt>
      <trkpt lat="45.03907" lon="6.10819">
        <ele>966</ele>
        <time>2024-06-04T23:16:06Z</time>
      </trkpt>
      <trkpt lat="45.03883" lon="6.10771">
        <ele>967</ele>
        <time>2024-06-04T23:16:13Z</time>
      </trkpt>
      <trkpt lat="45.03874" lon="6.10748">
        <ele>967</ele>
        <time>2024-06-04T23:16:17Z</time>
      </trkpt>
      <trkpt lat="45.03869" lon="6.10733">
        <ele>969</ele>
        <time>2024-06-04T23:16:19Z</time>
      </trkpt>
      <trkpt lat="45.03861" lon="6.10687">
        <ele>966</ele>
        <time>2024-06-04T23:16:25Z</time>
      </trkpt>
      <trkpt lat="45.03854" lon="6.10661">
        <ele>967</ele>
        <time>2024-06-04T23:16:28Z</time>
      </trkpt>
      <trkpt lat="45.03825" lon="6.10568">
        <ele>980</ele>
        <time>2024-06-04T23:16:41Z</time>
      </trkpt>
      <trkpt lat="45.03819" lon="6.1054">
        <ele>986</ele>
        <time>2024-06-04T23:16:45Z</time>
      </trkpt>
      <trkpt lat="45.03815" lon="6.10517">
        <ele>990</ele>
        <time>2024-06-04T23:16:48Z</time>
      </trkpt>
      <trkpt lat="45.03802" lon="6.1041">
        <ele>1007</ele>
        <time>2024-06-04T23:17:01Z</time>
      </trkpt>
      <trkpt lat="45.038" lon="6.10391">
        <ele>1011</ele>
        <time>2024-06-04T23:17:04Z</time>
      </trkpt>
      <trkpt lat="45.03801" lon="6.10377">
        <ele>1011</ele>
        <time>2024-06-04T23:17:05Z</time>
      </trkpt>
      <trkpt lat="45.03803" lon="6.10364">
        <ele>1011</ele>
        <time>2024-06-04T23:17:07Z</time>
      </trkpt>
      <trkpt lat="45.03808" lon="6.10352">
        <ele>1009</ele>
        <time>2024-06-04T23:17:09Z</time>
      </trkpt>
      <trkpt lat="45.03846" lon="6.10292">
        <ele>997</ele>
        <time>2024-06-04T23:17:19Z</time>
      </trkpt>
      <trkpt lat="45.03868" lon="6.10274">
        <ele>993</ele>
        <time>2024-06-04T23:17:24Z</time>
      </trkpt>
      <trkpt lat="45.0388" lon="6.10256">
        <ele>993</ele>
        <time>2024-06-04T23:17:27Z</time>
      </trkpt>
      <trkpt lat="45.03885" lon="6.10236">
        <ele>995</ele>
        <time>2024-06-04T23:17:29Z</time>
      </trkpt>
      <trkpt lat="45.03886" lon="6.10215">
        <ele>997</ele>
        <time>2024-06-04T23:17:32Z</time>
      </trkpt>
      <trkpt lat="45.03879" lon="6.10188">
        <ele>1005</ele>
        <time>2024-06-04T23:17:36Z</time>
      </trkpt>
      <trkpt lat="45.03878" lon="6.10171">
        <ele>1008</ele>
        <time>2024-06-04T23:17:38Z</time>
      </trkpt>
      <trkpt lat="45.03882" lon="6.10153">
        <ele>1012</ele>
        <time>2024-06-04T23:17:40Z</time>
      </trkpt>
      <trkpt lat="45.03892" lon="6.1014">
        <ele>1011</ele>
        <time>2024-06-04T23:17:42Z</time>
      </trkpt>
      <trkpt lat="45.03913" lon="6.10121">
        <ele>1008</ele>
        <time>2024-06-04T23:17:47Z</time>
      </trkpt>
      <trkpt lat="45.03931" lon="6.10102">
        <ele>1006</ele>
        <time>2024-06-04T23:17:51Z</time>
      </trkpt>
      <trkpt lat="45.03978" lon="6.10034">
        <ele>1009</ele>
        <time>2024-06-04T23:18:03Z</time>
      </trkpt>
      <trkpt lat="45.03992" lon="6.10024">
        <ele>1007</ele>
        <time>2024-06-04T23:18:06Z</time>
      </trkpt>
      <trkpt lat="45.04021" lon="6.10019">
        <ele>991</ele>
        <time>2024-06-04T23:18:11Z</time>
      </trkpt>
      <trkpt lat="45.04039" lon="6.1001">
        <ele>985</ele>
        <time>2024-06-04T23:18:14Z</time>
      </trkpt>
      <trkpt lat="45.0405" lon="6.1">
        <ele>983</ele>
        <time>2024-06-04T23:18:17Z</time>
      </trkpt>
      <trkpt lat="45.04077" lon="6.0997">
        <ele>978</ele>
        <time>2024-06-04T23:18:23Z</time>
      </trkpt>
      <trkpt lat="45.04094" lon="6.09945">
        <ele>975</ele>
        <time>2024-06-04T23:18:27Z</time>
      </trkpt>
      <trkpt lat="45.04097" lon="6.09925">
        <ele>980</ele>
        <time>2024-06-04T23:18:30Z</time>
      </trkpt>
      <trkpt lat="45.04097" lon="6.09915">
        <ele>984</ele>
        <time>2024-06-04T23:18:31Z</time>
      </trkpt>
      <trkpt lat="45.04094" lon="6.09903">
        <ele>985</ele>
        <time>2024-06-04T23:18:32Z</time>
      </trkpt>
      <trkpt lat="45.04089" lon="6.09888">
        <ele>988</ele>
        <time>2024-06-04T23:18:35Z</time>
      </trkpt>
      <trkpt lat="45.04082" lon="6.09878">
        <ele>991</ele>
        <time>2024-06-04T23:18:36Z</time>
      </trkpt>
      <trkpt lat="45.04074" lon="6.09869">
        <ele>993</ele>
        <time>2024-06-04T23:18:38Z</time>
      </trkpt>
      <trkpt lat="45.04047" lon="6.09847">
        <ele>1000</ele>
        <time>2024-06-04T23:18:44Z</time>
      </trkpt>
      <trkpt lat="45.04037" lon="6.09835">
        <ele>1001</ele>
        <time>2024-06-04T23:18:46Z</time>
      </trkpt>
      <trkpt lat="45.04027" lon="6.0982">
        <ele>1001</ele>
        <time>2024-06-04T23:18:49Z</time>
      </trkpt>
      <trkpt lat="45.04021" lon="6.09801">
        <ele>999</ele>
        <time>2024-06-04T23:18:51Z</time>
      </trkpt>
      <trkpt lat="45.04017" lon="6.09783">
        <ele>996</ele>
        <time>2024-06-04T23:18:54Z</time>
      </trkpt>
      <trkpt lat="45.04018" lon="6.09762">
        <ele>991</ele>
        <time>2024-06-04T23:18:56Z</time>
      </trkpt>
      <trkpt lat="45.04031" lon="6.09696">
        <ele>986</ele>
        <time>2024-06-04T23:19:05Z</time>
      </trkpt>
      <trkpt lat="45.04035" lon="6.09666">
        <ele>985</ele>
        <time>2024-06-04T23:19:09Z</time>
      </trkpt>
      <trkpt lat="45.04035" lon="6.09646">
        <ele>984</ele>
        <time>2024-06-04T23:19:11Z</time>
      </trkpt>
      <trkpt lat="45.04029" lon="6.09617">
        <ele>984</ele>
        <time>2024-06-04T23:19:15Z</time>
      </trkpt>
      <trkpt lat="45.04" lon="6.09559">
        <ele>988</ele>
        <time>2024-06-04T23:19:24Z</time>
      </trkpt>
      <trkpt lat="45.03977" lon="6.09505">
        <ele>983</ele>
        <time>2024-06-04T23:19:32Z</time>
      </trkpt>
      <trkpt lat="45.03957" lon="6.09463">
        <ele>980</ele>
        <time>2024-06-04T23:19:38Z</time>
      </trkpt>
      <trkpt lat="45.0394" lon="6.09438">
        <ele>979</ele>
        <time>2024-06-04T23:19:43Z</time>
      </trkpt>
      <trkpt lat="45.03898" lon="6.09388">
        <ele>977</ele>
        <time>2024-06-04T23:19:52Z</time>
      </trkpt>
      <trkpt lat="45.03889" lon="6.0937">
        <ele>975</ele>
        <time>2024-06-04T23:19:55Z</time>
      </trkpt>
      <trkpt lat="45.03866" lon="6.09307">
        <ele>972</ele>
        <time>2024-06-04T23:20:04Z</time>
      </trkpt>
      <trkpt lat="45.03809" lon="6.09187">
        <ele>958</ele>
        <time>2024-06-04T23:20:22Z</time>
      </trkpt>
      <trkpt lat="45.03797" lon="6.09168">
        <ele>956</ele>
        <time>2024-06-04T23:20:25Z</time>
      </trkpt>
      <trkpt lat="45.0379" lon="6.09161">
        <ele>951</ele>
        <time>2024-06-04T23:20:27Z</time>
      </trkpt>
      <trkpt lat="45.03774" lon="6.09151">
        <ele>944</ele>
        <time>2024-06-04T23:20:30Z</time>
      </trkpt>
      <trkpt lat="45.03763" lon="6.0915">
        <ele>945</ele>
        <time>2024-06-04T23:20:32Z</time>
      </trkpt>
      <trkpt lat="45.03745" lon="6.09158">
        <ele>952</ele>
        <time>2024-06-04T23:20:35Z</time>
      </trkpt>
      <trkpt lat="45.03729" lon="6.09171">
        <ele>955</ele>
        <time>2024-06-04T23:20:39Z</time>
      </trkpt>
      <trkpt lat="45.03708" lon="6.09192">
        <ele>952</ele>
        <time>2024-06-04T23:20:43Z</time>
      </trkpt>
      <trkpt lat="45.03693" lon="6.09209">
        <ele>951</ele>
        <time>2024-06-04T23:20:47Z</time>
      </trkpt>
      <trkpt lat="45.03683" lon="6.09226">
        <ele>950</ele>
        <time>2024-06-04T23:20:49Z</time>
      </trkpt>
      <trkpt lat="45.03649" lon="6.09309">
        <ele>953</ele>
        <time>2024-06-04T23:21:02Z</time>
      </trkpt>
      <trkpt lat="45.03639" lon="6.09322">
        <ele>955</ele>
        <time>2024-06-04T23:21:04Z</time>
      </trkpt>
      <trkpt lat="45.03629" lon="6.09327">
        <ele>956</ele>
        <time>2024-06-04T23:21:06Z</time>
      </trkpt>
      <trkpt lat="45.03614" lon="6.09327">
        <ele>956</ele>
        <time>2024-06-04T23:21:08Z</time>
      </trkpt>
      <trkpt lat="45.03599" lon="6.09318">
        <ele>955</ele>
        <time>2024-06-04T23:21:11Z</time>
      </trkpt>
      <trkpt lat="45.03592" lon="6.09311">
        <ele>954</ele>
        <time>2024-06-04T23:21:13Z</time>
      </trkpt>
      <trkpt lat="45.03544" lon="6.09251">
        <ele>947</ele>
        <time>2024-06-04T23:21:24Z</time>
      </trkpt>
      <trkpt lat="45.03521" lon="6.09228">
        <ele>942</ele>
        <time>2024-06-04T23:21:29Z</time>
      </trkpt>
      <trkpt lat="45.03503" lon="6.09218">
        <ele>940</ele>
        <time>2024-06-04T23:21:33Z</time>
      </trkpt>
      <trkpt lat="45.0342" lon="6.09189">
        <ele>938</ele>
        <time>2024-06-04T23:21:48Z</time>
      </trkpt>
      <trkpt lat="45.03403" lon="6.09177">
        <ele>937</ele>
        <time>2024-06-04T23:21:51Z</time>
      </trkpt>
      <trkpt lat="45.03394" lon="6.09164">
        <ele>934</ele>
        <time>2024-06-04T23:21:54Z</time>
      </trkpt>
      <trkpt lat="45.0339" lon="6.09153">
        <ele>933</ele>
        <time>2024-06-04T23:21:55Z</time>
      </trkpt>
      <trkpt lat="45.03388" lon="6.09141">
        <ele>931</ele>
        <time>2024-06-04T23:21:57Z</time>
      </trkpt>
      <trkpt lat="45.03389" lon="6.09111">
        <ele>925</ele>
        <time>2024-06-04T23:22:01Z</time>
      </trkpt>
      <trkpt lat="45.03388" lon="6.09095">
        <ele>923</ele>
        <time>2024-06-04T23:22:03Z</time>
      </trkpt>
      <trkpt lat="45.03385" lon="6.09082">
        <ele>920</ele>
        <time>2024-06-04T23:22:04Z</time>
      </trkpt>
      <trkpt lat="45.0338" lon="6.09072">
        <ele>918</ele>
        <time>2024-06-04T23:22:06Z</time>
      </trkpt>
      <trkpt lat="45.03367" lon="6.09059">
        <ele>916</ele>
        <time>2024-06-04T23:22:09Z</time>
      </trkpt>
      <trkpt lat="45.03357" lon="6.09056">
        <ele>917</ele>
        <time>2024-06-04T23:22:10Z</time>
      </trkpt>
      <trkpt lat="45.03311" lon="6.09052">
        <ele>920</ele>
        <time>2024-06-04T23:22:19Z</time>
      </trkpt>
      <trkpt lat="45.03291" lon="6.09044">
        <ele>919</ele>
        <time>2024-06-04T23:22:22Z</time>
      </trkpt>
      <trkpt lat="45.03271" lon="6.09028">
        <ele>916</ele>
        <time>2024-06-04T23:22:26Z</time>
      </trkpt>
      <trkpt lat="45.03261" lon="6.0901">
        <ele>914</ele>
        <time>2024-06-04T23:22:29Z</time>
      </trkpt>
      <trkpt lat="45.03253" lon="6.08991">
        <ele>912</ele>
        <time>2024-06-04T23:22:32Z</time>
      </trkpt>
      <trkpt lat="45.03246" lon="6.08961">
        <ele>911</ele>
        <time>2024-06-04T23:22:36Z</time>
      </trkpt>
      <trkpt lat="45.03234" lon="6.0886">
        <ele>910</ele>
        <time>2024-06-04T23:22:49Z</time>
      </trkpt>
      <trkpt lat="45.03234" lon="6.08834">
        <ele>909</ele>
        <time>2024-06-04T23:22:52Z</time>
      </trkpt>
      <trkpt lat="45.03242" lon="6.08771">
        <ele>892</ele>
        <time>2024-06-04T23:23:00Z</time>
      </trkpt>
      <trkpt lat="45.03241" lon="6.08757">
        <ele>889</ele>
        <time>2024-06-04T23:23:02Z</time>
      </trkpt>
      <trkpt lat="45.03236" lon="6.08733">
        <ele>879</ele>
        <time>2024-06-04T23:23:05Z</time>
      </trkpt>
      <trkpt lat="45.03228" lon="6.08721">
        <ele>877</ele>
        <time>2024-06-04T23:23:07Z</time>
      </trkpt>
      <trkpt lat="45.03223" lon="6.08716">
        <ele>877</ele>
        <time>2024-06-04T23:23:08Z</time>
      </trkpt>
      <trkpt lat="45.03195" lon="6.08701">
        <ele>886</ele>
        <time>2024-06-04T23:23:14Z</time>
      </trkpt>
      <trkpt lat="45.03182" lon="6.08687">
        <ele>889</ele>
        <time>2024-06-04T23:23:17Z</time>
      </trkpt>
      <trkpt lat="45.03174" lon="6.0867">
        <ele>890</ele>
        <time>2024-06-04T23:23:19Z</time>
      </trkpt>
      <trkpt lat="45.03148" lon="6.08604">
        <ele>858</ele>
        <time>2024-06-04T23:23:29Z</time>
      </trkpt>
      <trkpt lat="45.03137" lon="6.08584">
        <ele>853</ele>
        <time>2024-06-04T23:23:32Z</time>
      </trkpt>
      <trkpt lat="45.03129" lon="6.08573">
        <ele>853</ele>
        <time>2024-06-04T23:23:34Z</time>
      </trkpt>
      <trkpt lat="45.03104" lon="6.08548">
        <ele>859</ele>
        <time>2024-06-04T23:23:39Z</time>
      </trkpt>
      <trkpt lat="45.02978" lon="6.08443">
        <ele>867</ele>
        <time>2024-06-04T23:24:05Z</time>
      </trkpt>
      <trkpt lat="45.02965" lon="6.08429">
        <ele>867</ele>
        <time>2024-06-04T23:24:08Z</time>
      </trkpt>
      <trkpt lat="45.02951" lon="6.08412">
        <ele>867</ele>
        <time>2024-06-04T23:24:11Z</time>
      </trkpt>
      <trkpt lat="45.02882" lon="6.08296">
        <ele>844</ele>
        <time>2024-06-04T23:24:31Z</time>
      </trkpt>
      <trkpt lat="45.02849" lon="6.08234">
        <ele>839</ele>
        <time>2024-06-04T23:24:40Z</time>
      </trkpt>
      <trkpt lat="45.02838" lon="6.08219">
        <ele>839</ele>
        <time>2024-06-04T23:24:43Z</time>
      </trkpt>
      <trkpt lat="45.028" lon="6.08186">
        <ele>860</ele>
        <time>2024-06-04T23:24:51Z</time>
      </trkpt>
      <trkpt lat="45.02773" lon="6.08155">
        <ele>879</ele>
        <time>2024-06-04T23:24:57Z</time>
      </trkpt>
      <trkpt lat="45.0274" lon="6.08123">
        <ele>918</ele>
        <time>2024-06-04T23:25:04Z</time>
      </trkpt>
      <trkpt lat="45.02729" lon="6.08106">
        <ele>932</ele>
        <time>2024-06-04T23:25:07Z</time>
      </trkpt>
      <trkpt lat="45.02723" lon="6.08087">
        <ele>940</ele>
        <time>2024-06-04T23:25:10Z</time>
      </trkpt>
      <trkpt lat="45.027" lon="6.07996">
        <ele>935</ele>
        <time>2024-06-04T23:25:22Z</time>
      </trkpt>
      <trkpt lat="45.02695" lon="6.07912">
        <ele>922</ele>
        <time>2024-06-04T23:25:33Z</time>
      </trkpt>
      <trkpt lat="45.02695" lon="6.07862">
        <ele>922</ele>
        <time>2024-06-04T23:25:39Z</time>
      </trkpt>
      <trkpt lat="45.02697" lon="6.07837">
        <ele>919</ele>
        <time>2024-06-04T23:25:42Z</time>
      </trkpt>
      <trkpt lat="45.02701" lon="6.07816">
        <ele>920</ele>
        <time>2024-06-04T23:25:45Z</time>
      </trkpt>
      <trkpt lat="45.0271" lon="6.0778">
        <ele>925</ele>
        <time>2024-06-04T23:25:50Z</time>
      </trkpt>
      <trkpt lat="45.02724" lon="6.07745">
        <ele>925</ele>
        <time>2024-06-04T23:25:55Z</time>
      </trkpt>
      <trkpt lat="45.02738" lon="6.07721">
        <ele>922</ele>
        <time>2024-06-04T23:25:58Z</time>
      </trkpt>
      <trkpt lat="45.02777" lon="6.07676">
        <ele>916</ele>
        <time>2024-06-04T23:26:07Z</time>
      </trkpt>
      <trkpt lat="45.02792" lon="6.07666">
        <ele>910</ele>
        <time>2024-06-04T23:26:10Z</time>
      </trkpt>
      <trkpt lat="45.0282" lon="6.07654">
        <ele>891</ele>
        <time>2024-06-04T23:26:16Z</time>
      </trkpt>
      <trkpt lat="45.02835" lon="6.0765">
        <ele>881</ele>
        <time>2024-06-04T23:26:18Z</time>
      </trkpt>
      <trkpt lat="45.02857" lon="6.0765">
        <ele>871</ele>
        <time>2024-06-04T23:26:22Z</time>
      </trkpt>
      <trkpt lat="45.0288" lon="6.07652">
        <ele>861</ele>
        <time>2024-06-04T23:26:26Z</time>
      </trkpt>
      <trkpt lat="45.0291" lon="6.07663">
        <ele>842</ele>
        <time>2024-06-04T23:26:32Z</time>
      </trkpt>
      <trkpt lat="45.02942" lon="6.07683">
        <ele>824</ele>
        <time>2024-06-04T23:26:38Z</time>
      </trkpt>
      <trkpt lat="45.0297" lon="6.07702">
        <ele>808</ele>
        <time>2024-06-04T23:26:44Z</time>
      </trkpt>
      <trkpt lat="45.02987" lon="6.07711">
        <ele>801</ele>
        <time>2024-06-04T23:26:47Z</time>
      </trkpt>
      <trkpt lat="45.02996" lon="6.07713">
        <ele>798</ele>
        <time>2024-06-04T23:26:48Z</time>
      </trkpt>
      <trkpt lat="45.03046" lon="6.07714">
        <ele>787</ele>
        <time>2024-06-04T23:26:57Z</time>
      </trkpt>
      <trkpt lat="45.03057" lon="6.07711">
        <ele>786</ele>
        <time>2024-06-04T23:26:59Z</time>
      </trkpt>
      <trkpt lat="45.03067" lon="6.07705">
        <ele>785</ele>
        <time>2024-06-04T23:27:01Z</time>
      </trkpt>
      <trkpt lat="45.03079" lon="6.0769">
        <ele>787</ele>
        <time>2024-06-04T23:27:04Z</time>
      </trkpt>
      <trkpt lat="45.03085" lon="6.07675">
        <ele>789</ele>
        <time>2024-06-04T23:27:06Z</time>
      </trkpt>
      <trkpt lat="45.03089" lon="6.07655">
        <ele>790</ele>
        <time>2024-06-04T23:27:09Z</time>
      </trkpt>
      <trkpt lat="45.03089" lon="6.07639">
        <ele>790</ele>
        <time>2024-06-04T23:27:11Z</time>
      </trkpt>
      <trkpt lat="45.03078" lon="6.07494">
        <ele>781</ele>
        <time>2024-06-04T23:27:29Z</time>
      </trkpt>
      <trkpt lat="45.03075" lon="6.07477">
        <ele>780</ele>
        <time>2024-06-04T23:27:31Z</time>
      </trkpt>
      <trkpt lat="45.0307" lon="6.07459">
        <ele>780</ele>
        <time>2024-06-04T23:27:34Z</time>
      </trkpt>
      <trkpt lat="45.0306" lon="6.07437">
        <ele>781</ele>
        <time>2024-06-04T23:27:37Z</time>
      </trkpt>
      <trkpt lat="45.0302" lon="6.0736">
        <ele>776</ele>
        <time>2024-06-04T23:27:49Z</time>
      </trkpt>
      <trkpt lat="45.02937" lon="6.07266">
        <ele>764</ele>
        <time>2024-06-04T23:28:08Z</time>
      </trkpt>
      <trkpt lat="45.02916" lon="6.0725">
        <ele>761</ele>
        <time>2024-06-04T23:28:12Z</time>
      </trkpt>
      <trkpt lat="45.02858" lon="6.07224">
        <ele>760</ele>
        <time>2024-06-04T23:28:23Z</time>
      </trkpt>
      <trkpt lat="45.02846" lon="6.07213">
        <ele>758</ele>
        <time>2024-06-04T23:28:26Z</time>
      </trkpt>
      <trkpt lat="45.02839" lon="6.07198">
        <ele>755</ele>
        <time>2024-06-04T23:28:28Z</time>
      </trkpt>
      <trkpt lat="45.02837" lon="6.07186">
        <ele>752</ele>
        <time>2024-06-04T23:28:30Z</time>
      </trkpt>
      <trkpt lat="45.02838" lon="6.07177">
        <ele>750</ele>
        <time>2024-06-04T23:28:31Z</time>
      </trkpt>
      <trkpt lat="45.02825" lon="6.07175">
        <ele>750</ele>
        <time>2024-06-04T23:28:33Z</time>
      </trkpt>
      <trkpt lat="45.02812" lon="6.07178">
        <ele>751</ele>
        <time>2024-06-04T23:28:35Z</time>
      </trkpt>
      <trkpt lat="45.02803" lon="6.07182">
        <ele>753</ele>
        <time>2024-06-04T23:28:37Z</time>
      </trkpt>
      <trkpt lat="45.02803" lon="6.07192">
        <ele>756</ele>
        <time>2024-06-04T23:28:38Z</time>
      </trkpt>
      <trkpt lat="45.02805" lon="6.07202">
        <ele>759</ele>
        <time>2024-06-04T23:28:40Z</time>
      </trkpt>
      <trkpt lat="45.02809" lon="6.07203">
        <ele>759</ele>
        <time>2024-06-04T23:28:40Z</time>
      </trkpt>
      <trkpt lat="45.02831" lon="6.07199">
        <ele>755</ele>
        <time>2024-06-04T23:28:44Z</time>
      </trkpt>
      <trkpt lat="45.02839" lon="6.07198">
        <ele>755</ele>
        <time>2024-06-04T23:28:46Z</time>
      </trkpt>
      <trkpt lat="45.02837" lon="6.07186">
        <ele>752</ele>
        <time>2024-06-04T23:28:47Z</time>
      </trkpt>
      <trkpt lat="45.02838" lon="6.07177">
        <ele>750</ele>
        <time>2024-06-04T23:28:48Z</time>
      </trkpt>
      <trkpt lat="45.02841" lon="6.07163">
        <ele>747</ele>
        <time>2024-06-04T23:28:50Z</time>
      </trkpt>
      <trkpt lat="45.02847" lon="6.07153">
        <ele>746</ele>
        <time>2024-06-04T23:28:52Z</time>
      </trkpt>
      <trkpt lat="45.02857" lon="6.07141">
        <ele>745</ele>
        <time>2024-06-04T23:28:54Z</time>
      </trkpt>
      <trkpt lat="45.02981" lon="6.07034">
        <ele>743</ele>
        <time>2024-06-04T23:29:20Z</time>
      </trkpt>
      <trkpt lat="45.03004" lon="6.07014">
        <ele>744</ele>
        <time>2024-06-04T23:29:25Z</time>
      </trkpt>
      <trkpt lat="45.04547" lon="6.05656">
        <ele>727</ele>
        <time>2024-06-04T23:34:48Z</time>
      </trkpt>
      <trkpt lat="45.04575" lon="6.05626">
        <ele>726</ele>
        <time>2024-06-04T23:34:54Z</time>
      </trkpt>
      <trkpt lat="45.04596" lon="6.05599">
        <ele>726</ele>
        <time>2024-06-04T23:34:59Z</time>
      </trkpt>
      <trkpt lat="45.04618" lon="6.05565">
        <ele>725</ele>
        <time>2024-06-04T23:35:05Z</time>
      </trkpt>
      <trkpt lat="45.05108" lon="6.04731">
        <ele>725</ele>
        <time>2024-06-04T23:37:22Z</time>
      </trkpt>
      <trkpt lat="45.05129" lon="6.04699">
        <ele>726</ele>
        <time>2024-06-04T23:37:27Z</time>
      </trkpt>
      <trkpt lat="45.05596" lon="6.04109">
        <ele>723</ele>
        <time>2024-06-04T23:39:18Z</time>
      </trkpt>
      <trkpt lat="45.05621" lon="6.04082">
        <ele>722</ele>
        <time>2024-06-04T23:39:24Z</time>
      </trkpt>
      <trkpt lat="45.05641" lon="6.04062">
        <ele>723</ele>
        <time>2024-06-04T23:39:28Z</time>
      </trkpt>
      <trkpt lat="45.05689" lon="6.04025">
        <ele>724</ele>
        <time>2024-06-04T23:39:38Z</time>
      </trkpt>
      <trkpt lat="45.05843" lon="6.03936">
        <ele>721</ele>
        <time>2024-06-04T23:40:08Z</time>
      </trkpt>
      <trkpt lat="45.0587" lon="6.03915">
        <ele>720</ele>
        <time>2024-06-04T23:40:13Z</time>
      </trkpt>
      <trkpt lat="45.05886" lon="6.039">
        <ele>721</ele>
        <time>2024-06-04T23:40:17Z</time>
      </trkpt>
      <trkpt lat="45.05899" lon="6.03878">
        <ele>721</ele>
        <time>2024-06-04T23:40:20Z</time>
      </trkpt>
      <trkpt lat="45.05906" lon="6.03862">
        <ele>721</ele>
        <time>2024-06-04T23:40:23Z</time>
      </trkpt>
      <trkpt lat="45.05917" lon="6.03822">
        <ele>721</ele>
        <time>2024-06-04T23:40:28Z</time>
      </trkpt>
      <trkpt lat="45.05926" lon="6.03805">
        <ele>722</ele>
        <time>2024-06-04T23:40:31Z</time>
      </trkpt>
      <trkpt lat="45.05933" lon="6.03801">
        <ele>722</ele>
        <time>2024-06-04T23:40:32Z</time>
      </trkpt>
      <trkpt lat="45.05939" lon="6.03792">
        <ele>722</ele>
        <time>2024-06-04T23:40:34Z</time>
      </trkpt>
      <trkpt lat="45.05941" lon="6.0378">
        <ele>722</ele>
        <time>2024-06-04T23:40:35Z</time>
      </trkpt>
      <trkpt lat="45.05939" lon="6.03768">
        <ele>723</ele>
        <time>2024-06-04T23:40:37Z</time>
      </trkpt>
      <trkpt lat="45.05936" lon="6.03763">
        <ele>723</ele>
        <time>2024-06-04T23:40:38Z</time>
      </trkpt>
      <trkpt lat="45.05936" lon="6.03744">
        <ele>723</ele>
        <time>2024-06-04T23:40:40Z</time>
      </trkpt>
      <trkpt lat="45.05941" lon="6.03711">
        <ele>723</ele>
        <time>2024-06-04T23:40:44Z</time>
      </trkpt>
      <trkpt lat="45.05952" lon="6.0367">
        <ele>722</ele>
        <time>2024-06-04T23:40:50Z</time>
      </trkpt>
      <trkpt lat="45.05961" lon="6.03645">
        <ele>722</ele>
        <time>2024-06-04T23:40:53Z</time>
      </trkpt>
      <trkpt lat="45.05971" lon="6.03622">
        <ele>721</ele>
        <time>2024-06-04T23:40:57Z</time>
      </trkpt>
      <trkpt lat="45.05991" lon="6.03587">
        <ele>720</ele>
        <time>2024-06-04T23:41:02Z</time>
      </trkpt>
      <trkpt lat="45.06091" lon="6.03458">
        <ele>722</ele>
        <time>2024-06-04T23:41:26Z</time>
      </trkpt>
      <trkpt lat="45.06168" lon="6.03364">
        <ele>724</ele>
        <time>2024-06-04T23:41:44Z</time>
      </trkpt>
      <trkpt lat="45.06186" lon="6.03346">
        <ele>723</ele>
        <time>2024-06-04T23:41:48Z</time>
      </trkpt>
      <trkpt lat="45.06219" lon="6.03317">
        <ele>721</ele>
        <time>2024-06-04T23:41:55Z</time>
      </trkpt>
      <trkpt lat="45.06394" lon="6.03184">
        <ele>717</ele>
        <time>2024-06-04T23:42:31Z</time>
      </trkpt>
      <trkpt lat="45.06411" lon="6.03169">
        <ele>716</ele>
        <time>2024-06-04T23:42:34Z</time>
      </trkpt>
      <trkpt lat="45.06437" lon="6.03138">
        <ele>716</ele>
        <time>2024-06-04T23:42:40Z</time>
      </trkpt>
      <trkpt lat="45.06462" lon="6.03098">
        <ele>717</ele>
        <time>2024-06-04T23:42:47Z</time>
      </trkpt>
      <trkpt lat="45.06477" lon="6.03063">
        <ele>718</ele>
        <time>2024-06-04T23:42:52Z</time>
      </trkpt>
      <trkpt lat="45.06484" lon="6.03042">
        <ele>718</ele>
        <time>2024-06-04T23:42:55Z</time>
      </trkpt>
      <trkpt lat="45.06493" lon="6.03009">
        <ele>719</ele>
        <time>2024-06-04T23:42:59Z</time>
      </trkpt>
      <trkpt lat="45.065" lon="6.02963">
        <ele>720</ele>
        <time>2024-06-04T23:43:05Z</time>
      </trkpt>
      <trkpt lat="45.06502" lon="6.02926">
        <ele>722</ele>
        <time>2024-06-04T23:43:10Z</time>
      </trkpt>
      <trkpt lat="45.06501" lon="6.02886">
        <ele>722</ele>
        <time>2024-06-04T23:43:15Z</time>
      </trkpt>
      <trkpt lat="45.06498" lon="6.02856">
        <ele>723</ele>
        <time>2024-06-04T23:43:19Z</time>
      </trkpt>
      <trkpt lat="45.06492" lon="6.02827">
        <ele>723</ele>
        <time>2024-06-04T23:43:23Z</time>
      </trkpt>
      <trkpt lat="45.06479" lon="6.02781">
        <ele>723</ele>
        <time>2024-06-04T23:43:29Z</time>
      </trkpt>
      <trkpt lat="45.06415" lon="6.02612">
        <ele>722</ele>
        <time>2024-06-04T23:43:53Z</time>
      </trkpt>
      <trkpt lat="45.06401" lon="6.02573">
        <ele>722</ele>
        <time>2024-06-04T23:43:58Z</time>
      </trkpt>
      <trkpt lat="45.0639" lon="6.02546">
        <ele>721</ele>
        <time>2024-06-04T23:44:02Z</time>
      </trkpt>
      <trkpt lat="45.06384" lon="6.02529">
        <ele>720</ele>
        <time>2024-06-04T23:44:05Z</time>
      </trkpt>
      <trkpt lat="45.06374" lon="6.02479">
        <ele>719</ele>
        <time>2024-06-04T23:44:11Z</time>
      </trkpt>
      <trkpt lat="45.06376" lon="6.02472">
        <ele>719</ele>
        <time>2024-06-04T23:44:12Z</time>
      </trkpt>
      <trkpt lat="45.06377" lon="6.02457">
        <ele>719</ele>
        <time>2024-06-04T23:44:14Z</time>
      </trkpt>
      <trkpt lat="45.06383" lon="6.02445">
        <ele>719</ele>
        <time>2024-06-04T23:44:16Z</time>
      </trkpt>
      <trkpt lat="45.06396" lon="6.02425">
        <ele>719</ele>
        <time>2024-06-04T23:44:19Z</time>
      </trkpt>
      <trkpt lat="45.06505" lon="6.0234">
        <ele>718</ele>
        <time>2024-06-04T23:44:42Z</time>
      </trkpt>
    </trkseg>
  </trk>
</gpx>